ECMWFNIL_700_spd_000.txt.gz
Wind_Speed
24 23 22 21 21 21 21 21 21 22 22 22 23 23 24 24 23 22 21 21 20 21 21 21 22 23 23 22 22 23 24 24 25 27 29 28 29 30 31 31 33 36
24 23 21 20 21 21 22 22 22 23 23 23 23 24 24 23 22 21 21 21 20 20 21 21 21 22 23 23 22 22 23 24 24 25 27 28 29 31 32 32 32 35
23 22 20 20 20 21 21 22 22 23 24 24 24 24 23 22 21 20 19 20 20 20 21 21 21 22 22 22 22 22 22 23 24 25 26 26 28 31 32 33 32 33
23 21 20 19 20 20 21 22 22 23 23 24 24 23 22 21 20 19 18 18 19 19 20 21 21 22 22 21 21 21 21 22 24 26 26 26 27 29 31 33 35 34
23 21 20 19 20 20 21 22 23 23 23 23 23 22 22 21 19 17 17 18 19 18 19 21 21 22 22 21 20 20 20 21 23 25 28 28 28 30 31 33 35 35
23 21 20 20 21 21 22 23 22 22 22 22 22 22 21 19 17 17 18 19 19 18 19 20 20 21 22 20 20 20 20 22 23 24 28 31 31 31 32 34 36 36
24 22 21 21 21 22 22 22 21 21 21 21 20 20 19 18 17 18 18 19 19 18 19 20 18 19 21 19 18 19 19 21 22 23 26 28 30 31 31 33 35 37
24 23 22 21 21 21 22 21 21 21 21 20 19 19 18 17 17 18 18 19 19 18 20 21 18 18 19 19 19 19 20 20 21 23 26 27 28 30 31 32 34 36
24 22 21 21 21 21 21 22 23 23 22 21 19 19 18 17 18 18 18 19 19 19 20 21 19 17 17 19 20 21 22 22 22 24 26 28 28 29 31 34 35 36
23 22 21 21 21 21 22 23 24 25 24 23 21 19 18 18 19 19 19 19 20 21 20 20 19 18 16 18 20 22 23 23 23 24 26 28 29 31 34 36 37 36
22 22 22 22 22 23 23 24 24 24 24 24 22 21 20 20 20 20 20 21 22 22 21 19 19 18 18 18 20 23 24 25 26 27 28 30 30 32 35 38 39 36
22 22 22 23 23 24 24 24 23 23 24 24 24 23 22 22 21 20 20 21 23 24 23 21 19 19 19 20 22 24 26 28 29 30 30 31 32 33 36 39 40 36
21 22 22 23 24 24 24 23 21 21 22 23 24 25 24 23 22 21 20 20 22 24 25 23 20 20 21 22 23 25 27 30 31 31 32 33 33 33 35 39 41 36
20 22 23 24 25 24 22 21 19 20 21 22 24 25 24 23 23 23 21 19 20 23 26 25 22 21 22 23 25 26 29 31 31 32 33 33 33 33 36 40 39 32
20 22 24 25 24 22 21 20 18 19 21 23 25 25 23 22 22 23 22 19 18 21 26 26 24 23 23 24 26 28 30 31 31 32 34 33 32 33 36 40 35 27
19 22 24 24 22 21 20 19 18 20 22 24 24 24 23 23 22 22 22 19 18 21 25 27 25 24 24 24 26 29 31 31 31 32 33 32 31 34 37 39 34 26
19 22 24 23 22 21 20 18 18 21 23 24 24 23 23 23 22 22 20 19 18 21 25 26 25 24 24 25 27 29 30 30 30 30 31 30 30 34 37 39 37 29
22 24 25 24 23 23 20 18 19 21 23 24 24 22 22 22 22 21 19 19 19 20 23 24 25 25 25 25 27 29 30 30 28 28 30 30 30 33 37 39 39 33
24 24 25 25 24 22 21 20 19 20 22 23 24 23 21 21 21 20 19 19 19 19 20 22 24 25 25 25 26 28 29 29 27 27 28 30 30 33 37 39 38 36
24 24 25 25 23 22 22 21 20 21 22 23 23 22 22 21 20 19 19 19 19 20 19 20 22 23 23 23 25 27 28 27 26 26 27 29 31 33 36 38 38 39
24 25 25 24 22 22 22 22 22 22 23 23 22 22 22 21 20 19 19 18 18 20 19 19 20 21 22 23 24 26 27 26 26 25 25 27 29 31 35 38 38 39
25 26 26 24 23 24 23 23 23 24 25 24 23 23 22 22 21 21 20 19 17 18 18 18 19 20 20 21 23 25 27 26 25 24 24 25 27 29 32 36 38 39
26 27 27 26 26 26 25 25 25 25 25 25 25 24 22 22 21 21 22 22 20 18 17 17 17 19 19 20 22 24 25 25 24 23 22 23 26 29 30 33 37 40
28 28 28 28 28 28 27 27 27 25 25 25 25 23 21 22 22 20 20 20 20 20 19 18 18 17 18 20 22 23 23 23 22 21 21 22 25 27 28 30 34 38
28 28 28 29 29 29 29 29 28 26 26 26 26 25 23 24 24 23 22 21 19 18 18 18 18 17 17 20 22 23 23 22 20 20 20 20 23 25 25 27 30 33
29 29 29 29 30 29 29 30 30 29 28 28 28 27 27 27 27 27 26 24 22 19 17 17 17 18 19 20 22 23 22 21 19 19 19 19 21 23 24 24 26 28

ECMWFNIL_700_spd_003.txt.gz
Wind_Speed
25 24 23 23 21 20 19 19 20 20 20 20 20 20 20 19 19 19 18 18 18 18 17 17 16 16 16 17 17 18 19 19 19 19 19 19 20 21 22 23 24 25
27 25 24 24 22 21 20 20 21 21 21 21 21 21 20 19 19 18 18 18 17 17 16 16 16 15 16 17 18 18 18 19 19 19 20 21 21 21 22 23 24 25
30 28 26 25 24 23 22 21 22 22 22 22 21 20 19 18 18 18 18 17 17 16 16 15 16 16 17 17 18 18 18 20 20 20 20 21 22 22 23 24 25 26
32 29 27 26 24 23 23 22 22 22 22 21 20 19 18 18 18 18 18 17 17 15 15 16 17 17 17 18 18 17 17 19 20 21 22 22 23 24 24 24 25 25
33 31 28 26 24 23 23 22 21 21 20 20 20 19 18 18 17 18 19 19 17 15 16 16 17 17 18 18 18 17 16 17 18 20 23 24 25 25 25 26 26 27
34 32 29 26 23 22 22 21 21 20 19 20 21 20 19 19 19 19 20 20 18 16 16 16 16 18 19 20 20 18 16 16 17 19 22 23 25 25 25 26 27 28
35 33 30 26 23 22 22 22 22 21 21 20 20 20 20 20 20 20 20 20 20 19 17 16 16 17 19 20 21 19 17 17 18 19 20 22 24 25 25 26 27 28
35 33 31 27 24 23 23 24 24 24 23 22 20 20 20 20 19 20 21 21 21 21 20 19 18 17 19 21 21 21 20 19 19 20 21 22 24 26 27 28 28 29
35 33 30 28 25 25 25 25 24 22 20 22 22 21 21 20 20 20 21 22 22 22 22 21 20 19 19 21 22 22 21 21 21 21 22 24 25 27 28 29 30 31
34 32 29 27 25 25 26 26 24 18 16 20 23 22 21 20 21 22 23 23 22 22 22 21 21 21 21 21 23 24 22 23 24 23 23 24 25 28 29 30 31 33
33 31 29 26 25 25 25 25 23 20 19 20 22 23 23 22 23 24 25 24 23 22 22 22 22 23 22 21 23 24 24 24 26 25 25 25 26 29 30 30 31 33
32 30 28 26 25 25 25 24 23 23 21 19 20 23 24 25 26 26 26 24 23 22 21 22 23 24 24 23 23 24 24 25 27 26 25 26 28 29 29 29 31 32
31 30 28 25 24 24 24 24 23 23 21 20 22 23 24 26 27 27 25 23 22 22 22 21 22 24 26 26 26 26 25 26 28 26 25 27 29 29 28 28 30 31
30 29 26 24 22 23 23 23 23 23 22 23 23 23 25 27 28 28 26 23 22 23 23 22 22 24 25 26 28 29 27 25 27 26 25 27 29 29 27 28 29 30
29 26 23 22 22 23 23 23 23 23 23 23 24 24 25 27 27 26 25 24 23 23 22 22 22 23 24 25 28 28 26 25 26 26 26 28 29 28 27 28 29 30
27 23 21 22 23 24 24 23 24 23 22 22 24 24 25 26 26 25 24 23 23 22 22 22 23 22 23 24 26 26 26 27 26 26 27 29 29 27 27 28 29 30
24 21 21 22 24 24 24 24 23 23 22 23 24 25 26 27 26 25 24 23 23 22 22 22 24 23 23 24 25 26 27 27 27 27 28 29 28 26 26 27 28 29
22 21 22 22 23 23 24 23 23 23 23 25 25 26 27 27 26 25 24 24 23 23 23 22 24 24 23 25 26 25 26 27 26 27 29 29 28 26 25 26 28 28
21 21 21 21 22 22 22 23 23 23 24 26 26 27 28 28 27 26 25 25 24 23 23 23 23 23 23 25 26 25 25 26 26 27 28 28 28 26 24 26 28 29
20 21 21 22 23 22 22 23 24 25 26 26 27 28 28 28 27 26 26 26 25 24 24 25 25 24 23 24 25 25 25 26 26 27 27 27 26 26 25 25 27 29
20 21 21 22 22 23 24 25 26 27 27 27 27 27 28 27 25 25 26 27 27 26 26 27 28 27 25 25 25 25 25 26 25 26 26 25 25 26 26 26 27 28
19 21 22 22 22 24 26 28 29 30 29 29 28 28 28 27 26 25 26 27 27 27 27 27 27 27 27 28 26 25 25 26 25 25 25 24 24 25 26 27 27 28
20 22 23 23 24 25 26 29 32 32 30 29 30 29 28 28 27 27 26 27 28 28 28 27 26 26 26 27 26 25 25 25 24 23 23 23 23 24 25 26 26 26
21 23 24 26 27 27 28 30 31 31 31 30 29 28 28 28 28 27 27 28 29 29 29 27 26 25 24 25 25 24 25 25 23 21 21 22 22 22 24 25 25 25
25 25 26 28 30 30 30 30 29 30 32 32 30 28 27 28 29 29 30 30 30 30 29 27 25 24 23 24 25 25 26 26 24 22 21 21 21 21 23 24 24 24
29 29 30 32 32 33 32 30 29 30 32 33 32 28 26 27 30 32 33 33 31 30 28 27 25 23 22 22 24 25 26 26 25 22 20 20 20 20 22 23 23 22

ECMWFNIL_700_spd_006.txt.gz
Wind_Speed
28 29 28 26 25 24 23 22 22 21 21 21 21 20 21 20 20 19 19 18 17 16 16 16 16 16 16 16 16 17 17 17 17 17 15 15 16 17 18 20 22 23
28 29 29 28 26 25 25 24 24 23 23 22 22 21 21 20 20 19 19 18 18 18 18 18 17 16 15 15 16 16 17 17 18 17 16 16 18 18 19 20 21 23
28 29 30 29 29 28 28 27 26 25 24 23 22 22 21 21 20 20 19 19 19 19 19 18 17 16 16 16 16 16 17 18 18 18 17 18 19 19 20 21 21 23
27 29 31 32 32 31 31 30 29 27 25 24 22 22 22 21 21 20 19 19 19 19 19 18 17 17 17 17 17 17 17 18 19 19 19 20 21 21 21 22 23 24
26 29 31 33 34 34 32 31 30 28 27 25 24 22 21 21 20 19 19 19 19 19 19 19 19 19 19 19 18 18 17 18 20 21 22 22 24 24 25 25 25 26
26 28 31 34 35 35 34 32 31 29 28 26 24 22 20 20 20 19 19 18 18 19 19 20 20 21 21 20 19 19 19 19 19 21 22 23 25 26 27 28 28 28
25 27 30 33 35 36 35 34 32 30 29 27 24 23 21 19 19 19 19 19 18 19 20 20 20 20 21 21 20 20 21 20 19 21 23 23 24 26 28 29 30 30
25 26 29 32 35 36 36 35 34 33 32 29 26 25 23 21 20 20 20 20 21 22 22 21 20 20 20 21 21 21 22 22 21 22 24 25 25 28 29 30 31 31
27 27 29 32 35 36 36 35 34 33 32 31 28 26 25 23 22 22 22 23 24 24 24 23 21 20 21 22 23 23 23 24 23 23 25 26 27 30 30 30 31 32
27 28 28 32 35 36 36 36 33 30 29 29 28 25 23 23 24 25 26 26 26 26 25 23 22 21 21 22 23 24 25 25 25 25 26 27 29 30 31 31 31 32
27 28 28 31 34 35 35 34 30 26 24 25 25 24 24 24 24 25 26 27 28 26 24 23 23 23 22 21 22 23 24 25 26 26 27 28 29 30 30 30 30 31
28 28 28 31 33 34 34 31 26 23 22 24 25 25 25 25 25 25 25 27 28 27 25 23 23 24 22 21 22 23 23 24 25 26 26 26 28 29 29 28 29 31
29 29 29 30 32 33 32 29 25 22 22 23 23 23 24 24 25 25 26 27 28 27 26 25 24 24 24 22 23 24 25 25 25 25 24 25 27 28 28 28 29 30
30 30 30 30 32 32 30 26 23 22 21 20 20 21 22 23 24 25 26 27 28 27 26 25 24 25 25 25 24 25 27 27 27 26 25 25 27 28 28 29 30 29
29 30 30 31 32 30 27 23 22 21 21 21 21 21 22 23 24 25 26 27 28 27 26 26 25 26 26 26 27 27 28 28 28 29 29 29 29 29 28 28 29 29
28 28 29 30 30 27 24 22 21 21 21 21 21 21 23 24 25 26 27 27 27 27 26 26 26 26 26 27 28 29 29 30 30 30 30 31 31 31 30 29 28 29
27 27 28 28 26 23 21 20 20 21 21 21 21 22 23 25 27 28 29 28 27 26 25 26 26 26 25 26 27 27 29 31 31 30 30 30 31 32 31 30 28 28
26 27 27 26 24 21 19 19 20 21 21 21 22 23 24 26 29 31 31 30 27 25 25 27 28 27 27 27 28 28 29 29 30 30 30 30 31 32 32 30 29 28
24 25 25 24 22 19 18 19 20 21 21 22 23 24 26 28 30 32 32 31 28 27 27 28 30 30 29 29 30 31 29 29 29 29 29 31 31 32 32 30 28 27
23 24 24 22 19 18 18 20 21 22 22 23 24 25 26 29 31 32 33 32 30 29 28 28 30 30 31 31 32 31 30 29 28 28 28 30 31 31 31 30 29 28
22 23 22 18 16 17 19 21 23 24 24 25 26 26 26 29 31 33 33 33 32 32 29 28 29 30 32 33 33 32 31 30 28 27 28 29 29 30 30 30 30 29
23 23 20 16 16 19 21 23 25 26 27 29 31 30 28 29 32 33 33 33 32 32 31 29 29 30 32 33 33 32 32 31 29 27 27 28 28 29 29 30 30 28
23 22 20 19 21 23 23 24 27 29 31 33 34 32 30 32 34 34 34 33 32 32 32 31 30 31 33 34 33 31 31 30 29 27 27 27 27 27 28 29 29 28
23 22 23 25 26 26 25 27 29 31 33 34 33 30 30 33 34 34 35 35 33 32 32 32 31 32 34 35 33 31 31 30 29 28 27 27 27 26 26 26 27 27
22 24 27 28 29 29 28 30 32 34 36 36 33 30 31 33 34 35 36 36 35 34 33 32 31 32 33 34 32 30 30 30 29 28 27 26 26 25 25 25 26 27
23 26 29 30 30 31 31 33 35 36 37 37 35 32 32 34 35 35 36 36 34 35 34 31 29 30 31 32 31 30 29 29 28 27 26 24 24 24 24 24 24 25

ECMWFNIL_700_spd_009.txt.gz
Wind_Speed
16 19 21 23 25 26 27 27 28 28 28 27 26 25 23 22 20 19 18 17 17 16 16 16 16 16 15 15 15 14 15 15 16 16 16 16 16 15 15 16 16 17
15 17 20 22 24 26 27 29 30 30 30 29 28 27 24 22 20 19 18 18 17 16 16 16 16 16 15 15 16 15 15 15 16 16 16 16 16 16 16 17 17 17
16 17 19 21 23 25 27 28 30 31 32 32 30 27 24 21 19 18 18 17 16 16 16 16 16 16 16 17 17 17 17 17 17 17 17 17 17 17 17 18 19 20
19 19 19 20 22 24 26 28 30 32 33 33 31 28 23 20 18 17 17 16 16 16 16 16 17 17 17 17 18 18 18 18 18 18 18 18 19 19 19 20 20 21
21 21 21 21 22 24 27 29 31 32 34 34 31 27 22 18 15 14 14 15 15 15 16 17 18 19 19 18 18 17 17 17 18 18 18 19 20 21 22 22 22 23
24 23 22 23 24 25 27 29 31 32 34 33 30 25 20 17 15 13 13 14 15 15 17 18 19 20 20 19 18 18 17 18 18 19 19 20 21 23 24 24 24 25
28 26 23 24 25 26 27 29 31 33 33 33 29 24 19 16 15 15 14 15 15 16 18 19 20 20 20 19 19 18 18 19 19 20 21 22 23 24 26 26 26 27
31 29 25 25 27 27 27 29 31 33 34 35 31 25 19 16 14 15 15 16 17 18 19 20 21 21 21 20 19 18 18 19 20 21 22 23 24 25 27 29 29 30
32 31 27 27 28 26 27 29 31 33 36 37 33 27 21 18 17 16 17 17 18 19 20 21 21 21 21 20 20 19 19 19 20 21 22 23 24 25 27 29 31 31
32 31 28 28 27 25 26 29 31 34 37 37 32 27 23 22 21 20 20 20 21 22 22 22 23 22 22 21 20 21 21 21 22 23 24 24 25 26 27 28 30 30
33 31 28 28 27 25 26 29 31 34 35 33 28 25 23 21 20 20 21 22 23 24 24 25 25 24 23 22 21 21 22 22 23 24 25 26 26 27 27 27 29 30
30 28 27 28 26 25 27 29 31 32 31 27 23 21 20 18 18 19 20 21 22 24 25 26 26 25 23 21 20 21 21 21 22 23 25 26 26 27 28 28 29 30
25 24 26 28 25 24 27 28 29 28 25 22 19 18 17 17 17 18 19 20 22 25 26 26 25 24 22 21 21 22 22 22 22 22 24 25 26 27 28 29 29 30
25 25 27 26 23 24 27 27 26 25 22 19 18 17 17 17 18 18 19 21 23 25 26 25 25 23 22 22 22 23 23 23 23 24 25 26 27 27 27 28 29 29
28 27 27 24 22 24 26 26 25 24 20 17 16 16 16 16 18 19 20 22 23 24 24 25 24 24 24 25 25 25 25 25 26 26 27 28 28 27 27 27 28 28
29 30 27 22 21 24 25 25 25 23 18 16 15 15 16 17 19 21 22 23 23 24 24 25 24 24 24 25 25 26 27 27 28 28 29 29 29 29 28 28 27 26
29 29 24 20 21 23 24 24 23 20 17 15 15 15 17 19 21 23 24 25 25 25 25 25 24 23 24 24 25 26 27 28 29 30 30 30 30 29 30 29 28 26
27 23 19 19 21 22 23 23 20 17 16 16 16 17 19 22 24 26 26 26 26 26 25 26 25 24 24 24 25 27 28 28 29 30 30 30 29 29 29 29 28 26
23 17 15 18 20 21 22 19 15 14 15 16 17 19 21 24 27 27 26 26 27 27 26 26 26 25 24 25 26 27 28 30 30 30 29 28 28 28 28 28 28 27
16 13 16 17 18 19 17 15 14 15 16 17 19 20 22 25 27 27 26 27 28 28 27 26 27 26 25 26 27 28 30 31 31 30 29 28 27 26 27 28 28 29
12 14 17 16 16 16 14 13 16 17 17 19 21 22 24 25 27 27 27 28 29 30 29 28 28 29 29 29 30 31 31 30 30 30 29 27 26 26 26 27 28 29
11 14 15 14 13 13 13 15 17 17 18 20 22 24 25 26 28 28 28 29 30 31 31 31 31 32 33 34 34 34 33 30 29 31 29 27 26 25 26 27 27 28
11 12 12 12 13 14 16 17 17 18 20 22 24 26 27 28 30 31 30 29 30 32 33 33 32 31 31 32 33 34 34 32 31 31 30 28 26 25 25 26 26 27
10 11 12 14 16 18 20 20 20 20 23 25 27 28 29 31 32 32 30 29 31 33 33 33 32 30 29 29 30 30 31 31 32 33 32 29 27 24 24 25 25 25
11 13 15 17 20 23 25 26 25 25 27 29 30 30 31 32 32 32 30 30 32 34 32 32 31 31 30 29 30 30 30 31 34 34 33 29 25 23 22 23 23 24
14 16 18 21 24 26 28 29 29 29 30 31 32 33 33 32 31 31 30 32 34 34 31 30 31 31 31 31 31 31 32 33 33 32 30 28 24 23 22 21 22 23

ECMWFNIL_700_spd_012.txt.gz
Wind_Speed
6 8 11 14 16 18 20 21 23 25 26 28 29 31 32 31 27 22 18 16 14 13 12 12 11 12 13 14 15 16 16 17 17 17 17 17 17 17 17 18 18 19
11 11 13 15 16 17 19 21 23 24 26 28 30 32 33 32 28 22 18 15 14 13 12 12 12 12 13 14 15 16 16 16 17 18 18 18 18 17 17 17 18 19
15 15 16 17 18 18 19 21 22 24 26 28 30 32 33 32 28 21 17 14 13 13 13 13 14 14 15 16 16 16 16 16 17 17 18 18 18 18 17 17 18 19
20 20 20 21 21 20 20 21 23 25 26 28 30 32 32 31 26 21 16 14 13 13 13 13 14 15 15 16 16 16 16 16 16 16 17 17 18 18 19 19 20 21
24 24 24 24 25 24 23 22 23 25 27 29 30 31 31 29 24 19 16 13 12 12 13 13 13 14 14 15 15 16 15 15 16 16 16 17 18 19 20 21 22 23
27 27 27 27 28 27 25 24 24 26 28 28 29 30 30 27 22 17 14 13 12 12 13 14 14 14 14 14 15 15 15 15 16 16 16 17 18 19 20 21 22 23
29 29 29 30 30 29 27 25 25 26 28 27 28 29 27 24 19 15 14 14 13 14 14 15 16 17 17 16 16 16 16 15 15 16 16 16 17 18 20 21 21 22
29 30 31 31 30 29 27 25 25 26 27 27 27 28 26 21 16 13 13 13 13 14 15 16 17 19 19 19 17 16 16 15 15 15 16 16 17 18 19 20 21 22
29 30 31 31 30 28 27 25 24 25 26 26 26 27 25 20 14 12 11 11 12 13 15 17 18 18 19 19 18 17 16 16 16 16 16 17 18 18 20 21 22 22
30 30 30 30 29 27 26 24 23 24 24 25 26 27 25 18 13 11 11 11 13 15 16 18 19 19 19 19 18 17 17 17 17 17 18 18 19 19 20 21 23 23
32 31 31 30 28 25 24 22 21 22 23 24 27 28 24 17 12 12 13 14 16 17 19 20 20 20 19 18 18 17 16 17 17 18 19 19 20 21 22 23 24 24
34 33 31 29 25 21 20 18 19 21 23 24 27 28 22 15 13 14 15 16 18 20 21 22 21 20 20 19 17 17 17 17 18 19 19 20 21 22 23 24 25 25
35 32 30 28 24 22 19 18 21 22 22 25 27 25 19 14 13 14 15 17 19 21 22 22 21 21 21 20 19 18 18 18 18 19 19 20 21 23 24 25 25 25
34 31 30 29 26 24 21 21 23 22 22 25 25 21 15 13 13 13 15 18 20 22 22 21 21 21 21 21 20 19 19 19 20 20 20 20 21 22 24 25 25 25
30 29 30 30 26 22 22 22 21 20 22 23 21 16 13 12 13 13 15 18 20 21 21 21 21 22 22 23 23 21 20 21 21 22 22 22 22 24 25 25 25 25
28 28 28 27 22 20 22 21 19 20 21 19 16 13 12 13 13 14 17 19 20 20 21 21 22 23 24 25 24 24 23 23 24 24 24 25 25 26 26 25 25 25
29 27 28 25 18 18 21 20 19 19 18 15 13 12 12 13 14 16 18 19 20 20 21 22 23 24 25 25 24 24 25 25 26 26 27 27 28 29 28 27 25 24
29 28 29 21 13 17 21 21 19 17 14 12 12 12 12 13 15 17 19 20 21 21 21 21 23 24 25 24 23 24 25 26 26 27 27 28 29 30 29 28 28 26
33 33 27 15 12 19 23 21 17 14 12 12 13 13 12 14 16 18 19 20 21 22 21 21 22 24 25 25 24 24 25 26 26 26 26 26 27 28 29 30 30 29
39 34 22 14 16 22 23 19 15 12 12 14 14 14 14 15 17 18 19 20 21 22 22 22 22 25 27 27 26 25 25 26 27 27 27 26 25 26 28 29 30 30
41 29 19 18 21 23 21 17 13 13 14 15 14 14 15 16 17 19 19 20 22 22 22 22 24 27 28 28 27 27 27 27 28 29 29 28 26 25 27 29 31 30
33 24 19 22 24 22 19 15 13 13 13 13 14 15 16 17 18 20 21 23 24 25 24 24 25 28 29 28 27 27 28 29 30 31 31 31 29 27 27 29 31 30
21 22 23 24 23 20 16 13 13 13 12 13 15 16 17 19 20 21 23 25 26 26 26 26 27 29 30 29 28 28 29 30 32 33 33 33 33 31 30 28 28 28
20 22 22 23 21 17 13 11 13 13 14 15 17 18 19 21 22 22 25 27 27 27 28 28 28 29 30 30 31 31 32 32 32 33 34 34 35 34 31 27 25 25
21 21 21 21 18 15 12 12 13 14 16 18 19 21 22 23 24 26 27 27 27 29 30 30 29 29 30 31 32 33 33 33 33 34 35 35 36 34 29 24 23 24
22 20 19 17 15 12 11 12 14 16 19 21 23 24 25 26 27 26 26 26 28 30 30 30 30 30 30 32 32 32 33 33 34 35 36 35 32 28 23 20 21 22

ECMWFNIL_700_spd_015.txt.gz
Wind_Speed
10 8 7 6 7 8 10 12 13 15 17 19 22 24 26 27 28 27 25 22 18 14 12 11 11 10 10 11 11 12 12 13 13 14 14 15 16 17 17 18 18 18
13 12 11 10 10 11 13 14 15 16 17 19 21 24 25 26 27 27 25 22 17 14 12 11 11 10 10 11 11 12 12 13 13 13 13 14 15 16 17 17 17 18
17 16 14 14 14 15 16 17 18 18 19 20 21 23 25 26 27 27 25 22 17 13 12 11 11 10 10 11 12 12 13 13 14 14 14 14 14 15 16 17 17 18
21 19 19 19 19 19 20 21 22 21 21 21 22 23 24 25 26 26 25 22 17 13 11 10 10 10 10 11 12 13 13 13 14 14 14 13 14 14 15 16 17 18
24 23 23 23 23 23 23 24 24 23 22 23 22 22 23 24 25 25 24 20 15 12 11 10 10 10 10 11 12 12 12 13 14 14 14 14 14 14 15 16 17 18
28 27 26 26 26 26 26 26 26 25 24 24 23 22 22 23 23 24 22 18 13 11 11 11 11 11 12 13 13 14 13 13 13 14 14 14 14 14 15 16 17 19
30 29 30 29 28 28 27 27 26 25 25 24 23 22 22 22 22 22 20 15 12 10 11 11 12 12 14 15 16 16 16 15 14 14 14 14 15 15 16 17 18 19
31 29 30 31 30 29 28 28 27 26 25 24 23 22 21 21 21 21 19 14 11 10 11 12 13 13 15 16 17 17 17 17 17 17 16 16 16 16 17 18 19 19
35 30 30 32 31 30 29 28 27 26 23 22 22 21 21 21 21 20 17 12 10 10 11 11 12 14 16 17 17 17 17 18 18 19 18 17 18 18 18 19 20 20
41 33 30 32 32 30 29 28 26 24 22 20 20 20 20 20 20 18 15 11 10 10 10 12 13 15 16 17 18 18 18 18 19 19 19 19 20 20 20 21 21 22
45 36 30 32 32 30 30 28 26 24 22 20 20 21 20 19 19 17 14 12 11 11 12 13 14 15 16 17 18 19 19 19 20 20 21 22 22 22 23 23 23 23
45 38 32 29 31 33 32 29 28 26 22 21 22 21 18 18 18 16 15 13 12 12 13 15 15 15 16 16 17 19 20 20 21 21 22 23 23 24 24 24 25 24
43 39 35 29 28 32 31 29 30 27 24 22 20 17 16 17 17 16 15 13 13 14 15 16 17 17 17 17 17 19 20 21 21 22 22 23 24 24 25 26 26 27
44 42 41 33 28 31 30 29 31 30 28 25 17 13 16 17 17 16 15 13 14 15 16 18 18 19 18 18 19 20 21 21 22 23 23 24 24 25 26 27 27 28
49 46 42 36 32 31 31 32 33 29 25 21 14 12 15 17 17 17 15 14 15 17 18 19 19 19 20 20 20 21 21 22 23 24 25 25 25 26 26 27 28 29
53 48 40 36 34 31 30 36 35 25 19 17 14 14 15 17 19 17 14 15 16 18 19 20 20 20 20 21 21 22 23 24 25 25 26 26 26 26 27 27 29 30
53 46 37 33 33 30 30 34 28 17 15 16 15 16 18 19 19 17 15 16 17 19 20 20 20 21 21 21 21 22 25 26 26 26 26 26 26 26 27 27 28 29
46 38 29 27 29 28 27 28 21 15 16 17 16 18 21 20 19 17 16 17 18 19 19 19 20 21 21 21 21 23 26 27 27 27 26 25 25 26 27 28 28 28
37 32 28 26 26 25 23 22 21 19 19 19 18 19 19 18 18 17 16 17 18 18 17 18 19 19 20 22 23 25 27 28 28 27 26 25 25 27 29 29 30 30
32 31 30 28 27 25 21 21 23 21 19 20 20 19 17 17 17 17 17 18 17 17 17 17 18 19 21 22 24 25 27 28 29 28 27 26 26 28 30 31 32 33
31 29 28 28 29 27 23 22 23 22 21 21 20 17 16 17 18 18 19 19 19 19 18 18 19 21 23 24 24 26 27 28 29 29 29 29 28 29 31 32 33 35
28 29 29 29 28 26 23 21 20 21 21 20 18 16 16 17 19 19 20 21 21 21 21 21 21 23 26 26 25 26 27 29 30 30 31 31 31 31 32 34 35 36
22 26 29 26 24 22 19 17 18 20 20 18 16 16 17 18 19 20 22 24 25 24 23 23 23 26 28 28 26 27 28 29 31 32 32 32 32 33 34 34 35 35
18 23 27 22 19 19 17 15 16 18 17 16 16 16 17 18 20 22 25 27 27 27 26 24 25 29 30 28 27 28 29 30 32 33 33 33 33 34 34 34 34 33
19 23 25 19 15 17 15 13 15 16 15 16 17 17 18 20 23 26 29 31 31 29 26 25 27 30 30 28 27 28 29 30 33 34 33 34 34 34 33 31 30 28
22 22 20 15 14 15 14 15 16 17 18 18 17 17 19 22 24 28 32 35 35 31 26 26 29 30 29 28 27 29 30 31 33 34 34 34 34 33 30 27 24 22

ECMWFNIL_700_spd_021.txt.gz
Wind_Speed
16 16 16 14 12 12 12 11 10 10 10 10 10 11 12 12 13 14 15 15 16 17 16 15 13 11 10 9 8 8 8 8 8 8 9 9 10 10 11 12 12 12
18 18 18 17 16 16 16 15 14 13 13 13 13 14 14 14 14 14 15 15 15 16 16 15 13 11 10 9 9 9 9 9 8 8 8 9 9 10 11 12 12 13
20 21 21 20 20 20 19 18 18 17 17 16 16 17 17 16 15 15 15 15 15 15 16 14 13 11 10 9 9 9 9 9 10 9 9 9 9 9 10 11 12 13
23 23 23 24 24 24 23 22 21 21 21 20 20 21 20 19 18 17 16 15 15 15 15 14 13 11 11 10 10 9 9 10 10 10 11 11 11 11 11 12 12 13
25 25 26 27 27 27 27 26 25 24 24 23 23 23 23 21 20 18 17 16 15 14 14 14 13 12 11 11 10 10 10 10 10 10 11 12 12 12 13 13 14 14
26 26 28 29 30 30 30 29 28 27 27 27 26 26 24 23 21 18 17 16 15 14 14 13 13 12 12 12 11 10 10 11 11 11 11 12 12 13 14 14 15 15
26 27 29 31 32 32 32 32 31 31 30 30 30 30 28 26 24 22 18 17 16 15 13 13 13 13 13 13 12 12 11 11 11 12 12 13 13 14 15 16 16 16
26 28 30 33 34 35 34 35 34 34 33 33 34 33 31 31 32 31 26 22 19 17 14 12 13 14 15 14 13 13 13 12 12 13 13 14 14 15 15 16 17 17
28 30 32 34 36 37 36 37 37 37 36 36 36 36 35 34 33 33 33 27 22 20 18 15 15 14 16 16 15 14 13 13 13 14 14 15 15 16 16 17 18 18
28 31 34 36 38 39 38 38 40 41 40 40 40 39 40 41 37 34 34 32 28 25 22 21 19 15 17 18 16 15 14 13 15 15 16 16 17 17 17 18 19 19
28 30 33 36 40 42 41 40 42 43 44 44 45 44 43 46 46 40 34 32 34 32 27 25 22 17 18 20 17 15 14 14 16 16 16 17 17 18 18 18 19 20
29 30 32 34 38 42 44 44 45 46 48 48 48 47 46 48 50 46 39 34 35 35 31 28 24 19 19 20 18 15 15 15 16 17 17 18 18 19 19 19 20 21
27 28 29 31 36 42 46 48 48 49 51 51 50 50 50 49 50 47 44 39 35 33 31 29 26 22 20 20 18 16 17 17 17 18 18 19 19 20 21 21 22 23
23 25 27 30 36 41 45 48 51 52 54 55 53 53 52 52 52 51 47 42 36 31 28 29 29 25 21 20 18 18 18 18 17 18 18 19 20 21 22 23 25 26
23 25 28 32 37 41 43 47 50 51 55 58 56 54 51 49 51 52 50 44 36 28 26 29 29 25 21 20 19 19 19 18 17 17 17 18 19 21 23 25 26 28
26 27 29 33 36 39 42 46 48 46 50 57 59 54 50 46 44 45 47 44 35 27 26 29 27 23 21 21 20 20 19 18 17 17 17 18 20 22 24 26 27 29
29 30 32 34 36 37 40 44 47 45 44 48 51 49 46 43 40 40 43 43 34 27 27 28 26 22 22 21 21 20 19 19 18 18 18 19 20 22 24 26 28 30
32 33 35 36 36 38 38 39 44 46 44 41 37 35 35 36 35 36 40 39 33 28 28 28 26 23 22 22 21 20 20 20 20 20 20 21 22 24 26 27 29 31
30 32 34 35 35 37 36 35 39 42 43 43 34 26 28 32 31 31 33 31 29 29 29 28 26 23 23 22 21 20 21 22 22 22 23 23 25 27 28 29 31 32
25 27 29 31 33 35 34 34 34 33 36 41 33 21 25 30 28 27 28 27 28 29 29 27 25 23 23 22 21 21 22 24 24 24 25 26 28 30 30 31 32 33
24 26 27 29 31 34 34 33 30 27 26 27 22 17 23 28 27 25 25 26 29 30 28 26 24 24 24 22 21 22 24 25 25 25 26 28 30 32 31 31 32 34
25 26 27 29 30 32 33 28 21 18 17 16 15 19 24 27 27 26 25 27 29 29 27 25 24 24 24 24 23 24 25 25 25 27 28 29 31 32 32 32 33 35
25 26 27 28 28 29 28 23 17 15 16 17 18 22 25 27 27 26 25 26 28 28 26 25 25 25 25 25 25 26 26 26 27 28 29 30 32 33 34 34 33 35
24 24 25 26 27 25 24 22 19 17 18 19 21 24 26 27 27 25 24 24 25 26 26 26 26 26 26 27 27 28 28 29 29 30 30 31 33 36 37 36 34 35
24 23 23 24 25 23 21 20 18 16 17 19 23 26 27 28 27 25 24 23 24 26 27 27 27 26 27 28 28 29 30 31 32 33 33 33 36 38 39 37 34 36
24 22 23 24 24 23 20 18 18 17 16 18 22 26 28 29 27 25 24 24 26 27 27 27 28 28 28 28 29 30 30 33 36 36 34 36 38 38 36 35 34 36

ECMWFNIL_700_spd_024.txt.gz
Wind_Speed
20 19 18 18 20 20 20 19 18 17 16 14 13 12 12 11 11 11 11 11 11 11 12 12 12 12 11 9 8 8 8 8 7 8 9 9 8 9 9 9 9 9
20 20 20 21 22 21 20 20 19 18 17 15 15 14 14 14 14 14 14 13 12 13 13 13 13 12 11 10 9 9 9 8 8 9 9 9 9 9 9 9 8 8
22 22 22 22 23 22 22 22 21 20 19 17 17 17 17 17 18 17 16 14 14 14 14 14 15 14 12 11 10 10 10 10 10 10 10 9 9 9 9 9 7 7
24 24 24 24 25 24 24 24 23 22 21 20 20 20 21 21 21 19 18 17 18 18 15 14 15 16 14 12 11 11 11 12 12 11 10 10 10 10 10 9 8 7
25 25 26 26 26 26 27 27 25 24 24 24 24 24 24 24 23 22 21 21 20 17 13 14 17 19 17 14 11 11 13 15 14 13 12 12 12 11 11 11 10 9
26 26 27 28 28 28 28 28 28 28 29 28 27 28 27 27 27 26 24 23 21 19 19 22 24 23 21 18 14 13 17 18 17 14 13 13 13 12 11 12 11 11
25 25 27 28 29 29 29 31 32 32 31 31 31 31 31 32 31 29 28 28 28 29 29 27 28 27 24 21 19 19 21 21 19 16 15 14 14 13 12 13 13 12
24 25 27 28 30 30 31 34 35 34 34 34 35 34 34 35 35 33 33 34 36 37 32 28 28 29 27 24 23 23 22 21 20 18 17 16 15 14 14 14 14 13
24 25 26 27 30 31 32 36 38 37 37 37 37 37 37 37 37 36 37 39 40 39 34 29 29 29 28 28 26 25 25 24 21 20 19 18 17 16 16 15 15 14
25 25 25 27 29 30 32 38 40 38 38 39 39 40 40 39 38 39 40 40 40 38 34 32 32 33 32 29 28 27 27 27 23 21 20 19 18 18 17 17 16 16
25 25 25 26 27 28 31 36 40 39 39 41 42 42 42 41 41 42 42 41 40 39 38 36 36 37 36 32 28 27 27 27 24 21 22 21 19 19 18 18 18 17
24 24 25 25 26 28 30 34 41 41 40 41 43 43 44 44 43 43 43 43 43 44 44 40 38 40 40 36 29 27 27 27 25 23 22 21 20 20 19 18 18 18
25 25 25 25 27 28 28 32 39 43 42 42 44 44 45 45 45 45 45 46 49 50 48 45 42 42 43 40 31 27 27 27 25 24 22 21 20 20 19 18 18 18
25 25 25 26 27 27 27 30 36 42 43 43 44 44 45 46 45 45 47 49 53 56 53 50 48 44 42 40 31 26 27 26 25 24 23 21 20 19 18 18 18 17
27 27 26 26 26 27 27 29 34 39 41 41 42 44 44 46 45 44 46 47 52 57 57 55 54 49 45 39 28 25 27 26 26 25 23 21 20 19 19 19 18 18
27 27 26 27 28 28 29 30 33 37 38 36 37 40 40 41 41 41 42 42 47 56 58 55 54 53 49 40 27 25 27 27 26 25 24 22 20 20 20 20 21 21
27 27 28 29 29 30 31 32 33 36 36 33 33 35 36 36 36 37 38 40 46 54 57 54 52 53 50 39 28 27 27 27 27 26 24 22 21 22 22 22 23 24
27 29 30 31 32 33 34 36 36 37 38 36 35 35 33 32 33 34 36 40 45 49 50 49 50 52 46 35 29 29 28 28 28 27 24 23 23 23 24 24 25 26
28 29 30 31 32 32 33 34 35 36 37 36 36 35 33 31 31 31 33 36 39 39 39 41 45 46 38 29 28 29 29 30 30 27 25 25 24 23 24 25 27 28
25 26 27 27 26 27 28 30 32 34 35 34 34 34 33 31 28 27 30 33 34 34 35 38 40 37 30 26 28 30 30 31 30 28 26 25 24 24 25 26 28 30
20 20 21 22 23 25 26 28 30 32 32 32 31 32 32 30 28 26 27 29 31 31 31 34 34 30 25 26 29 31 31 31 30 29 27 26 25 25 26 28 31 32
16 17 19 21 22 24 25 27 30 30 31 31 30 31 30 29 29 29 27 28 28 26 25 28 29 26 24 27 30 31 31 31 30 29 28 27 27 28 28 31 33 33
16 17 19 21 23 24 25 27 29 30 31 30 29 30 30 28 28 29 29 29 27 25 25 27 26 25 26 28 30 31 31 31 30 30 29 30 30 30 30 32 35 34
17 19 21 23 24 25 26 28 30 30 30 30 28 29 29 29 28 29 31 30 27 26 28 27 26 27 29 29 30 31 31 31 32 31 31 32 33 32 31 33 36 36
19 20 22 24 25 26 26 28 30 30 30 29 28 28 29 28 27 28 30 30 27 27 28 28 27 29 31 31 30 30 31 32 33 32 33 33 34 34 34 36 38 38
21 22 23 25 26 26 27 28 29 29 28 27 27 28 27 26 26 27 28 28 26 26 28 28 28 30 31 30 30 30 32 34 33 32 33 34 34 35 38 40 41 40

ECMWFNIL_700_spd_027.txt.gz
Wind_Speed
23 22 21 21 22 23 23 22 21 20 19 19 18 17 17 16 16 15 14 13 12 12 13 13 12 12 12 12 13 13 13 12 12 12 13 14 15 14 13 12 11 11
23 23 22 22 23 24 24 23 22 21 20 20 20 19 19 18 18 17 16 15 15 15 15 15 14 13 12 15 18 19 17 14 12 11 12 15 18 19 17 14 13 12
24 24 23 23 24 25 24 24 23 22 21 21 21 22 21 21 20 19 19 18 19 18 18 17 15 14 15 20 24 26 25 20 14 12 12 15 20 23 21 17 15 13
25 25 24 24 25 25 25 25 24 22 22 22 23 24 24 23 21 21 21 21 21 20 20 20 18 17 18 22 26 27 26 24 20 16 15 16 18 21 22 20 17 15
26 26 25 25 26 26 26 25 24 23 24 25 26 27 27 25 24 24 25 25 23 23 24 25 25 24 22 21 24 24 23 23 23 21 19 18 19 20 21 21 19 16
26 26 27 26 27 27 26 25 25 25 26 27 28 29 29 28 27 28 28 28 26 27 30 30 30 30 28 24 24 24 23 23 24 25 23 21 21 21 21 21 20 17
25 26 27 27 27 27 26 25 25 27 28 30 30 30 31 31 31 32 32 31 30 32 35 35 34 32 31 28 26 25 24 24 25 26 25 23 21 21 20 20 21 19
25 25 26 26 27 27 27 26 27 28 30 31 32 32 33 33 33 35 35 34 35 36 37 37 37 34 32 30 28 26 25 26 27 27 27 24 23 23 22 20 21 20
24 24 25 25 26 26 26 26 27 29 30 31 33 34 35 35 35 36 36 37 38 39 39 39 38 36 33 31 28 27 27 29 29 28 28 26 25 24 23 21 20 20
24 25 24 24 24 25 25 25 26 28 29 32 35 36 36 37 37 37 37 38 41 41 41 40 39 37 36 33 30 29 30 31 30 29 28 26 26 24 23 21 21 19
25 25 23 22 22 23 24 24 25 27 30 32 35 37 37 37 39 39 38 39 41 42 42 41 40 39 37 36 34 33 32 33 33 32 30 27 26 24 23 22 20 19
25 24 23 22 22 23 24 24 24 27 31 32 32 34 37 37 38 39 40 40 41 42 43 43 42 41 40 39 37 36 35 35 35 35 33 30 26 24 24 22 19 18
26 24 23 23 23 23 24 24 24 27 31 32 31 33 36 36 36 39 41 41 42 43 44 44 45 44 43 41 39 37 36 37 38 36 35 31 26 24 25 23 19 19
24 23 22 23 23 24 25 26 26 28 31 33 32 33 35 35 35 38 40 41 42 44 45 46 47 47 46 45 42 38 37 38 40 39 35 30 25 25 25 22 19 19
23 23 23 24 26 27 28 28 29 29 31 33 33 32 33 33 35 39 41 41 41 44 46 47 48 49 49 48 44 41 39 39 42 41 36 29 25 25 25 22 19 20
24 24 26 27 28 29 30 30 30 29 30 32 32 31 32 35 37 40 42 42 42 43 44 45 48 50 51 49 45 43 41 41 43 42 36 29 27 26 25 23 21 20
26 27 28 29 29 30 30 29 29 29 29 31 32 32 34 37 39 42 43 42 43 43 41 43 46 50 51 49 47 45 44 43 43 40 34 30 27 25 25 24 21 21
28 29 29 29 29 29 28 28 28 29 29 30 32 33 35 37 39 41 42 42 42 41 39 41 45 49 50 50 48 45 44 43 40 37 35 30 26 24 25 24 21 21
29 29 29 28 27 27 28 28 29 28 28 28 30 31 33 35 37 38 39 40 41 39 37 37 41 46 47 48 46 42 40 40 37 35 32 27 24 23 24 24 22 22
28 28 27 27 27 28 29 28 27 25 24 25 27 29 31 34 35 36 37 37 38 37 34 33 38 42 42 42 41 38 37 37 35 32 27 24 23 23 24 25 25 23
27 27 27 27 27 27 25 24 22 21 21 23 26 28 31 33 34 36 35 35 36 35 32 31 34 35 34 32 32 33 33 33 32 29 25 24 24 24 24 26 27 24
27 27 27 26 24 23 21 20 20 20 21 23 25 27 30 31 32 34 34 34 35 35 33 31 32 31 27 25 25 26 27 30 30 27 26 25 25 24 25 28 28 25
26 26 25 23 22 21 20 20 21 22 22 24 26 27 29 30 31 32 33 34 34 34 34 33 31 29 27 25 24 23 26 30 29 27 26 26 24 25 27 29 28 26
25 24 23 23 22 21 21 22 23 23 24 26 27 28 29 30 31 31 31 32 31 32 34 33 31 30 29 27 24 23 26 29 28 26 26 25 23 26 29 29 27 26
24 23 23 23 23 23 23 23 23 24 25 27 28 28 28 30 31 31 29 29 29 31 32 31 30 30 30 28 26 25 26 28 27 25 24 23 24 28 29 27 26 26
22 22 23 24 24 24 23 23 24 26 27 28 28 28 28 29 30 29 27 27 28 28 28 28 28 29 29 29 28 26 26 27 26 24 23 23 25 28 28 26 26 27

ECMWFNIL_700_spd_030.txt.gz
Wind_Speed
21 21 21 21 21 20 19 18 16 15 14 14 13 13 14 15 15 13 12 14 14 13 12 11 10 10 12 14 16 17 18 18 19 21 21 20 20 20 20 21 20 18
21 22 22 22 21 21 20 18 17 15 15 14 14 15 16 16 16 16 15 15 16 16 14 13 13 13 13 14 16 18 19 19 19 20 20 19 19 20 19 20 19 17
22 22 22 22 21 21 21 19 18 17 16 15 15 16 17 16 17 18 18 17 18 18 16 16 17 16 16 16 17 18 19 20 21 21 20 18 20 21 21 21 21 20
23 22 22 22 22 22 21 20 19 18 17 16 17 18 18 18 19 20 21 20 20 19 19 20 20 20 20 21 21 20 20 21 22 22 21 20 21 23 23 23 22 21
23 23 23 22 22 23 23 22 20 18 18 18 19 20 19 20 21 22 22 22 22 22 22 22 23 23 24 25 25 23 22 22 22 22 21 21 23 24 24 23 22 21
23 24 23 23 23 23 23 22 21 20 19 19 20 22 21 22 23 23 22 23 24 24 25 26 26 26 27 27 27 26 25 24 23 23 23 22 23 26 26 25 22 21
24 24 24 23 23 23 23 22 22 22 21 21 23 23 23 24 24 24 24 25 26 27 28 29 29 29 30 30 30 28 28 26 24 24 24 24 25 27 28 26 23 22
23 24 24 24 23 23 22 22 22 22 22 23 25 25 24 25 26 26 26 27 28 29 30 31 32 32 33 33 33 32 31 29 27 26 26 27 28 28 28 28 25 22
23 24 24 24 23 22 22 22 22 22 23 24 26 26 26 26 26 27 28 28 29 31 32 33 34 35 36 36 35 35 34 32 30 29 29 29 30 30 29 29 26 22
23 23 24 24 23 22 21 21 22 23 23 24 25 26 26 26 26 27 28 29 30 31 32 34 35 36 38 38 38 37 36 34 32 32 30 30 31 31 29 29 27 22
24 23 23 23 22 22 20 21 22 23 23 23 24 25 25 26 27 27 28 30 31 31 32 34 35 37 38 40 40 40 38 35 34 34 32 31 32 32 31 30 28 23
24 24 23 23 22 21 20 20 22 23 23 23 23 23 24 25 27 27 28 30 32 32 32 34 36 37 38 41 42 42 40 38 37 35 34 33 33 33 33 31 30 25
23 23 22 22 22 21 20 20 21 23 24 24 23 23 24 25 26 27 29 30 32 33 33 35 36 38 39 40 42 43 42 39 39 38 36 35 34 34 35 34 31 26
21 21 22 22 22 21 21 21 22 23 24 25 24 25 26 25 26 28 29 31 32 33 33 35 37 38 39 40 41 43 43 40 40 40 38 37 36 34 35 35 32 26
21 21 22 22 22 22 22 22 23 24 25 25 26 26 26 26 27 28 29 31 33 34 35 38 39 39 39 39 39 41 41 40 41 41 39 38 38 36 35 36 33 26
21 22 22 22 23 22 22 22 23 24 25 25 26 27 26 26 28 29 30 32 34 35 37 40 40 39 40 39 38 38 39 39 40 40 39 40 39 37 36 36 33 27
22 22 23 23 23 23 22 22 23 24 25 25 26 26 25 26 28 30 32 34 35 35 37 40 40 38 37 36 36 36 37 38 39 39 39 41 40 37 36 35 32 30
23 23 24 24 24 23 23 23 23 24 24 24 24 24 25 26 28 31 33 34 35 35 37 38 37 33 31 31 32 35 36 36 37 37 39 41 39 37 35 33 32 31
24 24 25 25 25 24 23 23 23 23 23 23 23 24 26 27 29 29 30 33 35 37 38 37 34 30 28 28 30 34 34 34 35 37 38 38 36 35 34 31 29 27
26 26 26 26 24 23 22 22 22 22 22 23 24 26 27 26 26 26 27 30 34 36 37 36 32 29 27 26 28 32 34 33 34 36 35 34 33 34 32 27 26 24
27 27 26 25 23 21 22 22 22 23 23 25 25 25 24 24 23 24 26 29 32 34 35 34 31 28 26 24 26 30 32 31 31 31 31 31 30 30 29 25 23 24
28 28 26 23 22 22 23 23 23 24 25 25 24 23 23 23 23 24 27 29 31 32 33 32 30 27 24 22 23 27 29 29 29 29 29 30 29 28 27 24 23 24
30 29 26 24 23 24 24 24 24 25 24 23 23 22 23 24 23 25 27 28 30 31 31 30 28 26 24 22 22 26 29 30 30 30 30 30 29 28 26 23 22 23
31 29 26 25 25 24 24 25 25 25 24 23 22 22 22 23 24 25 26 26 28 28 28 28 27 25 24 23 23 27 28 29 30 30 30 29 27 25 24 22 22 21
31 29 27 26 25 25 26 26 25 24 23 22 22 22 23 24 25 25 25 25 26 26 26 27 26 24 23 22 24 26 26 27 30 31 30 28 24 21 20 20 20 19
31 30 29 28 26 26 26 25 24 23 22 22 21 23 24 24 24 25 25 25 25 25 25 24 23 22 22 22 23 24 24 25 27 29 29 25 21 19 18 18 18 18

ECMWFNIL_700_spd_033.txt.gz
Wind_Speed
18 18 18 18 18 18 17 16 14 12 10 10 10 10 9 9 8 8 8 7 5 7 9 10 11 10 9 8 9 11 13 15 16 16 17 19 20 21 22 23 23 20
19 19 19 19 19 18 17 16 15 13 12 11 10 10 10 9 8 7 8 9 8 9 11 13 13 13 12 12 12 13 15 15 16 17 18 19 20 21 22 23 24 23
19 20 20 20 19 18 17 16 15 15 13 12 12 11 10 9 8 7 9 10 10 11 13 15 16 16 16 15 15 16 17 18 18 19 19 19 20 21 22 23 24 23
20 21 21 20 20 19 18 17 16 15 14 13 12 11 11 11 9 8 9 11 12 12 14 16 18 18 18 18 19 19 19 20 20 20 20 20 21 22 22 24 24 24
21 21 21 21 21 20 19 18 16 15 14 13 12 12 12 13 12 10 10 12 12 13 15 17 19 20 20 20 21 22 22 22 22 22 22 22 22 23 23 23 24 24
22 22 22 22 22 21 19 18 17 16 15 14 14 13 13 14 13 13 13 14 14 14 16 18 20 21 22 22 23 24 25 24 24 24 24 24 24 24 24 24 23 24
22 22 23 23 22 21 20 19 18 17 16 16 16 14 13 14 14 14 15 15 16 16 17 19 21 22 23 24 24 25 27 27 27 27 26 26 26 25 24 24 24 24
22 23 23 23 23 22 21 19 18 17 17 17 17 15 14 14 14 14 15 15 16 17 18 20 21 23 24 26 26 27 28 29 29 29 29 28 27 26 26 25 25 25
23 23 23 23 24 22 20 20 19 18 18 17 16 15 15 14 14 14 14 15 16 17 18 19 21 23 25 26 28 29 29 30 31 31 31 30 28 28 28 27 26 25
23 23 23 23 23 22 20 20 20 19 18 16 15 15 15 14 14 14 15 16 17 17 18 20 22 24 25 27 28 30 30 31 32 32 32 31 29 29 29 28 27 26
23 23 23 23 22 22 21 20 20 19 18 16 15 14 14 14 14 14 15 16 16 18 19 21 22 24 26 27 28 30 31 32 32 33 32 32 30 29 29 29 29 27
23 23 22 22 22 21 20 20 19 18 17 15 15 15 15 14 15 14 15 16 17 18 20 21 23 24 25 27 28 30 31 32 31 31 31 32 31 30 30 30 30 28
23 22 21 21 22 21 20 20 19 18 17 16 15 16 16 15 15 15 15 17 18 20 21 22 24 25 27 28 28 28 29 31 30 29 30 31 30 30 31 31 30 28
22 21 21 21 22 22 22 20 19 18 17 17 17 17 16 16 16 16 17 18 20 21 21 23 25 27 28 30 29 28 29 30 30 29 29 29 29 30 32 32 30 28
22 21 21 22 22 23 23 21 20 19 19 18 17 17 16 17 17 17 17 18 19 21 22 23 26 28 30 31 31 30 29 29 30 30 29 28 29 30 30 31 30 29
23 23 22 23 23 23 22 22 21 20 20 19 17 16 17 18 18 18 17 18 19 21 22 24 25 27 29 31 30 28 25 25 27 28 27 27 28 29 28 29 30 30
25 24 24 24 24 23 22 22 21 21 21 20 18 17 16 18 18 18 17 18 19 21 22 23 23 25 29 31 29 25 20 20 23 25 25 27 28 27 27 28 30 32
27 25 25 25 25 24 23 22 22 22 22 21 19 17 17 18 18 18 19 19 20 21 20 20 22 25 29 30 28 25 21 20 23 25 25 26 27 26 25 27 30 32
28 27 26 26 26 25 24 23 23 23 22 20 19 19 18 19 19 20 21 21 21 20 19 20 23 26 28 29 28 27 24 22 24 25 24 26 25 24 25 27 29 31
29 29 28 28 27 26 25 24 24 22 22 21 20 20 20 20 20 21 22 22 21 20 20 21 24 25 26 28 28 26 24 22 24 25 25 25 24 23 25 27 29 31
30 31 31 31 30 28 27 25 24 23 22 22 21 21 21 20 21 22 22 21 21 21 22 23 24 25 27 27 27 24 21 21 23 25 24 24 24 23 24 26 29 32
31 33 33 32 31 30 28 26 25 24 23 23 22 22 21 21 22 22 20 20 21 23 25 24 24 25 27 27 25 23 21 21 23 22 22 23 24 23 23 25 29 30
32 33 33 33 33 32 30 28 27 26 24 23 23 23 22 21 21 20 19 20 23 24 25 24 24 25 27 27 24 22 22 22 21 21 23 25 25 24 24 26 27 24
33 33 34 33 33 33 31 30 29 26 25 24 23 22 21 21 20 19 20 21 23 25 25 25 26 27 27 27 24 22 22 22 21 23 26 26 25 25 25 25 23 21
33 33 34 34 33 33 32 31 28 26 25 25 23 22 21 21 20 20 20 21 23 24 24 26 27 28 28 27 24 23 23 23 23 25 25 24 23 24 23 22 21 20
34 34 34 34 33 33 33 31 28 27 27 25 24 23 22 22 21 20 20 20 21 23 25 27 28 29 28 27 24 23 23 24 24 24 22 20 19 20 21 21 20 19

ECMWFNIL_700_spd_036.txt.gz
Wind_Speed
24 22 21 19 18 18 18 17 15 14 14 15 15 14 13 14 14 15 14 12 11 12 10 8 8 8 8 8 9 9 10 11 12 13 13 14 15 16 18 19 21 21
24 22 21 20 19 18 18 17 16 15 15 16 16 15 15 15 16 16 15 13 11 12 11 9 9 10 10 11 12 12 12 12 13 14 15 15 16 17 17 19 20 21
24 23 22 21 19 19 18 18 18 17 17 17 17 17 16 16 16 16 15 13 11 12 13 11 10 10 11 13 14 14 14 14 14 15 16 17 18 18 18 18 19 20
25 23 22 21 20 19 19 20 19 19 18 18 18 18 17 17 16 16 15 13 11 12 13 13 13 12 12 14 15 16 16 17 17 17 18 19 19 19 19 19 19 19
24 23 22 22 22 21 21 21 21 20 19 19 19 18 17 16 15 14 14 12 11 12 13 14 14 14 14 14 15 17 18 18 19 19 19 20 21 21 21 21 20 19
25 24 24 23 23 22 22 22 21 21 20 19 19 18 17 15 14 13 13 12 12 12 13 14 15 15 16 16 16 18 19 19 20 21 21 21 22 23 23 22 21 21
25 25 25 24 24 23 22 22 22 22 21 20 20 18 17 15 14 12 12 12 12 13 13 13 14 16 17 17 17 18 19 21 22 23 23 23 24 24 24 23 22 21
26 26 26 25 25 24 23 23 23 22 21 21 20 18 17 16 14 13 13 13 12 12 13 13 14 16 17 18 18 18 20 22 23 24 24 25 26 26 25 24 23 21
26 26 26 26 25 25 24 23 23 22 21 21 19 18 18 17 15 14 14 13 13 12 13 13 14 15 17 18 19 20 21 23 25 26 25 26 27 26 25 25 24 22
26 27 27 27 26 25 25 24 23 23 22 20 19 19 19 17 16 16 15 14 13 13 13 13 14 15 17 18 20 22 23 24 26 27 27 27 26 26 25 25 25 23
27 28 27 27 26 25 25 25 24 24 22 20 19 19 18 17 17 17 15 14 14 13 13 13 14 15 16 18 20 22 23 24 26 27 27 27 27 26 26 25 25 23
27 28 28 27 26 26 25 25 25 24 23 21 20 19 18 18 18 17 16 15 14 14 14 13 14 15 16 17 19 21 23 24 25 26 26 27 27 27 26 25 25 24
27 28 27 26 26 26 26 26 25 24 23 22 21 20 20 19 18 17 16 15 15 15 15 14 15 15 16 17 18 20 22 24 25 25 26 27 27 26 26 25 24 24
27 27 27 26 25 26 26 26 26 25 24 23 22 22 21 20 18 17 17 17 16 16 15 15 15 15 15 16 18 20 23 25 26 25 25 26 25 25 25 24 23 23
27 27 27 27 27 27 27 27 26 26 25 24 24 23 21 20 19 19 19 18 17 16 15 15 15 14 15 16 18 21 24 25 25 24 23 23 24 24 25 24 22 23
28 28 27 28 28 29 29 28 27 26 26 26 25 24 22 21 20 20 19 17 16 15 15 15 14 14 15 17 19 21 24 24 23 22 20 20 22 24 24 24 22 22
30 29 29 29 29 30 30 29 28 27 27 27 26 25 24 23 22 21 19 17 16 16 16 15 14 15 16 17 19 21 23 23 23 22 21 21 22 24 25 25 23 22
32 32 31 30 30 31 31 30 29 29 29 29 28 27 25 24 23 21 19 18 17 17 16 14 14 15 16 17 20 22 23 24 24 24 23 23 22 23 25 26 24 22
33 34 33 32 31 31 31 31 31 31 31 30 29 27 26 26 24 22 20 19 18 17 15 14 14 16 17 18 21 22 23 25 26 25 24 24 22 21 23 25 23 22
35 35 35 34 33 32 32 32 33 33 32 30 29 28 27 26 24 22 21 19 18 17 15 14 15 16 17 19 21 23 24 26 28 26 24 23 22 21 21 22 20 20
37 36 36 36 35 34 33 33 34 34 33 31 30 29 28 26 24 22 21 20 19 17 16 15 15 16 17 19 22 24 26 29 30 27 24 23 23 22 21 20 19 19
38 37 37 38 38 37 35 35 35 34 33 32 31 30 28 26 25 23 22 21 19 17 16 16 15 15 17 20 23 26 28 30 31 29 25 24 24 23 22 21 21 22
39 38 38 39 39 38 37 36 35 34 33 32 31 30 29 26 25 23 22 21 19 18 18 17 16 16 17 20 23 27 30 31 32 30 27 25 25 24 24 24 24 24
39 39 39 40 40 39 38 37 36 35 33 32 32 30 28 26 25 24 23 22 20 19 19 17 15 15 17 20 24 27 31 33 33 31 28 26 25 25 24 24 25 25
40 39 40 41 41 40 39 38 37 36 34 32 31 30 29 27 26 26 25 23 21 20 18 16 15 15 17 21 24 28 32 35 34 32 29 27 25 25 25 24 25 25
42 40 41 42 42 42 41 40 39 37 35 33 32 32 31 28 27 27 26 24 22 20 18 16 16 17 20 23 27 30 32 34 34 32 29 26 25 25 24 23 23 23

ECMWFNIL_700_spd_039.txt.gz
Wind_Speed
30 30 28 26 24 23 22 22 20 18 17 18 17 16 16 16 17 18 19 19 19 18 17 15 14 14 14 12 10 9 8 8 8 8 9 10 12 12 13 15 16 18
30 31 30 29 26 25 24 23 21 19 18 18 18 18 19 19 20 20 20 21 21 20 18 17 16 15 14 13 11 11 10 10 10 10 10 11 12 13 13 14 15 17
31 31 31 30 28 25 24 23 22 20 19 20 20 20 21 22 22 22 21 22 21 21 20 18 16 15 14 13 12 12 12 12 12 11 11 12 13 14 15 15 16 16
30 31 31 30 28 26 25 24 23 21 21 22 22 22 23 24 24 23 23 22 22 21 20 18 16 15 15 14 13 13 13 13 13 13 13 13 14 15 16 17 17 17
30 30 30 30 28 27 26 26 24 22 23 24 24 24 25 25 25 24 23 22 21 21 20 18 16 14 14 15 15 14 15 15 15 15 14 14 15 15 16 17 18 18
29 29 30 30 29 28 28 26 24 23 25 26 26 26 26 26 26 25 24 22 21 20 20 19 17 16 15 15 15 15 16 16 17 17 16 16 17 17 17 18 18 19
28 28 29 29 29 29 28 27 25 25 27 28 28 28 27 27 26 25 24 23 21 20 19 18 18 17 16 16 15 15 16 17 19 19 18 18 18 19 19 19 19 20
27 28 28 29 29 29 29 28 27 27 28 29 30 29 28 27 26 25 24 24 22 20 19 19 18 18 18 17 16 16 16 17 19 20 20 20 20 20 20 21 21 21
27 28 28 28 29 29 29 28 27 28 29 30 30 29 29 28 26 25 25 24 23 21 20 19 19 18 18 18 17 17 17 18 19 20 21 21 21 21 21 22 22 22
27 27 28 28 29 29 29 28 28 29 30 31 30 30 30 28 27 26 25 24 23 22 21 20 19 18 18 18 17 17 18 19 21 22 22 22 22 22 22 23 23 23
27 27 27 28 28 28 28 28 29 29 30 30 30 31 30 29 28 27 26 25 23 21 20 19 18 18 18 18 17 18 20 21 22 23 23 23 23 23 24 24 24 24
28 28 27 27 27 27 28 28 29 29 30 30 31 31 30 29 28 27 25 24 22 21 20 19 18 19 18 18 19 20 21 22 22 23 23 23 23 24 24 25 25 25
30 29 28 28 28 27 28 29 29 29 30 30 31 31 30 29 27 27 25 23 22 22 21 20 20 20 20 20 20 21 21 21 22 22 22 23 24 24 24 25 26 26
31 30 30 29 28 28 28 29 29 29 29 30 31 31 30 29 27 26 25 24 24 23 22 22 22 22 21 21 20 20 20 20 21 22 23 24 25 25 26 26 26 26
33 32 31 30 29 29 28 29 29 30 30 30 31 31 30 29 28 27 26 26 26 25 24 24 24 23 21 20 19 19 20 20 22 23 24 25 26 26 26 26 25 25
35 34 32 31 30 29 29 30 30 30 30 31 31 31 30 29 29 28 28 28 28 27 26 25 24 22 20 19 19 19 20 21 22 23 23 25 26 25 24 24 23 24
36 36 34 32 31 30 30 31 30 30 31 31 32 32 31 30 30 30 30 30 29 28 27 26 24 21 20 20 20 19 20 22 22 22 23 25 26 24 22 22 21 22
36 37 35 33 32 32 31 31 31 31 31 31 32 32 32 32 32 32 31 30 30 29 28 26 23 22 21 20 20 20 21 22 22 22 23 25 26 25 23 22 20 21
36 37 36 35 33 33 33 32 32 33 32 33 33 33 34 34 33 33 32 31 31 30 28 25 23 22 22 20 20 21 22 22 22 22 24 26 26 25 25 23 21 21
37 38 37 36 35 34 34 34 33 34 34 34 34 35 35 35 34 34 33 32 32 30 27 25 24 23 22 21 21 21 22 22 22 23 24 26 26 25 25 24 22 23
39 39 38 38 37 36 36 35 35 36 36 37 37 37 36 36 35 35 34 33 31 29 27 26 24 23 22 21 22 22 23 23 23 23 24 25 26 26 25 23 22 24
40 40 40 40 38 37 37 37 37 37 37 38 38 38 37 37 37 36 35 34 32 30 29 27 25 24 23 22 23 23 24 25 25 23 22 23 25 27 26 23 21 24
40 42 42 42 41 38 38 38 39 38 38 39 39 39 39 38 38 37 36 35 33 31 30 28 26 25 24 24 24 24 26 27 26 23 22 23 25 28 27 23 22 25
39 42 43 44 43 41 39 39 40 40 40 39 40 40 40 39 38 38 37 35 34 33 31 28 27 26 26 26 26 26 27 27 23 21 23 24 25 29 29 25 23 25
37 40 42 44 44 43 42 41 41 42 41 40 40 40 41 40 39 38 38 36 35 33 30 29 28 28 28 29 28 27 27 25 21 22 26 27 26 29 30 27 25 25
34 36 39 42 44 44 43 43 43 44 43 42 41 41 42 42 41 40 39 37 35 33 31 30 31 31 30 30 29 27 26 24 24 26 28 28 28 29 29 27 26 25

ECMWFNIL_700_spd_042.txt.gz
Wind_Speed
29 28 27 26 25 24 23 23 23 22 20 19 19 18 17 16 16 16 17 18 19 20 20 20 19 17 15 14 13 13 12 11 9 7 7 8 8 8 8 9 11 13
31 30 29 28 27 26 24 24 24 23 21 19 19 20 20 19 19 19 19 20 21 22 22 22 20 18 16 15 14 14 13 13 11 10 9 9 9 9 9 9 10 10
33 32 31 31 29 27 25 24 24 24 22 20 21 21 22 22 22 21 22 23 23 24 24 23 21 19 18 17 16 15 14 14 13 12 11 11 11 11 11 11 11 11
35 35 34 33 31 29 27 26 25 25 23 22 21 22 24 24 24 24 24 25 25 25 25 24 22 20 19 18 17 16 15 15 15 14 12 12 12 12 13 12 12 13
35 35 35 34 32 30 29 27 25 25 24 22 22 23 25 26 26 25 25 26 27 27 26 25 23 21 19 18 17 16 16 16 16 15 14 13 14 14 15 15 14 14
33 34 34 34 33 31 30 28 26 25 24 23 23 24 26 27 27 26 27 28 29 28 27 26 24 22 20 19 18 17 17 17 17 17 16 15 16 16 16 17 16 16
30 32 32 32 32 31 30 29 27 25 25 24 25 26 27 28 28 27 27 28 29 29 28 26 25 23 22 20 19 18 18 18 19 19 17 17 17 18 17 18 18 18
28 29 30 31 31 31 29 29 27 26 25 25 26 27 28 28 29 28 28 29 30 30 28 27 26 25 23 22 20 19 19 19 20 20 19 19 19 19 19 19 19 20
26 28 29 30 31 30 29 28 28 26 26 26 27 28 29 29 29 30 30 30 30 30 29 28 27 26 25 24 22 20 20 20 20 21 21 21 21 20 20 21 21 21
26 27 28 30 30 29 28 28 28 27 26 27 27 29 30 30 30 31 31 31 31 30 29 28 27 26 25 25 23 22 22 22 22 22 22 22 22 22 23 23 23 22
26 27 28 29 28 28 28 27 27 26 26 27 28 30 32 32 32 32 33 32 32 30 29 28 26 26 25 25 24 23 23 23 23 23 23 23 23 24 25 25 24 24
27 28 28 28 27 27 27 26 26 27 27 28 29 31 33 34 33 34 34 33 32 31 30 28 27 26 26 25 25 24 24 24 24 24 24 24 24 25 25 26 26 25
29 29 28 28 28 27 27 26 26 27 28 29 30 32 35 35 35 35 34 33 32 32 31 29 28 28 27 27 26 26 25 25 24 24 24 24 25 25 26 27 27 26
30 30 30 29 29 28 27 27 27 27 28 29 30 33 35 36 36 35 35 34 33 33 32 31 30 30 30 29 28 27 26 25 24 24 24 25 25 26 27 28 28 27
31 32 32 31 31 30 29 28 27 27 28 29 31 33 35 36 37 37 36 35 34 34 33 33 33 33 32 31 30 29 27 26 25 25 25 26 26 27 28 28 28 27
31 33 34 34 33 31 30 28 28 28 28 29 30 32 34 36 37 37 37 36 35 35 35 35 35 35 34 32 31 30 29 27 26 26 26 26 27 28 28 28 27 25
30 33 36 36 36 34 32 30 29 28 28 29 30 32 34 36 37 38 38 37 36 36 36 37 36 36 34 33 32 31 30 28 27 26 27 27 28 28 27 26 25 24
29 31 35 37 38 37 35 32 30 30 29 30 31 32 33 35 37 38 38 38 38 38 38 38 37 36 35 34 33 32 30 29 27 27 28 29 29 28 26 25 25 26
28 30 33 37 39 39 38 35 32 31 31 31 31 32 33 35 36 38 39 39 39 39 39 39 38 37 37 35 34 32 30 29 29 28 29 31 30 26 23 23 25 27
29 30 33 35 38 39 40 38 35 33 33 32 32 33 34 35 36 38 39 40 40 40 40 39 39 38 38 37 34 31 30 30 30 31 32 31 28 24 22 23 25 26
31 32 33 35 37 39 42 42 39 36 35 34 34 35 36 36 37 38 40 41 41 41 41 40 39 39 39 37 35 32 31 31 33 35 34 30 26 24 23 25 26 26
32 33 34 35 37 39 41 43 42 40 39 37 36 36 37 37 38 39 40 41 42 42 42 41 40 41 40 38 35 32 32 34 36 37 35 29 26 25 24 25 26 26
31 32 33 34 36 38 41 43 44 43 42 41 39 39 39 39 40 40 41 42 43 43 43 42 41 42 40 37 35 34 34 36 38 38 35 31 28 27 25 24 25 25
25 26 28 29 31 33 37 41 43 44 45 44 42 42 42 41 40 41 41 42 44 44 44 43 43 42 40 38 36 36 36 37 39 39 37 33 30 28 26 24 24 23
22 22 23 26 26 28 31 36 38 41 44 46 45 44 44 43 42 42 43 44 45 45 45 44 44 42 41 39 38 38 37 38 40 41 38 34 31 29 26 24 23 24
24 24 24 25 26 26 29 32 34 37 40 45 47 48 47 46 45 45 45 45 46 46 46 46 45 43 42 40 39 39 39 40 42 42 39 35 32 30 28 25 24 24

ECMWFNIL_700_spd_045.txt.gz
Wind_Speed
26 25 25 24 23 23 22 21 20 19 18 17 16 15 17 18 19 19 20 20 22 23 24 23 22 21 20 18 17 16 15 14 13 11 9 7 6 6 6 6 7 9
27 27 26 25 24 24 23 22 21 21 20 19 17 16 17 20 21 22 22 22 24 25 26 25 24 23 22 20 18 17 16 16 16 14 13 11 10 9 8 7 7 8
29 28 27 26 25 24 24 24 23 22 21 20 19 17 18 21 23 24 24 24 26 27 27 27 27 25 23 22 20 18 18 17 17 17 16 15 13 12 11 10 10 10
30 29 28 28 27 26 26 26 25 24 23 22 20 18 19 21 24 26 26 26 27 28 29 29 28 27 25 23 21 19 18 18 18 18 17 16 16 15 14 13 12 11
32 31 31 30 30 29 29 28 26 25 24 23 21 20 20 21 25 27 28 27 29 30 30 30 30 28 26 25 22 21 19 19 19 18 17 17 17 17 16 15 14 14
33 33 33 33 32 32 31 31 29 27 26 24 23 23 22 22 25 28 28 28 29 30 31 31 31 29 28 26 24 22 20 20 20 19 18 18 18 18 18 18 17 16
32 34 35 35 35 34 34 33 31 29 27 26 25 25 24 24 26 28 29 29 30 31 32 32 31 30 29 27 25 23 22 21 21 20 19 19 19 19 19 19 19 18
28 30 32 33 34 34 34 34 32 30 28 26 26 26 26 25 26 29 30 30 30 31 32 33 32 31 30 28 26 24 23 22 22 21 20 20 20 20 20 20 20 20
24 25 27 29 30 31 32 31 31 30 28 27 27 27 27 27 28 30 32 31 31 32 33 33 33 33 31 29 27 25 24 23 22 22 21 21 21 21 21 21 21 21
25 25 25 26 27 27 28 28 28 28 27 27 27 28 28 28 29 31 33 33 32 32 34 34 34 34 32 30 28 27 25 23 23 22 22 22 22 22 22 22 22 22
26 25 26 26 26 26 26 26 27 27 26 27 27 29 29 29 31 33 33 33 33 33 34 34 34 34 33 32 30 28 26 25 24 24 23 23 23 23 23 23 24 24
26 26 26 25 25 25 25 25 26 26 26 26 27 29 30 31 32 34 34 33 33 33 34 35 35 34 34 33 32 30 29 27 26 25 25 24 24 24 25 25 25 25
27 26 26 26 25 24 24 25 25 25 25 26 27 30 32 33 34 35 35 34 34 34 35 36 36 36 36 35 34 33 31 30 29 27 26 25 25 25 26 26 26 26
28 27 27 26 26 25 25 25 25 25 25 26 27 30 32 34 35 36 35 35 35 35 36 37 38 38 37 36 35 34 34 33 31 29 27 26 26 27 27 27 27 27
28 28 27 27 27 27 27 27 26 26 25 26 27 29 32 34 35 36 37 36 37 37 37 38 39 39 38 37 37 36 35 34 32 30 29 28 28 29 29 28 28 29
29 29 29 29 29 29 29 29 28 27 26 27 28 29 31 32 34 36 37 38 38 38 39 39 39 39 38 38 37 37 36 35 33 32 31 30 30 31 31 30 29 30
30 29 30 30 30 30 31 31 30 29 28 28 28 29 30 31 33 36 38 39 40 40 40 40 39 38 38 38 38 38 37 36 35 33 32 32 33 33 32 31 31 31
30 30 31 31 31 32 32 32 32 32 31 30 29 29 30 31 33 35 38 39 40 40 41 42 40 39 39 40 39 39 38 37 37 35 35 35 35 35 34 33 32 33
30 30 30 31 31 31 32 33 34 35 34 33 31 30 31 32 33 34 37 39 40 41 42 43 42 40 40 41 41 40 39 39 39 37 37 38 38 37 35 34 34 34
29 29 29 30 30 31 32 33 34 36 36 35 34 33 33 34 34 34 36 38 40 42 43 44 43 42 42 43 42 41 41 41 40 39 39 40 40 39 37 36 35 34
29 28 28 29 30 31 32 33 34 36 37 37 37 36 36 35 35 35 36 38 40 41 43 44 44 44 44 44 44 43 42 42 42 41 42 42 41 41 40 37 36 34
27 27 27 28 29 31 33 34 35 35 36 38 38 38 37 37 37 37 37 38 39 41 42 43 45 46 46 45 45 44 43 44 43 42 43 43 43 42 42 39 36 35
25 25 27 28 30 33 34 34 35 35 36 38 38 39 39 38 39 39 38 39 40 41 43 44 45 47 47 47 47 46 45 45 44 43 43 44 43 44 43 41 37 35
26 27 26 27 30 34 35 34 35 35 35 36 37 39 39 39 39 40 40 40 41 41 42 43 45 47 48 48 48 47 46 46 44 43 43 43 44 45 45 42 38 36
27 28 27 26 27 29 30 31 32 33 34 35 36 38 38 39 40 40 40 41 42 42 43 44 46 47 48 49 49 48 47 46 45 44 44 43 44 47 47 43 39 37
24 25 27 27 25 24 25 25 26 28 30 32 34 36 38 39 39 37 36 38 40 42 44 45 47 48 48 49 49 49 48 48 47 46 45 45 46 48 48 44 40 38

ECMWFNIL_700_spd_048.txt.gz
Wind_Speed
27 25 24 23 22 21 20 19 18 18 18 18 16 15 13 13 15 18 20 21 23 24 25 27 27 26 25 23 21 20 18 16 14 11 10 9 8 8 8 8 8 9
28 26 25 24 23 22 21 21 20 20 20 19 19 17 16 15 17 19 21 23 24 25 26 28 29 28 27 26 24 22 21 19 17 15 13 12 11 10 10 9 9 10
30 28 27 25 24 23 22 23 23 22 22 21 21 20 18 17 18 20 23 24 26 27 28 29 30 30 29 28 26 24 23 21 20 18 16 15 14 13 12 11 11 11
31 30 28 26 25 24 24 25 25 24 24 23 21 21 20 20 19 20 23 25 27 28 29 30 31 31 30 29 28 26 24 23 22 20 18 17 16 15 14 14 13 13
31 31 29 28 27 27 26 26 26 25 25 25 23 23 22 21 20 21 23 25 27 28 29 30 32 32 31 30 29 28 26 25 24 22 20 18 17 17 17 16 15 15
31 31 31 30 29 29 28 28 27 26 27 27 26 25 24 22 22 22 23 25 27 29 29 30 32 33 32 31 30 29 27 26 25 23 22 20 19 18 18 18 17 17
31 31 31 31 30 30 30 29 29 29 29 29 28 27 26 24 23 23 24 25 27 29 30 29 31 33 33 31 31 30 29 28 27 25 23 22 21 20 19 19 18 18
31 31 32 32 32 32 32 31 31 31 31 31 30 29 27 26 25 25 25 26 27 29 30 30 31 33 34 32 31 31 30 29 28 26 25 24 22 21 20 20 20 20
29 30 31 32 33 33 33 33 32 32 32 32 32 31 30 29 27 27 27 27 29 30 31 31 31 33 35 34 32 31 31 31 29 28 27 26 24 23 22 22 21 21
26 27 28 30 31 32 33 33 33 34 34 33 33 32 31 30 29 29 29 29 30 31 32 32 31 33 35 35 33 32 32 32 31 29 29 28 27 25 24 23 22 22
26 26 26 27 27 28 29 30 32 33 32 32 32 32 31 30 30 30 31 31 32 32 32 32 32 33 35 35 34 33 33 33 32 31 30 29 29 28 26 25 24 23
28 27 27 26 25 26 26 27 28 28 28 27 28 28 29 30 30 31 32 32 32 33 33 33 33 33 35 36 35 34 34 34 34 33 32 31 30 30 29 27 25 24
30 29 28 27 26 26 26 26 26 26 25 24 24 26 28 29 30 31 32 33 33 33 34 34 34 34 35 37 36 36 36 36 36 35 34 33 32 31 30 29 27 26
31 29 28 28 28 27 27 27 26 26 25 24 24 25 26 28 29 30 31 33 34 34 35 36 35 35 36 37 37 37 37 37 37 36 35 34 34 33 32 30 29 27
32 30 29 30 30 29 29 29 28 27 26 26 25 24 25 26 27 29 31 33 34 35 36 36 37 36 36 37 38 38 38 38 38 37 36 36 35 34 34 32 31 29
33 32 31 32 32 31 30 30 29 29 28 27 26 25 25 25 26 28 30 32 34 36 36 37 38 38 36 37 37 38 39 39 39 39 38 37 37 36 36 35 34 32
34 33 34 34 33 32 31 31 30 30 29 28 27 26 26 25 26 28 29 31 33 35 36 38 38 38 37 36 37 38 40 40 41 40 40 39 39 38 38 37 36 35
36 36 36 35 35 34 32 32 31 31 31 30 29 28 27 26 27 27 28 30 32 33 35 37 37 37 37 37 37 39 40 41 42 42 42 41 41 41 40 39 38 37
37 37 37 37 37 36 34 33 33 32 32 32 31 30 29 29 29 28 28 29 31 32 34 36 37 38 37 37 38 39 41 43 44 44 44 43 43 43 42 41 40 39
37 38 38 38 38 37 36 35 34 34 33 33 33 33 33 32 32 31 30 31 32 33 34 35 36 37 37 38 39 40 41 43 45 45 45 45 45 45 44 43 42 42
36 37 38 38 38 38 37 37 36 35 35 35 36 36 36 36 34 34 33 33 34 35 36 36 36 36 36 38 39 40 42 44 46 47 46 46 46 46 46 45 44 45
35 36 37 37 37 37 37 36 35 35 35 36 36 37 38 38 37 36 36 37 36 36 37 38 37 36 36 37 38 40 43 45 47 48 47 47 47 47 47 47 46 47
34 34 34 35 35 35 34 34 34 34 35 35 36 38 40 40 40 39 39 39 39 38 39 39 38 37 37 37 37 39 42 46 48 49 49 48 48 49 49 49 48 49
33 33 34 35 35 35 35 34 34 34 35 36 38 39 40 41 41 41 41 40 40 39 40 40 39 39 39 39 38 40 42 45 48 50 51 50 49 51 51 51 50 51
34 35 35 36 36 35 33 32 31 31 32 35 37 40 41 42 43 43 43 41 40 40 41 41 41 41 41 41 40 41 43 46 48 50 52 51 52 53 54 54 53 53
34 35 35 35 35 34 32 32 32 31 30 30 32 36 40 41 42 44 44 43 42 42 42 42 42 43 43 43 42 43 44 47 49 51 52 52 53 54 56 57 56 56

ECMWFNIL_700_spd_051.txt.gz
Wind_Speed
30 29 28 26 24 22 21 20 19 18 16 14 12 12 10 10 12 15 18 19 20 21 22 22 22 23 24 23 21 20 18 17 16 13 11 9 7 6 5 5 5 7
31 31 29 27 25 23 22 21 20 19 17 16 14 14 13 12 13 15 17 19 21 22 23 23 23 24 25 25 24 23 22 20 19 17 14 12 11 9 8 7 7 8
31 32 30 28 26 24 23 22 21 20 19 18 17 16 16 15 15 15 16 18 20 23 24 24 24 25 26 27 26 26 24 23 22 21 19 16 15 13 11 10 9 9
30 32 31 29 28 26 25 25 23 21 20 20 19 18 18 18 17 17 16 17 18 22 24 25 25 25 26 28 28 28 27 25 24 24 22 19 17 16 14 13 12 11
29 30 30 30 30 28 27 26 24 22 21 21 21 21 20 20 19 19 18 18 18 19 22 25 26 27 27 28 29 30 29 28 27 26 25 21 19 18 17 16 14 13
29 29 30 30 30 30 29 27 25 24 23 22 23 23 22 22 21 21 20 20 19 19 21 23 25 26 28 29 30 31 31 30 29 28 27 24 22 21 20 18 16 15
29 29 29 29 30 31 30 28 27 26 25 24 25 25 24 24 23 23 22 22 21 21 22 23 24 25 27 28 30 31 32 31 31 29 28 26 24 23 22 20 18 17
28 28 29 29 30 31 30 29 29 28 27 26 26 26 26 26 25 24 25 24 24 23 24 24 24 24 26 28 29 31 32 33 32 30 29 27 27 25 24 22 20 19
28 29 29 30 30 31 30 30 30 29 29 28 28 28 28 29 28 27 27 27 26 26 26 26 26 25 25 27 29 30 32 33 33 31 30 28 28 27 26 24 23 22
28 29 30 30 31 30 30 30 30 30 30 30 30 30 30 31 31 30 30 29 29 29 28 28 27 27 26 26 28 29 31 33 33 32 31 29 28 29 28 27 25 24
28 29 29 30 30 30 30 30 30 31 31 31 31 31 32 32 32 32 32 31 31 31 31 30 29 28 27 26 27 29 30 32 34 33 32 30 29 30 30 29 27 26
28 28 29 29 28 29 29 30 31 32 32 31 31 32 33 33 33 32 32 33 32 32 32 32 30 30 29 28 27 29 29 31 33 34 33 32 31 31 31 31 30 28
28 28 28 27 26 27 28 29 30 31 31 30 29 30 32 33 33 31 31 32 32 32 32 32 32 31 30 30 28 29 30 30 32 34 34 34 33 32 32 32 32 31
29 28 27 26 25 25 26 27 27 27 27 28 26 26 27 29 30 29 28 29 30 30 31 31 32 32 32 31 30 29 30 30 32 34 35 35 34 33 34 34 33 33
30 29 28 26 26 26 26 26 25 25 25 25 25 23 23 25 26 27 27 26 27 29 30 31 33 33 32 32 31 30 31 31 32 33 35 36 36 35 35 35 35 35
31 30 29 28 27 27 26 26 26 26 26 26 25 24 23 23 24 26 27 26 25 27 29 31 32 32 32 32 31 31 31 32 33 33 34 36 37 37 37 37 37 37
33 31 30 29 29 29 28 27 27 28 28 28 28 27 25 24 24 26 26 26 25 25 27 29 31 31 31 31 31 32 32 32 33 34 35 36 37 38 38 38 38 38
34 33 31 31 31 31 31 30 29 30 30 30 30 30 29 28 27 26 26 27 27 26 25 27 28 29 29 29 30 31 32 33 34 35 36 36 37 38 39 39 40 40
36 34 33 32 32 33 33 32 32 31 32 32 32 32 31 30 29 28 28 28 28 28 27 26 26 27 27 27 28 30 31 33 35 36 37 37 37 37 39 40 40 41
37 35 34 33 34 35 35 34 34 33 33 34 34 33 32 31 30 30 29 29 29 29 29 28 27 27 27 27 27 28 31 33 35 37 38 39 39 38 39 40 41 42
36 36 36 36 36 37 36 36 35 35 35 35 35 34 33 32 32 31 30 30 30 31 32 32 31 30 30 29 28 28 31 33 35 38 39 39 40 40 41 42 42 43
34 36 38 38 38 38 37 37 36 36 36 36 36 35 34 34 34 33 33 33 33 34 35 35 35 34 33 32 31 30 31 34 36 38 39 40 40 41 42 42 43 44
32 34 36 37 38 37 36 36 36 37 37 37 37 36 36 36 36 36 36 36 36 37 37 37 37 37 36 35 34 33 33 34 36 38 40 40 41 41 42 43 43 44
31 33 34 36 36 35 35 36 37 38 38 38 38 38 38 38 38 38 39 39 40 40 40 39 39 40 39 38 37 36 35 36 37 39 40 40 40 41 42 43 44 44
33 34 34 34 34 34 35 37 38 39 39 39 39 39 39 40 40 41 41 41 42 43 43 43 42 42 41 40 39 38 38 38 39 40 41 41 41 41 43 45 46 47
34 34 34 34 35 36 37 38 39 40 40 40 40 40 41 42 42 43 43 43 44 45 46 46 45 45 44 43 41 41 41 41 41 41 42 43 43 44 45 46 48 49

ECMWFNIL_700_spd_054.txt.gz
Wind_Speed
26 27 26 24 23 22 21 20 17 16 14 12 10 9 8 8 9 11 12 12 13 15 15 16 16 16 16 17 18 17 16 14 12 11 9 8 7 7 6 6 5 6
27 27 27 26 25 23 22 21 19 17 15 13 12 11 10 10 10 10 10 10 12 14 15 16 17 17 17 17 19 19 18 17 15 14 12 11 10 10 10 9 8 8
27 27 27 27 26 24 23 22 21 19 17 16 14 13 12 12 11 11 11 10 10 12 15 16 17 18 18 18 19 20 20 19 18 17 16 14 14 13 13 13 12 11
27 27 26 26 26 26 25 24 23 21 19 18 16 15 14 14 13 13 12 11 10 11 13 15 16 17 19 20 20 20 21 21 20 20 19 17 16 15 15 15 14 14
27 27 26 26 27 27 27 26 24 22 20 19 18 17 17 16 15 14 14 13 13 12 13 14 16 16 18 20 20 21 22 22 22 22 21 19 18 17 17 16 16 15
27 27 27 27 27 28 28 27 25 23 22 20 20 19 18 18 17 16 15 15 15 15 14 15 16 16 16 18 19 20 21 22 23 23 23 21 20 19 18 18 17 17
28 28 28 27 28 29 29 28 26 25 24 22 22 21 20 20 19 18 17 16 17 17 17 17 17 17 16 17 18 19 20 22 23 24 24 23 21 20 19 19 19 19
28 28 28 27 28 29 29 28 27 26 25 24 23 22 21 21 20 20 20 19 18 19 19 20 19 18 18 17 17 17 19 20 22 24 24 24 23 21 20 20 20 20
27 28 28 28 28 29 28 28 27 27 26 26 25 23 22 22 21 21 22 22 21 21 21 22 22 20 20 19 18 17 18 20 21 23 24 25 25 23 22 22 22 21
27 28 29 29 29 29 28 27 27 27 27 27 26 25 24 24 23 23 23 24 24 24 23 23 24 23 22 22 20 19 18 19 21 23 24 24 25 25 24 23 23 23
27 28 29 30 30 29 28 26 26 27 27 27 27 27 26 25 25 25 25 25 26 26 26 25 25 25 25 24 23 22 21 20 21 23 24 25 25 26 26 26 25 25
27 28 29 29 29 28 27 26 26 27 27 27 27 27 28 28 27 27 27 27 27 27 27 28 27 27 27 26 26 25 24 22 22 23 24 25 26 26 27 27 27 27
27 27 28 27 27 27 27 26 27 27 27 27 26 27 28 29 29 28 28 29 28 28 28 29 29 29 28 28 27 27 27 25 24 23 24 26 27 27 27 28 29 29
26 27 27 26 26 26 27 27 27 27 27 26 26 26 27 28 29 29 30 30 30 29 29 29 30 30 29 29 28 27 28 27 26 24 24 25 27 28 28 28 30 30
26 26 26 27 27 27 27 27 27 27 27 26 26 26 26 26 27 29 30 31 29 28 27 27 28 28 28 28 28 27 27 27 27 25 24 24 26 27 28 28 30 31
27 26 27 28 28 28 28 28 27 27 27 27 27 26 25 24 23 24 27 28 26 24 22 23 24 25 25 25 25 25 25 26 26 26 25 25 25 27 28 28 30 32
31 29 28 28 29 28 28 27 27 27 26 26 26 25 24 23 21 21 22 24 24 21 19 20 21 22 22 22 22 23 23 25 26 26 26 26 26 27 28 28 29 31
34 32 30 30 30 29 28 27 27 27 26 26 25 24 24 23 22 20 21 22 23 22 19 19 19 20 20 20 20 21 22 24 25 26 26 26 26 26 27 28 29 30
35 34 33 31 31 31 30 29 28 28 27 27 26 25 25 24 23 21 21 21 23 23 21 19 17 18 19 19 20 20 21 23 25 26 26 25 25 26 27 28 29 31
34 36 35 33 33 33 33 32 31 29 29 28 28 27 26 24 24 23 22 22 23 24 24 22 20 19 19 20 20 21 22 23 24 26 27 27 26 27 27 28 29 31
30 34 36 35 35 35 35 34 33 31 30 29 29 28 27 26 26 25 25 25 24 25 26 26 25 23 22 22 22 22 23 24 25 27 29 29 29 29 28 29 29 31
26 30 33 36 37 37 36 35 33 32 31 30 30 29 29 29 28 28 28 28 27 27 28 28 28 28 28 27 26 25 25 26 27 29 31 32 32 32 32 31 31 33
23 25 28 34 38 38 36 35 34 33 32 31 32 32 32 32 31 31 31 31 30 30 30 29 30 30 31 31 31 31 30 30 30 31 32 34 34 35 36 35 34 34
22 23 25 30 36 37 37 36 35 34 33 33 33 33 34 35 34 34 34 34 33 32 32 32 32 33 34 34 34 34 34 34 34 35 35 36 36 37 38 38 38 37
23 23 24 28 32 35 37 37 36 36 35 35 35 36 36 37 37 36 36 35 35 35 35 35 35 36 37 37 37 38 38 38 38 39 39 38 38 39 39 39 39 40
25 24 25 27 30 33 35 37 38 38 37 37 37 37 38 39 39 38 38 37 37 38 38 37 38 39 39 39 39 39 40 42 43 43 42 42 42 42 42 41 41 41

ECMWFNIL_700_spd_057.txt.gz
Wind_Speed
24 24 24 23 21 20 19 19 17 15 13 11 10 10 10 10 11 12 11 11 11 11 11 12 13 13 12 10 10 11 11 11 11 10 8 6 4 3 2 2 3 4
25 25 24 24 23 22 20 19 18 16 14 12 11 11 12 12 11 10 9 10 10 10 11 12 12 13 13 11 10 10 11 11 12 11 9 8 7 5 5 4 4 5
26 25 25 25 24 22 21 20 19 18 16 15 14 13 12 12 11 9 8 8 8 9 9 10 11 12 12 12 10 9 10 11 12 12 12 11 10 9 8 7 7 7
26 26 25 24 24 23 22 22 21 20 18 16 15 14 14 13 12 11 10 8 8 7 7 8 9 10 11 11 11 10 9 10 12 13 14 14 13 12 11 10 10 9
26 26 25 25 24 24 24 24 23 21 19 18 16 15 15 14 13 12 11 10 8 7 7 6 6 7 8 9 10 10 10 10 11 13 14 15 15 14 14 13 12 11
26 26 26 26 25 25 25 25 23 22 21 19 18 17 16 15 14 13 12 11 10 9 8 7 6 5 5 6 7 8 9 10 11 12 13 14 15 16 16 16 15 14
27 27 27 27 26 26 26 25 24 24 22 21 20 18 17 15 14 13 13 12 12 10 9 9 8 7 7 7 7 7 8 9 10 11 11 12 14 16 17 17 16 16
27 27 27 27 27 27 26 25 25 25 24 23 22 20 19 17 15 14 13 13 13 12 11 10 10 9 9 9 8 8 9 9 10 11 11 11 13 14 16 17 18 18
27 28 28 29 29 28 27 26 26 25 25 25 23 21 20 19 17 16 15 14 14 14 14 13 12 11 10 10 10 10 11 11 11 12 12 12 12 13 15 17 19 19
27 29 30 30 30 29 28 27 26 26 26 26 24 23 22 20 19 18 18 17 16 15 14 14 13 13 12 12 11 12 12 13 14 14 13 13 14 13 14 16 18 19
27 29 30 31 31 30 28 27 27 26 26 26 25 24 23 21 20 20 20 19 18 16 15 15 14 14 14 14 14 14 14 15 16 16 16 15 15 15 15 16 17 19
26 28 29 30 30 30 29 28 27 27 26 26 26 25 24 23 22 21 21 20 19 18 17 17 17 16 16 16 16 16 17 17 17 18 18 18 16 16 16 17 17 18
25 26 27 28 29 29 29 28 27 27 26 26 26 25 25 24 23 22 21 21 20 20 19 19 19 19 19 19 19 19 19 19 19 19 19 19 19 17 17 18 18 18
23 24 25 26 27 28 28 28 28 27 27 26 25 25 24 23 23 22 22 21 21 21 21 20 21 21 21 22 22 22 21 21 20 20 19 19 19 19 18 18 19 19
23 23 24 25 26 27 28 28 27 27 26 26 25 24 23 23 23 22 22 22 22 21 21 22 22 22 22 23 22 22 21 20 19 19 18 19 19 19 19 19 20 20
24 24 24 24 25 26 26 27 26 26 26 25 24 24 23 23 23 23 22 22 22 22 22 21 21 21 20 20 20 19 18 17 17 16 16 17 17 18 18 19 20 20
26 25 25 24 25 25 26 26 26 26 25 25 24 24 23 23 23 23 22 21 21 21 20 19 18 17 16 16 16 16 15 15 15 14 14 14 15 16 17 17 19 20
29 28 27 26 25 26 26 26 26 27 26 26 25 24 23 23 22 22 21 20 21 20 18 17 15 14 13 14 14 14 14 14 14 14 14 14 14 15 16 17 18 19
30 30 30 29 27 26 26 26 27 28 28 27 26 25 24 23 21 20 19 19 20 19 17 16 14 13 14 14 14 15 15 15 16 16 16 16 16 17 17 18 19 20
29 31 32 31 30 28 27 27 28 28 28 28 27 26 25 23 21 20 19 19 19 19 18 17 15 15 15 15 15 16 16 17 18 19 19 20 19 19 20 20 21 22
24 27 30 32 32 32 30 30 30 29 29 29 28 27 26 24 23 21 20 19 19 19 19 18 17 16 16 16 16 17 18 19 20 21 22 23 23 23 23 23 23 24
18 21 24 28 32 34 33 32 31 31 30 30 29 28 27 26 25 24 22 21 20 20 20 19 18 17 17 18 18 19 20 22 23 23 24 25 26 26 27 27 27 28
16 17 19 22 27 31 33 34 34 32 32 31 30 30 29 28 27 25 24 23 22 22 21 20 20 20 20 21 22 24 25 27 27 27 27 27 27 28 30 31 31 31
15 17 19 19 21 25 29 33 35 34 33 33 32 32 31 30 29 28 27 26 25 24 23 22 23 23 23 24 26 28 30 31 31 31 31 30 30 31 32 33 33 34
16 18 20 19 19 20 24 28 33 35 35 35 34 33 33 32 32 32 31 29 28 27 26 26 26 26 27 28 29 31 33 34 35 35 33 33 34 35 35 35 35 36
19 19 21 21 20 20 21 23 27 32 35 37 36 35 34 34 34 34 33 32 31 30 30 30 30 30 30 32 34 36 37 37 38 38 37 37 38 38 38 38 39 40

ECMWFNIL_700_spd_060.txt.gz
Wind_Speed
24 24 24 22 21 20 19 18 17 16 15 13 13 13 11 13 15 15 14 14 15 16 16 17 16 16 14 14 15 15 15 15 14 12 11 10 8 6 5 4 3 3
25 25 24 24 23 21 19 19 18 17 15 13 13 14 13 14 16 16 16 15 15 15 16 16 16 16 15 14 14 15 16 15 15 13 12 11 9 8 6 5 3 2
26 25 25 24 23 21 20 19 19 18 16 15 15 15 15 15 14 15 16 15 15 15 15 15 16 16 15 14 14 15 16 16 16 15 14 12 11 10 8 7 6 4
27 26 25 23 22 21 21 20 20 20 18 17 17 17 16 15 13 13 14 14 13 13 14 14 14 14 14 14 13 14 15 15 16 16 16 15 13 12 11 9 8 6
27 26 25 24 23 22 23 22 21 21 19 17 17 17 17 15 14 13 13 13 12 11 11 11 12 12 12 12 13 13 13 13 14 15 16 16 15 14 13 12 10 9
28 27 26 25 25 24 24 23 22 22 21 19 18 18 17 16 15 14 13 12 11 10 10 10 10 10 9 9 10 11 12 12 13 14 15 16 16 16 16 14 13 11
29 28 27 26 26 26 25 24 23 23 22 21 20 19 18 17 16 15 14 13 12 11 10 9 9 9 8 7 7 8 9 9 11 12 13 14 16 17 17 16 15 14
29 29 28 27 27 27 26 26 25 24 23 23 23 21 19 18 17 16 16 15 14 13 12 10 9 8 8 7 6 6 6 6 6 7 8 11 13 15 17 17 17 17
29 30 30 29 29 28 27 27 26 25 24 25 24 23 21 19 18 18 17 17 16 15 14 13 11 10 9 7 6 5 5 4 5 5 5 7 9 11 14 17 18 18
29 30 31 31 30 30 29 28 27 26 26 25 24 24 24 21 20 19 18 18 17 16 16 15 13 12 10 9 7 7 6 6 7 7 7 7 7 9 11 14 17 18
29 30 31 31 31 30 29 28 28 27 27 26 25 25 25 23 22 21 20 19 18 16 16 15 14 14 13 12 10 10 10 10 10 10 9 9 9 10 11 13 14 16
27 29 29 30 30 30 29 29 29 28 27 27 26 25 25 25 24 23 22 20 18 16 16 15 15 15 15 14 13 13 12 12 12 12 12 12 12 13 13 14 14 14
25 27 27 28 29 29 29 29 29 29 28 27 26 25 25 25 25 24 23 22 20 18 17 16 16 16 16 15 14 14 13 13 13 14 15 15 15 16 16 17 17 16
22 23 24 25 27 27 28 28 28 28 28 27 26 26 25 25 25 24 24 22 21 20 19 18 18 18 17 16 15 14 14 14 15 16 17 18 18 18 18 19 19 18
21 21 22 23 24 26 27 27 27 28 28 27 27 27 26 25 24 24 24 23 22 22 21 20 20 19 18 16 15 15 16 16 16 17 18 19 19 19 19 19 19 19
21 21 21 22 22 23 24 25 26 26 27 27 27 27 26 25 25 24 24 24 23 22 21 21 20 19 17 16 16 16 17 18 17 17 17 18 18 17 17 18 18 18
23 22 22 22 22 22 23 23 24 25 26 26 27 26 26 26 25 25 25 24 23 22 21 21 20 18 16 16 16 16 16 16 16 15 15 16 16 16 15 15 16 17
25 24 24 24 23 23 22 22 23 24 25 26 26 26 26 26 25 25 24 23 23 22 21 21 19 17 17 16 15 14 14 14 14 13 12 13 13 13 13 13 14 15
28 27 26 26 25 24 23 23 23 24 24 25 25 25 25 26 25 24 23 23 23 22 22 21 19 17 16 16 14 13 13 13 13 13 13 13 13 14 14 15 15 16
31 30 29 28 27 26 25 24 24 24 24 24 24 24 25 25 24 24 23 23 24 23 22 21 19 17 16 16 15 13 13 14 15 16 16 16 17 17 17 17 17 18
32 32 32 31 30 29 28 27 26 25 25 25 25 25 25 24 23 23 24 24 24 24 23 21 19 18 17 16 15 15 15 16 18 20 20 20 20 20 20 19 19 20
32 33 33 33 33 32 31 30 28 27 26 26 26 26 26 25 24 24 24 24 24 25 24 22 20 19 19 18 17 17 18 20 21 22 23 23 22 22 22 22 22 23
27 29 31 33 33 34 34 33 32 30 28 28 27 27 27 26 26 25 24 24 25 25 25 24 22 21 21 20 20 20 21 22 23 24 24 24 24 23 24 25 25 26
20 23 26 29 32 34 35 35 35 34 32 31 30 29 28 28 27 27 26 26 26 26 26 26 24 23 23 23 23 23 24 24 25 26 26 25 25 25 26 27 27 28
15 16 19 23 27 30 32 34 35 36 36 35 33 32 30 30 29 29 29 28 28 27 27 27 27 26 26 26 26 25 26 26 27 27 27 27 27 28 28 29 30 30
15 15 14 16 20 24 27 29 31 34 36 37 37 35 34 33 32 32 31 31 30 29 29 29 29 29 29 28 28 28 28 28 29 29 29 29 29 30 30 31 32 33

ECMWFNIL_700_spd_063.txt.gz
Wind_Speed
27 27 26 26 25 23 22 20 18 17 16 16 16 15 15 14 15 17 16 15 15 16 17 19 19 18 17 16 16 16 16 16 16 14 13 12 11 10 9 8 7 6
28 27 27 26 25 24 22 20 19 17 16 16 15 15 15 15 16 17 17 17 16 16 18 19 20 19 18 17 17 18 17 17 17 16 14 14 13 11 10 8 7 6
29 29 28 27 25 23 22 21 20 18 17 17 16 16 16 16 16 17 18 18 17 17 18 19 20 20 19 18 18 19 19 18 17 17 16 15 14 13 11 10 9 7
30 30 28 27 25 24 23 22 21 20 19 18 17 16 17 16 16 17 18 19 18 18 18 19 20 20 19 19 18 19 20 20 19 18 18 17 16 15 13 12 11 9
31 30 29 27 26 25 25 24 22 21 20 18 18 17 17 17 16 16 17 18 18 17 17 18 18 19 19 19 18 18 20 20 20 19 18 17 16 16 15 14 12 11
32 31 30 29 28 27 26 25 23 22 21 19 19 19 18 18 16 14 15 15 15 16 16 16 16 17 17 18 18 18 18 19 20 20 19 18 17 17 17 16 14 13
33 32 31 30 29 29 27 26 25 24 22 21 21 20 20 19 16 14 13 14 14 14 14 14 14 15 15 16 17 17 18 18 19 19 19 19 19 18 17 17 15 15
33 32 31 31 30 30 29 28 27 25 24 23 22 22 21 21 18 16 14 14 14 13 13 13 13 14 14 15 15 16 17 17 17 17 17 18 19 18 18 17 17 16
33 33 32 32 31 31 30 29 27 26 25 25 24 22 22 22 21 19 17 16 15 15 14 14 14 14 14 14 14 14 15 15 14 14 14 15 16 16 16 17 18 17
35 34 34 33 32 31 30 29 28 26 26 25 24 24 23 23 23 22 20 19 18 17 16 15 14 14 14 14 14 13 13 12 12 11 11 11 11 12 13 15 16 17
35 35 35 34 33 32 31 30 28 27 27 26 25 25 24 24 24 24 23 22 20 18 17 16 15 15 14 14 13 13 12 12 11 11 10 10 10 11 11 12 13 14
35 35 35 34 33 32 31 30 29 29 28 27 26 26 25 25 25 25 25 23 21 20 19 18 17 17 16 15 15 14 14 13 12 11 11 11 11 11 12 13 13 13
33 33 33 33 32 32 31 31 30 30 29 28 26 26 26 26 26 26 25 23 22 21 20 19 19 19 19 18 17 16 15 14 13 12 12 12 11 12 13 14 15 15
28 29 29 30 31 31 31 31 31 30 30 28 27 27 27 26 27 26 26 24 23 23 22 21 21 21 21 20 19 18 17 15 14 14 13 13 13 14 15 16 17 17
24 26 27 28 29 30 30 30 30 30 29 29 28 28 27 26 26 27 27 26 25 24 24 23 23 23 22 20 19 18 17 16 16 15 15 16 16 17 17 18 19 19
23 23 25 26 27 28 28 28 29 29 29 29 29 28 27 27 26 27 27 27 27 26 26 25 25 24 22 20 19 18 18 18 17 17 18 18 18 19 19 20 20 21
23 23 23 24 24 25 25 26 27 28 28 29 29 28 28 27 27 27 27 27 27 28 27 27 26 24 22 21 20 19 19 19 19 19 19 20 20 20 20 20 20 20
25 24 24 24 24 23 23 24 25 26 27 28 28 28 28 28 28 27 26 26 27 28 28 28 26 24 22 21 20 20 19 19 20 20 20 20 20 19 18 17 17 16
28 27 26 25 24 24 23 24 24 25 26 26 26 27 28 28 28 27 26 26 26 27 27 27 25 24 22 21 20 19 19 20 20 20 21 20 19 17 15 14 14 14
30 29 28 26 25 24 24 24 24 24 24 24 25 26 26 26 26 26 26 26 25 25 25 25 24 22 21 20 19 19 19 20 21 21 21 20 18 17 16 15 15 16
31 31 30 29 28 26 26 26 25 25 24 24 24 25 24 24 25 25 25 25 25 25 25 24 23 21 20 20 19 19 19 21 22 23 22 21 19 18 17 17 18 19
31 32 32 31 31 30 29 28 26 26 25 25 25 25 24 24 24 24 24 25 25 25 25 24 22 21 21 20 20 20 22 23 24 24 23 22 20 19 19 19 20 21
29 31 33 33 33 33 32 30 29 27 27 26 26 26 25 25 24 24 24 24 24 25 25 24 22 22 22 22 22 23 25 26 25 24 24 23 22 21 22 22 22 22
27 29 31 33 34 34 34 33 32 31 30 29 29 28 27 26 25 25 25 25 25 25 25 24 24 23 23 24 24 26 27 27 26 25 26 25 24 24 24 24 24 24
24 27 29 31 33 34 35 35 35 35 34 33 32 30 29 28 27 27 27 27 26 26 26 26 25 24 25 26 26 28 28 28 27 27 28 27 26 26 26 26 26 26
20 23 25 27 29 31 32 34 35 35 36 36 35 34 33 31 30 30 29 28 28 28 28 28 27 26 27 27 28 29 29 29 29 30 30 29 28 28 29 29 28 28

ECMWFNIL_700_spd_066.txt.gz
Wind_Speed
26 26 26 25 25 26 26 25 24 23 22 21 19 18 16 15 16 16 15 15 14 13 14 17 19 18 17 16 15 16 16 15 14 12 11 10 9 8 7 7 7 6
27 27 26 26 26 26 26 24 23 21 20 19 19 18 17 16 16 16 15 15 15 15 15 17 19 20 19 18 17 17 17 17 16 14 13 12 11 10 9 8 7 6
29 28 27 27 26 26 25 23 22 21 20 20 19 18 18 17 16 16 16 16 16 16 17 18 19 21 21 20 19 19 18 18 18 17 15 14 13 12 11 10 8 7
30 29 28 27 27 26 26 25 23 21 21 20 19 19 18 18 17 17 16 16 17 17 18 19 20 21 23 22 21 20 20 20 19 18 17 16 15 14 13 12 10 8
31 30 29 28 28 28 28 26 24 22 21 20 19 19 19 19 18 17 16 17 17 18 19 19 19 21 22 23 22 21 21 21 21 20 19 18 17 16 15 14 12 11
32 31 30 30 30 29 28 26 25 23 22 21 20 20 20 19 18 16 15 16 17 18 18 18 18 20 21 22 22 21 21 22 22 22 21 19 19 18 17 16 14 13
32 32 31 31 31 30 29 27 26 25 23 22 22 21 21 20 18 16 14 14 15 16 16 16 16 17 19 20 21 21 21 21 22 23 22 21 20 19 18 17 16 15
33 32 32 32 32 31 30 29 28 27 25 24 24 23 22 21 19 17 15 14 14 15 15 16 16 16 18 19 20 20 20 20 21 22 22 21 21 20 19 18 17 17
33 33 33 33 32 32 31 30 29 28 27 26 25 24 23 22 20 18 16 15 15 15 15 16 16 17 17 18 18 19 20 20 20 19 20 20 20 19 19 20 19 19
35 34 34 34 34 33 32 31 30 29 29 27 26 25 24 23 22 20 19 17 17 16 15 15 16 16 17 17 17 17 19 19 19 19 18 17 17 17 18 19 19 18
36 35 35 35 34 34 32 32 31 30 30 29 27 26 25 25 24 22 21 19 18 17 16 16 16 16 16 16 16 16 17 17 17 16 15 14 14 14 14 15 15 14
36 36 36 35 35 34 33 33 32 31 31 30 29 28 27 26 26 24 23 21 18 17 17 17 17 18 17 16 16 17 17 17 16 15 14 13 13 13 13 13 12 12
35 36 36 35 35 34 34 33 33 32 31 30 29 29 28 27 27 26 25 22 20 19 19 19 19 19 19 19 18 18 18 18 17 15 15 14 14 14 14 14 13 13
33 33 33 34 34 34 34 33 33 32 32 31 30 30 29 28 28 27 26 25 23 22 21 21 21 21 21 21 20 19 19 18 17 16 16 15 15 15 15 14 14 14
28 30 31 31 32 33 34 33 33 32 32 31 31 30 29 28 28 28 28 27 26 24 23 23 23 23 22 21 21 20 19 19 18 18 17 16 15 15 15 15 14 14
25 26 28 29 31 31 32 32 32 32 32 31 31 30 29 29 29 29 29 28 28 27 26 26 25 23 23 22 21 21 21 20 20 19 18 18 17 17 17 16 16 17
22 24 25 27 28 28 29 29 30 30 31 31 30 30 30 30 29 29 29 28 28 28 28 28 26 24 23 23 23 23 22 22 22 21 20 20 20 20 19 18 19 19
20 21 22 24 25 25 26 27 28 29 29 30 30 30 30 30 30 29 29 28 28 28 28 28 27 26 25 24 24 24 24 24 23 23 23 22 21 21 20 20 20 21
22 21 21 22 22 23 23 25 26 27 28 28 29 29 29 30 30 29 29 28 28 28 27 27 27 26 26 25 25 25 25 25 25 24 24 23 23 22 21 20 21 21
27 25 24 23 22 22 23 23 24 25 26 26 27 28 28 29 29 28 28 28 27 27 27 27 27 26 26 26 26 26 26 26 26 25 25 24 23 22 22 21 21 21
31 29 28 26 25 24 24 24 24 24 24 24 24 25 26 26 26 26 27 27 27 27 27 26 26 26 26 26 26 26 27 27 27 26 26 25 24 23 23 22 21 20
32 31 31 30 29 28 26 25 25 24 23 23 23 23 23 23 24 24 25 25 26 26 26 25 24 25 26 26 26 27 28 28 27 27 26 26 25 24 24 23 22 20
30 31 32 31 31 30 29 27 26 25 24 23 23 23 23 22 22 22 23 24 25 26 25 23 22 23 25 25 26 27 28 28 27 27 27 28 27 26 26 25 22 20
27 29 30 31 32 32 31 30 29 27 26 25 24 24 23 22 22 22 22 23 24 25 24 23 22 23 24 25 26 28 28 28 28 28 29 30 29 28 27 25 23 21
24 26 27 29 31 31 31 31 31 30 29 28 27 26 26 25 24 24 23 23 24 24 24 24 23 24 25 26 27 28 28 28 28 30 31 32 31 30 28 26 24 24
22 24 25 27 28 29 30 31 31 31 31 31 31 30 29 28 27 26 25 25 24 24 25 25 25 25 26 27 27 29 29 29 30 32 33 33 32 32 30 28 27 27

ECMWFNIL_700_spd_069.txt.gz
Wind_Speed
28 28 27 26 26 25 25 25 25 24 24 22 21 19 17 15 15 14 14 14 14 14 14 14 15 16 15 15 14 13 13 12 11 10 9 8 7 6 6 6 6 6
28 28 27 27 26 26 25 25 26 25 25 24 22 21 19 18 16 16 15 16 16 16 16 16 16 17 18 17 16 15 14 14 14 12 11 10 9 8 8 7 6 6
27 28 28 27 26 26 26 26 26 26 26 26 24 23 21 19 18 17 16 17 17 18 18 17 17 18 19 19 18 17 16 16 16 15 13 13 11 10 10 9 8 7
28 27 27 27 26 26 27 27 27 27 27 26 25 23 22 20 19 18 17 17 18 18 19 19 18 19 20 21 21 19 18 18 18 17 15 14 14 13 12 11 10 9
29 28 27 27 27 28 28 28 27 27 26 25 24 23 22 21 20 19 17 17 17 18 19 19 19 20 20 22 22 21 20 20 20 19 17 16 16 15 14 14 12 11
31 30 29 28 28 28 29 28 27 26 25 24 24 23 23 22 21 19 18 17 16 17 18 19 19 20 20 22 23 23 22 21 21 21 20 18 17 17 16 16 14 13
32 31 31 30 29 29 29 29 27 26 25 24 24 24 23 23 22 20 18 17 16 17 18 18 19 19 20 22 23 24 24 23 23 23 22 20 19 19 18 17 17 15
33 32 32 31 31 30 30 30 29 28 26 26 25 24 24 23 22 21 19 18 17 16 17 18 18 19 20 21 22 24 24 24 24 24 23 23 22 21 20 19 19 17
34 33 33 33 32 32 31 30 30 29 28 27 26 25 25 24 23 22 20 19 18 17 17 17 18 19 20 21 22 22 23 24 24 24 24 24 24 23 22 22 21 19
34 34 34 34 33 33 32 31 31 30 29 28 27 27 26 25 24 23 22 20 19 18 17 17 17 18 20 21 21 22 23 23 23 23 23 24 24 24 24 24 22 21
35 35 35 34 34 33 32 32 32 31 31 30 29 28 27 26 25 24 23 22 20 18 17 17 17 17 19 20 20 21 22 23 23 23 22 21 22 23 24 24 23 22
35 35 35 34 33 33 33 33 33 32 31 31 30 29 28 27 26 25 24 22 20 19 18 18 17 18 18 19 19 20 22 23 23 23 21 20 19 20 21 21 21 20
34 34 34 33 33 33 33 33 33 33 32 31 30 30 29 28 27 26 25 23 22 21 20 19 19 19 18 18 19 20 21 22 22 22 20 19 18 18 18 17 17 16
31 33 33 33 33 33 33 33 33 33 32 32 31 31 30 29 28 27 26 25 24 23 22 21 21 20 20 19 19 20 20 20 20 20 19 18 18 17 17 16 15 15
28 30 32 33 33 34 34 34 33 33 32 32 31 31 30 30 29 28 27 27 26 25 24 24 23 22 21 20 20 20 20 20 20 20 19 19 19 19 18 18 17 17
28 28 30 31 32 33 33 33 33 33 32 32 31 31 31 30 30 29 28 28 28 27 27 26 25 23 22 21 21 21 21 22 22 22 21 21 21 21 21 20 20 19
29 28 29 29 30 31 31 31 32 32 31 31 31 31 31 30 30 30 29 29 29 29 28 27 26 24 23 23 23 23 23 24 24 24 24 24 23 23 22 21 21 20
30 29 28 28 29 29 29 30 30 30 30 30 30 30 30 30 30 30 30 29 29 29 29 28 26 25 24 24 24 24 25 26 26 26 26 26 24 24 23 22 22 21
28 28 27 27 27 27 28 28 28 29 29 29 29 29 29 30 30 30 30 30 30 29 28 28 27 26 26 25 25 25 26 27 28 28 28 27 26 25 24 23 23 22
23 24 24 25 25 26 26 27 27 27 27 28 28 28 29 30 30 30 30 30 30 29 28 28 27 26 27 27 27 26 27 28 28 29 29 28 27 26 25 24 24 24
21 21 21 22 23 24 25 26 27 27 27 27 27 28 28 29 29 29 29 29 29 28 28 28 27 26 26 27 28 28 29 29 29 30 30 29 28 27 26 26 25 25
24 23 22 21 21 22 24 25 26 26 26 26 27 27 27 28 28 28 28 28 28 28 28 27 26 26 26 27 28 29 30 31 31 31 31 31 30 28 27 27 27 26
29 28 27 25 24 23 23 23 23 23 24 24 25 25 25 25 25 25 25 25 26 27 27 26 25 25 26 27 28 29 31 32 32 32 32 32 31 30 29 28 28 27
31 31 31 30 29 27 26 25 23 23 22 23 23 24 23 23 23 23 23 24 25 26 26 25 24 25 26 27 28 29 30 31 32 32 33 32 31 30 29 29 28 27
33 33 33 32 31 30 30 29 28 26 25 25 25 24 24 23 23 23 23 23 23 24 24 24 24 24 26 27 28 29 30 31 32 32 33 32 31 30 30 29 29 28
32 32 32 32 32 32 32 31 31 30 30 29 28 27 26 25 25 24 24 23 23 23 22 23 23 23 25 26 28 29 30 31 32 33 32 32 31 31 31 30 30 30

ECMWFNIL_700_spd_072.txt.gz
Wind_Speed
29 28 28 28 28 27 28 27 26 24 23 22 21 20 19 18 16 15 15 14 14 14 14 13 13 14 13 12 11 10 9 9 8 8 7 7 6 5 5 6 6 7
29 29 29 29 28 28 28 27 26 25 24 23 22 21 20 19 18 18 17 16 16 16 15 15 15 15 15 15 14 12 11 11 10 10 9 8 8 7 6 5 5 6
29 29 29 29 28 28 27 27 27 26 25 25 24 22 21 20 20 19 18 17 17 17 17 17 16 16 17 17 16 15 14 13 12 12 11 10 9 9 8 6 6 5
29 28 28 28 28 28 28 28 27 27 27 26 25 23 22 21 21 20 19 18 18 19 18 18 18 17 18 19 19 18 16 15 14 14 13 12 12 11 10 9 7 6
29 28 27 28 28 29 29 29 28 27 27 26 25 24 23 22 21 20 19 19 19 19 19 19 19 19 19 20 20 20 19 17 16 16 15 14 14 13 12 11 10 9
30 29 28 28 28 29 29 29 28 27 27 27 26 26 24 23 22 21 20 19 19 19 20 20 20 20 20 20 21 21 21 20 19 18 17 16 16 15 15 14 13 12
30 29 28 28 28 29 29 29 28 28 28 28 27 26 25 24 23 22 21 19 19 19 19 19 19 20 20 21 22 22 22 22 21 20 18 18 17 17 16 15 15 14
31 31 30 29 29 29 28 29 29 29 28 28 27 26 25 24 23 22 21 20 19 19 19 19 19 19 20 21 22 22 22 23 23 21 20 20 19 18 18 18 17 16
32 33 32 31 31 29 29 29 29 29 29 28 26 26 25 24 24 23 22 20 19 19 18 18 18 19 20 21 21 21 22 23 24 23 22 22 21 21 20 19 18 18
31 33 33 33 32 31 29 29 29 29 29 28 27 26 26 25 24 24 22 21 20 19 18 18 17 18 18 19 20 21 22 23 24 24 24 23 23 23 22 22 20 19
30 32 33 34 33 32 31 30 30 30 29 29 28 28 27 26 25 25 23 21 20 19 18 17 17 17 18 18 19 20 22 23 24 24 25 25 24 24 24 24 22 21
29 30 32 33 33 32 32 32 31 30 29 29 29 29 28 27 27 26 25 22 21 20 19 18 18 18 18 18 18 20 21 22 23 24 24 25 25 25 25 25 24 24
27 28 30 31 32 33 32 33 32 31 30 29 30 30 29 28 27 27 26 23 22 21 20 19 20 20 19 18 19 19 20 21 23 23 24 24 24 23 23 24 24 25
25 26 28 29 31 32 33 33 33 32 31 30 30 30 29 28 28 27 26 25 23 23 22 22 21 21 20 19 19 19 19 20 22 23 23 23 23 22 21 21 22 23
24 25 26 28 30 32 33 33 32 32 31 30 30 30 29 28 28 28 27 26 25 24 24 24 23 23 21 20 19 19 18 19 21 22 23 23 22 21 21 20 20 21
24 25 25 27 29 30 31 32 32 32 31 31 30 30 29 29 29 28 27 26 26 25 25 25 24 23 22 21 20 19 18 19 20 21 22 23 22 22 21 21 20 20
25 24 25 26 27 28 29 31 31 32 32 31 30 30 29 29 29 29 28 27 27 26 26 26 25 24 23 22 21 20 20 19 20 21 22 23 23 22 22 22 21 21
27 26 25 25 26 26 28 29 30 31 31 30 30 29 29 29 29 29 29 28 28 27 27 27 25 24 23 23 23 22 22 21 21 22 23 23 23 23 23 23 22 22
29 28 27 26 25 25 26 28 29 29 29 29 29 29 29 29 29 29 29 29 28 28 28 27 26 25 24 24 24 24 24 24 24 24 24 24 24 25 25 25 24 23
31 31 29 27 26 25 25 26 27 27 28 28 29 30 30 30 30 29 29 29 29 29 28 27 26 26 25 24 25 26 26 26 26 26 26 26 26 26 26 26 26 25
31 32 31 29 27 26 26 26 27 28 28 29 29 30 30 30 30 30 30 29 30 29 28 27 27 26 24 24 25 26 28 28 29 29 29 28 28 28 28 28 28 27
30 31 31 30 29 28 28 28 28 29 29 29 29 29 30 31 31 31 31 30 30 30 29 28 27 26 25 24 25 26 28 30 31 31 30 30 29 30 30 30 30 29
27 29 30 30 30 30 30 29 29 29 29 29 29 30 31 31 31 31 31 31 30 30 30 29 28 26 26 25 25 27 29 31 32 32 32 31 30 30 31 32 32 31
24 25 26 27 27 27 28 28 28 28 28 28 29 29 30 30 30 30 30 30 30 30 30 30 28 27 27 27 27 28 29 31 32 33 33 33 32 31 31 31 32 31
26 25 25 25 24 24 24 24 24 25 25 26 27 27 28 29 28 29 29 29 29 29 29 29 28 28 28 28 28 29 30 31 33 33 33 33 32 32 32 32 31 31
30 29 27 26 25 25 24 24 23 23 23 24 24 25 26 26 26 26 27 27 27 27 27 27 27 27 27 27 28 29 31 32 33 34 34 33 32 32 33 33 32 32

ECMWFNIL_700_spd_075.txt.gz
Wind_Speed
27 27 27 27 26 26 25 25 25 25 24 22 20 19 19 19 17 16 14 13 13 12 12 11 11 10 10 10 9 9 9 9 8 7 7 6 5 6 6 7 7 7
27 27 27 27 27 27 26 26 26 26 25 23 21 21 20 20 19 18 17 15 14 13 13 12 12 12 11 11 11 10 10 10 10 9 8 8 7 6 6 6 6 6
27 27 27 27 27 26 26 26 27 27 26 25 24 23 21 21 21 20 19 17 16 15 14 13 13 13 12 13 12 12 11 11 12 11 10 10 9 8 7 7 7 6
27 27 27 27 27 26 27 27 27 27 27 26 26 25 22 21 22 22 21 19 18 16 15 15 14 14 14 14 14 14 13 13 13 13 12 11 11 10 9 8 8 7
26 26 27 27 27 27 27 28 28 28 28 27 26 25 24 23 23 22 21 20 18 17 17 16 16 16 16 16 15 15 15 14 14 14 14 13 13 12 11 10 10 8
25 26 26 26 27 27 27 28 28 28 28 28 27 26 25 24 23 22 21 20 19 18 18 17 17 17 17 17 16 16 16 15 15 15 15 15 14 14 13 12 12 11
26 26 26 26 26 27 27 28 28 28 28 28 27 26 25 24 24 23 22 21 19 19 19 18 18 18 18 18 17 17 17 17 17 16 16 16 16 15 14 14 14 13
26 26 26 26 26 26 26 27 27 27 27 28 28 27 26 24 23 24 23 22 21 20 19 18 18 17 18 18 18 17 17 17 18 17 17 17 17 17 16 16 16 15
27 28 27 27 27 26 26 26 26 26 27 28 27 26 26 24 23 23 23 22 21 21 19 18 18 17 17 18 18 17 16 17 19 19 19 19 19 19 19 19 18 17
27 27 28 28 28 27 26 26 25 26 27 27 27 26 25 24 24 24 23 22 22 21 19 18 17 16 17 18 17 17 16 17 19 19 20 21 21 21 21 20 19 18
26 27 27 28 28 28 27 26 26 26 27 26 26 26 25 24 24 24 23 22 22 21 19 18 17 16 17 17 17 16 16 17 19 20 20 22 22 22 22 22 21 20
26 26 26 27 28 28 27 27 27 27 27 27 26 26 25 24 24 24 23 22 21 20 19 18 17 17 17 17 16 16 16 17 18 19 20 22 23 24 23 23 23 22
26 26 25 26 26 27 28 28 29 28 26 26 26 26 26 25 24 24 23 22 21 20 19 18 18 18 17 17 17 17 16 16 18 19 19 21 22 24 24 24 23 23
26 26 26 25 26 27 28 29 29 29 28 27 26 26 26 25 24 24 23 23 21 21 20 20 19 19 19 18 17 17 16 15 16 18 18 20 21 23 24 24 23 24
25 26 27 27 27 28 29 29 29 29 30 29 27 26 26 26 25 25 24 23 22 21 21 21 20 20 20 19 18 17 17 15 16 17 18 19 20 22 23 24 23 23
26 26 27 28 27 27 28 29 29 29 30 29 28 27 27 27 27 26 25 23 23 23 22 22 22 21 20 19 18 18 17 16 16 17 18 19 20 21 23 23 22 22
26 27 27 27 27 27 28 29 30 30 29 29 28 27 27 28 28 27 26 24 23 23 23 23 22 22 21 19 18 19 19 18 17 16 18 19 19 20 22 22 22 22
26 27 27 27 26 26 27 29 30 30 30 29 28 27 28 29 29 28 27 26 25 24 24 24 23 23 21 19 19 20 20 20 19 18 18 19 19 20 21 22 23 23
25 26 27 27 26 26 27 29 30 31 30 29 28 28 28 29 29 28 28 28 27 26 25 24 24 24 22 19 19 20 21 22 22 20 19 19 19 20 20 22 23 24
25 25 27 27 27 27 27 28 30 30 30 29 29 29 29 29 28 28 28 28 27 27 26 25 25 25 23 20 20 21 21 23 24 23 22 21 21 21 21 22 23 24
27 26 27 28 29 28 28 28 29 30 30 31 31 30 29 29 28 28 28 27 27 28 27 26 25 25 24 21 21 21 22 23 25 26 25 24 23 22 22 22 23 25
29 27 27 29 30 30 29 28 29 30 30 31 31 30 30 29 29 29 29 28 28 28 28 27 26 26 25 22 21 22 23 24 26 27 27 27 25 24 23 23 24 25
30 28 28 29 31 32 30 29 29 29 29 29 30 30 30 30 30 30 30 29 29 28 28 28 27 27 25 23 22 22 24 26 26 27 28 28 27 27 26 25 26 26
31 29 28 28 30 31 31 30 29 29 29 29 29 29 30 30 30 30 30 30 29 29 29 29 28 27 26 24 23 24 25 26 27 28 29 29 28 28 28 28 28 27
31 29 29 28 29 30 30 30 30 29 29 28 28 28 29 29 29 30 30 31 30 30 30 29 29 29 28 26 25 25 26 27 29 30 30 30 29 29 29 30 29 29
31 30 28 27 28 29 29 30 30 30 30 29 28 29 29 30 30 30 30 30 29 29 30 30 30 29 29 28 27 27 27 28 30 31 32 32 31 30 30 30 30 30

ECMWFNIL_700_spd_078.txt.gz
Wind_Speed
23 22 22 22 22 21 20 20 20 20 20 18 17 17 16 15 15 14 13 12 11 11 10 10 10 9 9 8 7 7 7 6 5 4 5 5 5 5 6 8 9 9
22 22 23 23 23 22 21 20 20 21 20 19 17 17 17 16 16 16 14 13 12 12 11 10 10 10 10 9 8 8 8 8 6 5 5 5 5 5 6 7 8 9
22 22 22 23 22 22 22 21 21 21 21 20 19 19 18 18 17 17 16 15 14 13 12 11 10 10 10 10 10 9 9 9 8 7 6 6 6 6 6 6 7 8
22 22 22 22 22 22 22 22 22 22 22 22 20 20 19 19 18 18 18 17 16 14 13 12 11 10 10 10 10 11 11 10 9 8 8 7 8 8 7 7 7 7
20 21 21 22 22 22 23 23 23 23 23 23 22 21 20 20 19 19 19 18 17 16 14 13 13 12 11 11 11 11 12 12 11 10 10 9 9 9 9 9 8 7
20 21 22 22 22 23 23 23 23 23 23 23 23 23 22 21 20 20 20 19 18 17 16 16 15 14 13 12 12 11 12 13 13 12 12 11 11 11 10 10 9 8
20 21 21 22 23 23 23 23 23 23 23 24 24 24 23 22 20 20 20 19 18 18 18 17 16 15 14 13 13 12 12 13 14 14 14 14 14 13 12 12 11 10
21 21 20 21 22 24 24 23 23 23 23 24 24 24 23 22 21 21 21 20 19 19 19 18 17 16 15 13 12 12 12 13 14 14 15 15 15 15 14 14 13 12
22 22 21 21 22 23 23 23 23 23 23 24 24 23 22 21 21 21 21 21 20 20 20 19 18 16 15 14 12 12 12 13 13 14 16 16 16 17 17 16 16 14
23 23 23 23 23 22 23 23 23 23 23 24 23 23 22 21 20 21 21 21 21 21 21 20 18 16 15 15 13 12 12 12 13 14 16 17 18 18 19 18 18 16
23 24 24 24 24 23 22 22 23 23 24 24 24 23 23 21 20 21 22 21 21 22 22 21 19 16 15 15 14 12 12 12 14 14 15 17 19 19 20 20 19 18
23 24 24 25 24 24 23 22 23 24 23 24 24 24 23 22 21 21 21 21 21 22 22 20 19 17 16 16 15 13 13 13 13 14 14 16 18 20 21 21 21 20
22 23 23 24 25 25 24 24 24 24 23 23 23 24 24 23 22 21 20 21 21 22 22 20 19 18 17 16 16 14 13 13 13 13 13 14 16 19 21 22 22 22
20 21 22 23 24 25 25 25 25 24 23 23 23 23 25 24 22 21 21 21 21 21 22 20 19 19 18 17 16 15 14 13 13 13 13 13 14 16 19 21 22 22
20 21 22 23 24 25 26 26 26 25 24 24 23 23 24 24 23 22 22 22 21 21 21 21 20 20 19 17 16 16 14 13 12 13 13 13 13 14 16 18 21 22
21 21 22 23 23 25 26 26 26 26 26 25 24 23 23 23 23 23 23 23 22 21 21 21 21 20 19 18 16 16 15 14 13 13 14 14 13 13 14 15 18 20
22 23 23 23 23 23 25 26 26 27 28 27 25 24 24 23 23 24 23 23 23 22 22 22 21 20 19 18 16 16 16 16 15 14 14 15 15 14 14 14 15 17
24 24 24 23 22 22 24 26 26 27 28 28 27 25 25 25 25 25 24 23 23 23 23 22 21 20 20 19 17 17 17 17 18 17 16 16 16 16 15 14 15 16
25 25 25 24 23 22 23 25 26 27 27 28 28 26 26 26 27 26 25 25 24 23 23 22 22 22 21 19 17 17 18 18 19 19 19 17 17 17 17 15 15 16
26 25 25 25 24 23 23 24 26 27 27 27 29 28 27 27 28 27 27 27 25 25 24 23 23 22 21 19 18 18 19 19 20 21 21 20 19 18 18 17 16 16
29 27 26 26 25 25 25 25 26 27 27 28 29 30 29 28 28 28 28 28 27 26 25 24 24 23 22 20 19 19 20 21 22 23 23 23 22 20 19 18 17 16
31 29 28 27 27 27 27 27 27 27 28 28 29 30 30 29 29 29 29 29 28 28 27 26 25 24 23 22 20 19 21 22 23 24 24 24 24 21 20 19 18 18
33 32 31 29 28 28 28 28 28 28 28 29 29 29 30 30 30 30 30 30 29 28 28 27 26 25 24 23 21 20 21 23 23 24 25 25 24 23 22 21 20 20
34 34 33 31 29 28 28 29 29 29 29 29 28 28 29 30 30 31 31 31 30 29 28 28 27 26 25 23 22 21 22 23 23 25 26 26 25 24 24 23 23 21
36 35 35 33 30 28 28 29 29 30 30 29 28 27 28 29 30 31 31 32 31 30 29 29 29 28 27 25 23 23 23 24 25 27 28 27 26 26 25 25 24 23
37 36 37 35 32 30 29 28 29 30 31 31 29 27 27 28 29 30 31 32 31 31 31 31 30 30 29 27 25 25 25 25 26 28 28 28 28 27 27 26 26 25

ECMWFNIL_700_spd_081.txt.gz
Wind_Speed
22 22 22 21 20 21 22 21 20 19 18 18 17 16 15 14 14 13 13 12 11 12 12 12 11 10 9 8 8 8 7 7 7 7 8 8 8 8 8 8 9 7
22 22 22 22 22 21 22 22 21 20 19 18 17 16 16 16 16 15 14 13 12 12 12 12 12 11 10 10 9 9 8 7 7 7 7 8 7 8 8 8 9 10
22 22 23 23 22 21 21 21 21 21 20 19 19 18 18 17 16 16 15 15 13 13 12 12 12 12 12 11 10 10 10 9 8 8 7 8 8 8 8 8 8 9
22 22 22 22 22 21 21 21 21 22 21 20 20 19 19 18 17 16 16 16 15 13 13 12 12 12 12 12 12 11 11 11 10 9 9 9 9 8 8 8 8 8
21 21 21 21 22 22 23 23 22 22 22 20 19 19 20 20 18 16 15 16 17 15 14 13 13 13 13 13 13 13 13 12 12 11 10 10 10 10 9 9 9 8
21 21 21 21 22 23 24 24 22 22 22 21 20 19 20 20 19 17 16 16 17 17 15 14 14 13 13 13 13 14 14 14 13 13 12 11 11 11 11 10 9 9
22 22 22 22 23 23 24 24 23 23 23 22 21 20 20 20 19 18 17 15 16 17 16 15 15 14 14 13 13 13 14 15 15 14 14 13 12 12 12 12 11 10
22 21 22 22 23 24 24 24 24 23 23 23 23 22 20 20 19 18 18 16 16 16 16 16 16 15 15 14 13 13 14 15 16 16 16 15 14 13 13 13 13 12
23 22 23 23 24 25 25 25 25 24 24 24 23 23 21 20 18 18 18 18 17 16 16 17 16 16 15 14 13 13 13 14 15 16 17 17 16 16 15 15 15 14
25 24 24 24 24 25 25 25 24 24 24 24 24 24 23 21 19 18 19 19 19 18 17 17 17 16 15 14 13 13 13 14 15 16 17 18 18 17 17 17 17 16
27 27 26 25 24 24 25 24 25 24 24 24 24 24 23 22 20 19 20 20 20 19 18 17 17 16 15 14 13 13 14 14 15 15 16 18 18 18 18 18 18 17
26 27 27 26 25 25 24 24 25 24 24 24 24 24 24 23 22 21 20 20 20 20 19 18 17 17 16 15 14 14 14 14 14 14 16 17 18 18 19 18 18 18
24 25 26 26 26 25 25 25 25 24 25 24 24 24 24 23 23 22 21 21 20 20 21 20 19 18 17 17 16 15 15 14 14 14 14 16 17 18 19 19 19 19
21 22 24 25 25 26 26 25 25 25 24 24 24 24 24 23 23 22 22 22 21 21 22 21 21 20 18 18 18 17 16 15 14 13 13 14 15 17 18 19 20 20
21 21 22 24 25 26 27 26 26 25 24 24 24 24 24 24 23 22 22 23 22 22 23 23 23 21 20 19 19 18 16 15 14 13 12 13 13 14 16 17 18 19
21 22 22 24 24 25 26 26 26 26 25 25 24 24 24 24 23 23 23 23 23 23 24 24 24 22 20 20 19 18 17 16 15 14 14 13 13 13 13 14 14 16
22 23 23 24 24 24 25 25 26 27 26 25 24 24 25 24 24 24 24 24 24 24 24 24 24 22 20 20 20 19 18 17 16 16 15 15 14 13 12 12 12 13
23 24 24 24 24 24 24 25 25 26 27 26 25 25 25 25 25 24 24 24 24 24 24 24 23 21 20 20 20 20 19 19 18 17 17 16 15 14 13 12 12 12
25 25 25 25 24 24 24 25 25 26 27 26 25 25 26 26 26 25 24 24 25 25 25 24 23 21 20 20 20 20 20 20 20 20 19 18 17 16 15 14 13 12
28 26 26 25 25 25 25 26 26 25 25 25 25 25 26 27 27 27 25 25 25 25 24 24 23 22 22 21 21 20 20 20 21 21 21 20 19 18 17 16 14 14
30 29 27 26 26 26 26 27 27 26 26 25 26 25 25 26 28 28 27 26 25 25 25 24 24 23 23 22 22 21 21 21 22 22 22 22 21 19 18 17 16 15
31 31 30 28 28 27 27 27 28 28 27 26 26 25 25 25 27 29 29 28 27 26 25 25 25 24 24 23 22 21 21 22 23 24 24 23 22 20 19 17 17 17
32 33 32 31 30 29 28 28 28 29 28 27 27 26 25 25 26 28 29 30 30 28 27 26 26 26 25 24 23 21 21 23 24 24 24 23 22 21 20 19 18 17
32 33 33 33 32 31 30 29 29 29 29 29 28 27 26 25 24 26 28 29 30 30 29 28 27 26 26 25 25 24 24 24 24 24 24 24 23 22 21 20 19 18
32 33 34 34 34 33 32 30 30 29 30 30 30 29 28 26 25 25 26 28 30 31 31 30 29 27 26 26 26 26 26 26 26 26 25 25 24 24 23 22 20 19
31 32 33 35 36 36 34 33 31 31 31 31 31 31 30 29 27 25 25 27 28 30 32 32 31 29 28 27 27 27 28 28 28 28 27 26 25 25 24 23 22 20

ECMWFNIL_700_spd_084.txt.gz
Wind_Speed
26 25 23 23 23 23 23 20 20 20 20 19 17 15 14 14 14 13 12 12 12 13 13 12 11 10 10 9 9 9 9 9 9 9 9 8 8 7 7 7 6 6
26 26 24 24 24 25 24 23 21 21 21 21 20 18 17 16 16 15 14 13 12 12 13 13 13 11 11 10 9 10 10 10 10 10 9 9 8 7 7 7 7 7
25 26 26 25 24 25 25 24 23 22 22 23 23 22 20 19 18 17 16 15 14 14 14 14 14 13 12 11 10 10 11 11 10 10 10 9 9 8 8 8 8 8
26 26 26 24 24 24 25 25 24 23 23 24 24 24 23 21 20 18 18 16 16 16 15 15 16 15 14 13 13 12 12 12 12 11 11 10 9 9 9 8 9 9
26 26 26 25 24 25 26 27 26 24 23 23 24 24 24 23 22 20 19 18 18 17 17 17 17 17 16 15 14 14 13 13 13 12 12 11 11 11 10 9 10 10
27 27 26 26 25 26 27 27 27 26 24 23 23 24 24 24 23 22 21 20 19 19 18 18 18 18 18 17 16 16 15 15 14 14 13 13 13 12 12 11 11 11
29 28 27 27 26 27 27 27 27 27 26 24 24 24 24 24 24 22 21 21 21 20 19 19 19 19 19 19 18 18 17 17 16 16 15 15 15 14 14 13 12 12
29 29 28 28 28 28 28 28 28 28 27 27 26 25 24 24 24 22 21 22 23 22 21 20 20 19 19 19 19 18 18 18 18 18 17 17 16 16 15 15 15 14
30 30 30 30 29 29 29 28 28 28 28 29 28 26 25 25 24 23 22 21 22 23 22 21 21 21 21 20 19 19 19 19 19 19 19 19 18 17 17 17 17 16
31 31 31 31 31 30 30 29 28 28 29 29 29 28 28 26 25 25 24 23 22 23 23 22 22 22 22 21 20 19 19 19 19 19 20 20 20 20 19 19 19 19
31 31 31 32 31 31 30 30 29 29 29 29 29 29 29 28 27 26 26 25 24 23 23 23 23 23 23 22 21 20 20 19 20 20 21 21 22 22 22 21 21 20
31 31 31 30 30 30 30 30 30 30 30 29 29 29 29 29 28 28 27 27 26 24 24 24 23 24 23 22 22 21 21 20 20 20 21 22 23 23 24 23 22 22
31 30 30 29 29 29 29 30 30 30 30 29 29 29 29 29 29 28 28 27 27 26 26 25 24 25 24 23 22 22 22 21 20 20 20 21 22 23 24 24 24 23
29 30 30 29 28 28 29 29 30 30 30 30 29 29 29 29 28 28 27 27 27 27 27 26 26 26 25 25 24 23 23 22 21 20 19 20 20 22 23 24 24 24
29 30 30 30 30 29 29 29 29 30 29 29 29 29 28 28 28 27 27 27 27 27 28 28 28 27 26 25 25 24 23 22 21 20 19 19 19 20 21 22 23 23
29 29 30 31 31 31 30 30 30 29 29 29 29 28 28 28 27 28 27 27 27 27 28 28 28 28 26 25 25 25 24 23 22 20 19 19 19 19 20 21 21 21
29 30 30 30 31 31 31 30 30 30 30 29 29 28 28 28 28 28 27 27 27 27 28 28 28 27 26 25 25 25 25 25 24 22 20 19 19 19 19 19 19 19
30 30 30 30 30 30 31 30 31 31 30 30 29 28 28 28 28 28 27 27 27 27 28 28 27 26 25 24 25 25 25 26 25 23 22 21 20 19 19 18 18 17
30 30 30 30 30 30 30 30 31 31 31 30 29 29 29 29 28 27 27 26 27 27 28 28 26 25 24 24 24 25 25 26 26 25 23 22 21 20 19 19 18 17
31 31 31 31 30 30 31 31 31 31 30 30 29 29 29 29 28 28 27 26 26 27 27 27 26 25 24 24 24 24 25 26 26 25 24 24 23 22 21 20 19 18
33 32 32 31 31 31 31 32 32 31 30 29 29 29 29 29 29 29 28 26 26 26 26 26 25 24 24 24 23 23 24 25 26 26 26 25 24 24 23 22 21 20
34 34 34 33 33 33 32 32 32 31 31 30 29 29 28 28 29 29 29 28 27 26 26 26 25 24 24 24 24 24 24 25 26 27 27 26 26 25 24 23 22 21
35 36 36 35 35 35 34 33 33 32 32 31 30 29 28 27 28 29 29 29 28 27 26 25 25 24 24 24 24 24 25 25 26 27 28 28 27 25 25 24 23 22
33 35 36 37 37 36 35 34 34 33 33 32 32 31 29 27 27 27 28 29 29 28 27 26 25 25 25 24 24 24 25 26 26 27 27 28 27 26 25 24 23 22
31 32 34 35 38 38 37 36 35 34 34 33 33 32 31 29 28 27 28 28 28 28 27 26 26 25 26 26 25 26 26 27 27 27 27 27 26 26 25 25 24 23
32 31 31 32 35 37 38 38 37 36 35 34 34 34 32 31 30 29 28 28 27 27 27 27 26 26 26 26 27 27 28 28 29 29 28 27 26 25 25 25 25 24

ECMWFNIL_700_spd_087.txt.gz
Wind_Speed
23 23 22 21 20 20 21 21 21 19 18 16 16 14 13 13 14 14 13 12 13 12 11 10 9 9 9 8 7 6 6 6 6 6 6 6 6 6 6 6 5 5
24 24 24 23 22 21 22 22 21 21 19 18 17 16 15 16 16 15 15 14 13 13 13 12 11 10 9 9 8 7 7 6 5 5 5 5 5 5 5 5 5 5
25 25 25 24 23 22 22 22 22 21 21 20 20 19 18 17 17 16 16 15 13 13 13 13 13 11 10 10 9 9 8 7 6 6 6 5 5 5 5 5 5 6
25 25 25 24 23 23 23 23 23 22 22 22 22 21 20 19 18 17 17 16 15 14 14 14 14 13 12 11 11 10 10 9 8 7 7 6 6 6 6 6 6 8
25 25 25 24 24 24 25 26 25 24 23 23 23 23 22 21 20 19 18 17 16 15 15 14 14 14 14 14 13 12 11 11 10 9 8 7 7 7 7 7 8 9
26 25 25 25 25 25 26 27 27 26 25 24 24 24 23 23 22 21 20 19 18 17 16 15 14 14 14 15 14 13 13 13 12 11 10 9 9 8 8 8 9 9
28 27 26 26 25 26 27 27 28 27 26 25 25 25 25 25 24 23 22 21 19 19 18 17 16 15 15 15 15 15 15 14 14 13 12 12 11 10 9 9 10 10
29 28 28 27 27 27 27 27 28 28 27 26 26 26 26 26 26 25 24 23 22 20 19 19 18 17 17 17 17 16 16 16 16 15 14 14 13 12 11 10 11 11
31 30 30 30 29 28 27 27 28 28 28 27 26 26 26 27 27 26 26 25 24 22 21 21 20 19 19 19 18 18 17 17 17 17 16 15 15 14 14 13 13 12
32 32 32 32 31 30 29 28 28 28 28 28 27 26 27 27 27 27 27 26 25 24 23 23 22 21 21 20 19 19 18 18 18 18 17 17 16 16 16 16 16 15
34 33 33 33 32 31 30 29 28 29 29 29 28 28 27 27 27 27 27 27 26 25 24 23 23 23 23 22 21 20 20 19 19 19 19 18 18 18 19 19 19 18
35 35 34 33 33 32 31 30 30 30 30 30 29 29 28 28 27 27 27 27 26 26 25 24 24 25 24 23 22 22 22 21 21 20 19 19 19 20 21 21 21 20
35 35 34 33 33 32 31 31 31 31 31 31 30 30 30 30 29 28 28 28 27 27 26 25 25 25 26 25 24 23 24 24 23 22 21 20 20 21 22 23 23 23
34 35 35 34 33 33 32 32 32 32 32 31 31 32 32 31 31 30 29 29 28 28 27 26 26 26 26 26 25 25 25 24 24 23 23 22 22 22 22 24 25 25
33 34 35 35 34 34 33 32 32 32 32 32 33 33 32 32 32 31 31 31 30 29 28 27 27 27 27 26 26 26 25 25 24 24 23 23 22 22 22 23 25 25
32 33 34 35 35 34 33 33 32 32 32 33 33 33 32 32 32 32 32 31 30 29 28 28 28 27 26 26 26 26 26 25 25 24 24 23 22 22 21 22 23 24
32 33 33 34 35 34 34 33 32 32 32 32 32 32 32 32 32 32 32 32 31 30 29 28 27 26 26 26 26 26 26 26 26 25 25 24 24 22 21 21 22 22
31 32 32 33 34 34 34 34 33 33 32 32 31 31 31 31 31 31 31 31 30 30 29 28 27 26 25 25 26 26 26 26 26 26 26 26 25 23 22 21 21 22
31 31 32 32 33 33 33 34 34 34 33 32 31 31 30 30 30 30 30 30 30 29 29 28 27 25 25 25 26 26 26 26 26 26 27 27 26 24 22 22 22 22
31 31 32 32 32 32 33 33 34 34 34 33 32 32 31 30 29 29 28 28 28 28 27 27 26 25 25 25 26 26 26 27 27 27 27 27 26 25 23 22 22 23
28 30 31 32 32 32 32 33 34 34 33 33 33 33 32 31 30 29 28 27 27 27 26 26 25 24 24 25 26 26 27 27 28 28 28 28 27 26 24 23 23 23
26 25 26 27 29 31 33 33 33 33 33 33 33 33 33 32 31 30 29 28 27 27 26 25 24 23 23 24 25 25 27 28 28 28 28 28 28 26 25 24 24 24
28 24 22 22 24 28 32 33 33 33 33 33 33 33 32 32 31 30 29 29 28 28 26 24 22 22 23 24 24 25 27 28 29 29 29 28 27 26 25 25 25 25
33 29 25 22 22 26 29 31 32 33 32 32 33 33 32 31 31 30 29 29 28 28 27 25 23 22 23 24 24 25 27 29 29 29 29 28 27 26 25 25 26 26
35 31 27 24 23 24 26 28 30 31 32 32 33 33 33 32 31 30 29 28 28 27 27 26 24 23 24 25 25 26 27 28 30 30 30 29 28 27 26 26 26 26
36 32 29 28 25 24 25 26 27 29 32 33 33 33 33 33 32 31 30 28 28 27 27 26 25 24 24 25 26 28 28 29 30 31 31 30 29 28 27 27 27 26

ECMWFNIL_700_spd_090.txt.gz
Wind_Speed
21 21 22 21 21 20 19 17 15 14 13 12 11 9 8 9 9 8 7 7 8 9 9 8 7 6 6 5 4 3 3 3 2 2 3 4 4 5 5 6 6 7
22 21 22 22 22 21 20 19 17 16 15 14 13 12 11 10 9 9 9 8 8 9 9 9 8 7 7 7 6 5 4 3 3 3 3 4 4 5 6 6 7 7
22 22 22 22 22 22 21 20 19 18 17 16 15 14 13 12 11 11 11 10 9 9 9 9 9 9 8 8 7 6 5 4 4 4 4 4 5 5 6 6 7 7
23 23 22 22 22 22 22 22 21 21 20 19 17 16 15 15 14 13 13 12 11 10 10 10 10 10 9 9 8 8 7 6 5 5 4 4 4 5 5 6 7 8
24 23 23 22 23 23 23 23 23 22 22 20 19 19 18 17 17 16 15 14 13 12 11 10 10 10 10 10 10 9 8 8 7 6 5 5 5 4 4 5 6 8
24 24 24 23 23 24 24 24 23 23 23 22 21 21 20 19 19 18 17 15 14 13 12 12 11 11 11 11 11 11 10 9 9 8 7 6 6 5 4 5 6 7
25 24 24 24 25 25 25 24 24 24 24 23 23 22 21 21 21 20 19 18 17 15 14 13 13 12 12 12 12 12 12 11 11 10 9 9 8 7 6 6 6 7
25 24 25 25 25 26 25 25 25 25 25 25 24 24 23 23 22 22 21 21 20 18 17 16 15 14 14 14 13 12 13 13 13 12 11 11 10 9 8 8 8 9
26 25 25 26 26 26 26 25 25 25 25 26 25 24 24 24 24 24 24 23 23 22 20 19 18 17 16 15 14 13 13 13 14 14 13 13 12 12 11 11 10 10
28 27 27 27 27 27 26 26 25 25 26 26 26 25 25 25 26 26 26 26 25 24 23 22 21 20 19 17 16 15 14 14 15 15 15 15 14 14 14 14 13 13
30 29 29 28 28 27 27 26 26 26 27 27 27 27 27 26 27 27 28 28 27 26 25 23 22 22 21 19 18 17 16 16 16 16 17 17 17 17 17 17 16 15
31 30 30 29 28 28 27 27 27 27 28 28 29 29 28 28 28 28 28 28 27 27 26 25 24 23 22 21 20 19 18 18 18 18 18 18 18 18 19 19 18 17
31 31 30 29 28 28 28 28 28 28 29 29 29 30 30 29 29 28 28 28 28 28 27 26 25 25 24 23 21 21 20 19 19 19 19 19 19 20 20 21 20 20
31 31 30 30 29 29 29 29 29 29 29 29 29 31 31 31 30 29 29 28 28 28 27 27 27 26 25 24 23 22 22 21 20 21 21 21 21 21 22 22 22 22
30 30 30 30 30 30 30 30 29 29 29 30 30 31 31 31 30 30 30 29 29 29 28 28 28 27 25 24 23 23 23 23 22 22 22 23 23 23 24 24 24 24
28 29 29 30 30 30 30 30 30 30 30 30 31 31 31 31 31 32 32 31 30 29 29 29 28 27 26 25 24 24 25 25 24 23 23 24 25 25 26 26 26 25
27 28 28 29 30 30 30 31 31 31 31 31 31 31 31 31 32 33 33 32 31 31 30 30 29 27 26 25 25 25 26 27 26 25 24 24 25 26 26 26 26 26
27 27 28 28 29 29 30 30 31 32 32 32 32 31 31 32 32 33 33 32 32 32 31 31 29 28 27 27 27 27 27 28 27 26 25 25 25 26 25 26 26 26
26 27 28 28 28 28 28 29 30 32 32 32 32 32 32 32 32 33 33 33 33 32 31 31 30 29 28 28 28 27 28 29 28 27 26 26 26 26 26 26 26 26
26 27 28 28 27 27 27 28 29 30 31 32 33 33 34 33 32 32 32 32 32 32 31 30 30 29 29 29 28 28 28 30 30 29 28 27 26 26 27 27 26 26
24 25 27 27 28 28 28 29 29 30 31 31 33 34 34 34 33 32 31 31 30 30 30 30 29 28 28 29 28 28 29 30 31 31 29 28 27 27 27 27 27 27
23 23 24 25 27 30 31 32 31 31 31 31 32 33 34 34 34 33 32 30 29 28 28 28 26 26 27 28 28 29 30 31 32 32 31 29 28 27 27 26 26 26
23 23 23 24 26 29 32 34 33 32 32 32 31 31 32 32 33 32 32 31 30 29 28 26 24 24 25 26 27 28 30 31 32 32 32 30 28 27 27 26 26 26
24 23 23 24 26 26 27 29 30 31 32 32 31 30 30 29 29 30 31 31 30 29 28 26 24 23 24 25 26 27 30 31 32 32 32 31 30 28 27 26 25 25
26 23 22 24 25 25 24 24 25 27 31 33 32 30 28 26 25 27 28 29 28 27 27 27 25 24 25 25 25 27 29 30 31 32 32 32 30 29 28 27 26 25
27 25 23 23 23 24 24 25 24 24 27 30 29 28 26 25 24 24 26 27 27 26 27 27 26 25 25 26 26 27 29 30 31 32 31 31 30 29 28 28 27 26

ECMWFNIL_700_spd_096.txt.gz
Wind_Speed
22 21 20 20 19 18 16 15 14 13 13 13 12 11 11 10 9 8 8 7 7 6 6 6 6 5 5 5 5 6 6 5 5 5 5 6 6 6 6 7 7 7
22 22 21 21 20 19 18 17 16 15 14 14 14 13 12 11 10 10 9 8 8 7 7 7 6 6 5 5 5 5 5 5 5 5 5 5 6 7 7 7 8 8
23 22 22 21 21 20 19 19 17 16 16 15 16 15 14 12 11 11 10 9 8 8 8 8 7 7 6 5 5 4 4 4 4 5 5 5 6 7 7 7 7 8
23 23 22 22 22 21 21 20 19 18 17 17 16 16 15 14 13 12 11 10 9 9 8 8 8 8 7 7 6 5 5 4 4 4 5 5 6 7 7 7 7 8
23 23 23 23 23 23 22 21 20 19 19 18 18 18 17 15 14 13 12 11 10 10 9 9 9 9 8 8 7 7 6 6 5 5 5 6 6 6 6 6 7 8
23 23 23 24 24 24 23 22 21 21 20 20 19 19 18 17 16 15 14 13 12 11 11 10 10 10 10 9 9 8 8 7 7 6 6 6 6 6 6 7 7 8
24 23 24 24 24 24 24 24 23 22 21 21 21 21 20 19 18 16 16 15 14 13 12 12 12 11 11 11 10 10 9 9 8 8 8 8 8 7 7 7 8 9
24 24 24 24 24 25 25 25 24 23 23 23 22 22 22 21 20 19 18 17 16 15 14 14 13 13 12 12 11 11 11 10 10 10 9 10 9 9 9 9 9 9
25 25 24 25 25 25 25 25 25 24 24 24 23 23 23 23 22 21 20 19 18 17 16 16 15 15 14 13 13 12 12 12 11 11 11 11 11 11 11 10 10 10
25 25 25 25 25 25 25 25 26 26 26 25 24 24 24 24 23 23 22 21 20 20 19 18 18 17 16 15 14 14 13 13 13 13 12 12 13 13 12 12 12 11
26 26 26 26 26 25 25 25 26 26 27 26 26 26 26 25 24 24 24 23 22 22 21 20 20 19 19 18 16 16 15 15 14 14 14 14 14 14 14 14 13 13
26 27 27 26 26 25 25 25 25 26 27 27 27 27 27 27 26 26 25 24 23 23 22 22 22 21 21 20 19 18 17 17 16 15 16 16 16 16 16 16 15 15
27 27 27 27 27 26 26 25 25 26 26 26 27 28 28 28 28 28 27 26 25 25 24 24 24 24 23 22 22 21 20 18 18 17 17 17 18 18 18 17 17 16
27 27 27 28 28 28 27 27 26 26 26 26 27 28 28 29 29 29 29 28 27 27 27 26 26 26 25 24 24 23 22 20 19 19 18 18 19 19 19 19 19 18
27 27 28 28 28 29 28 28 28 27 27 27 27 27 28 28 29 30 30 30 30 29 29 29 28 28 27 26 25 24 23 22 21 20 20 20 19 20 21 21 20 20
28 28 29 29 29 29 29 29 29 29 29 28 28 27 28 28 28 29 31 31 31 31 30 30 30 29 28 27 25 25 24 24 23 22 21 21 21 21 21 22 21 21
30 29 30 30 30 30 29 29 29 30 30 29 29 29 29 29 29 29 30 30 31 31 31 31 31 30 28 27 25 25 25 25 25 24 23 22 22 22 22 22 22 22
31 31 31 31 31 30 30 30 30 30 30 30 30 30 30 30 30 30 29 30 31 32 32 32 31 30 28 26 25 26 26 26 26 26 25 24 24 23 22 22 23 23
31 33 33 32 32 31 31 31 31 31 31 30 30 30 30 31 31 30 30 30 30 31 31 31 31 30 28 26 25 26 26 27 27 27 26 26 25 24 24 23 24 24
32 33 33 33 33 33 33 33 33 32 31 31 31 31 32 31 30 30 30 30 30 30 30 30 30 30 28 26 25 26 26 27 28 28 28 28 27 26 25 25 25 25
33 34 34 34 34 35 35 34 34 33 33 32 32 32 32 30 30 30 30 29 29 29 29 29 29 29 28 26 25 26 27 28 29 30 30 29 28 27 27 27 26 26
33 34 35 35 36 36 36 36 35 34 34 34 33 33 32 31 30 30 30 29 28 28 29 29 28 28 28 27 26 26 28 30 31 31 31 31 30 29 28 28 28 27
33 35 36 36 37 38 38 37 36 35 35 35 35 34 33 32 31 30 29 29 28 28 29 28 27 27 27 27 26 27 29 31 32 32 32 33 32 31 30 30 29 29
32 36 37 38 38 39 39 38 38 37 37 36 36 35 35 33 32 31 30 29 28 28 28 27 27 26 26 26 26 27 29 30 32 32 33 33 33 32 31 31 30 30
32 35 38 39 39 38 39 39 39 39 38 38 37 37 36 35 34 33 31 29 28 28 28 28 27 27 27 26 26 27 28 30 31 32 33 33 33 32 32 32 31 30
33 34 36 37 38 38 38 39 39 39 39 39 39 38 37 37 36 34 31 29 29 28 28 28 27 28 27 27 27 28 29 30 31 32 33 32 31 31 31 31 31 30

ECMWFNIL_700_spd_102.txt.gz
Wind_Speed
19 21 20 18 17 16 16 15 14 14 13 13 12 11 9 9 9 8 8 8 8 7 7 6 7 7 7 7 7 7 8 9 9 9 9 10 10 10 9 9 8 8
17 20 21 20 19 17 17 16 16 15 14 13 13 12 11 9 9 8 8 8 8 8 7 7 7 7 6 6 7 7 7 8 8 8 9 10 10 10 9 9 8 8
16 19 21 21 20 18 17 17 17 16 16 15 14 12 12 11 10 9 8 8 8 8 8 7 6 7 6 6 6 6 6 7 7 8 8 9 9 10 10 9 9 9
16 16 19 21 21 20 19 18 18 17 16 16 15 13 13 12 11 10 10 9 9 9 8 8 7 6 6 6 6 6 6 7 8 8 7 8 9 10 10 9 9 9
17 16 17 20 22 22 21 20 19 18 17 16 16 14 13 12 11 11 10 10 10 10 9 9 8 7 7 7 7 7 7 7 7 8 7 8 9 9 10 10 10 10
19 18 17 18 21 22 22 21 20 19 18 17 16 15 14 13 12 12 11 11 11 12 11 10 10 9 8 8 7 7 7 7 7 7 7 8 8 9 10 11 11 10
20 19 18 18 19 21 22 22 21 20 20 18 17 16 15 14 14 13 13 12 12 12 12 12 11 10 10 9 9 8 8 8 8 7 7 7 8 9 10 10 10 10
20 20 20 19 19 20 21 22 22 22 21 20 19 18 16 15 15 15 14 14 14 13 12 12 12 11 11 10 10 10 9 9 8 8 7 7 7 8 9 9 9 9
20 21 22 21 21 20 20 21 22 22 22 21 20 19 18 17 17 16 16 15 16 15 14 13 12 12 12 12 11 11 10 10 10 9 9 8 8 9 9 9 9 8
20 21 22 22 22 22 20 20 21 22 22 22 22 21 20 19 18 18 17 17 16 16 15 14 13 13 13 13 12 12 12 11 11 10 10 9 9 10 10 10 10 10
22 20 21 22 22 23 22 21 21 22 22 22 22 22 22 21 20 19 19 18 17 17 16 14 14 13 13 13 13 13 12 12 12 11 11 11 11 11 11 11 11 11
24 21 20 20 21 22 22 22 22 22 22 22 21 21 22 22 21 20 20 19 17 17 17 16 15 15 15 15 14 14 13 13 13 12 12 12 12 12 13 13 12 12
26 26 24 21 20 21 21 21 22 22 23 22 21 21 21 21 21 20 20 20 18 18 18 17 17 16 16 16 16 16 15 14 14 13 13 13 13 13 14 14 14 14
26 26 25 23 23 22 21 22 23 23 24 24 22 22 22 22 22 21 20 21 20 19 18 18 19 18 18 18 17 18 17 16 15 15 14 14 13 14 14 14 15 15
26 26 25 24 25 25 23 23 23 23 23 25 25 24 23 23 24 24 22 21 20 20 19 20 20 20 19 19 18 18 18 17 16 16 16 16 15 15 15 15 15 15
26 28 26 25 27 28 26 25 25 24 23 24 26 27 25 24 24 25 25 24 22 20 20 20 21 20 19 19 18 18 18 18 18 17 17 17 17 17 17 17 17 17
27 28 27 26 27 29 29 29 29 28 26 24 25 27 27 25 23 23 25 26 25 23 20 20 21 21 19 18 18 18 18 19 19 19 18 18 18 19 19 19 19 18
29 29 28 26 26 29 33 34 32 31 31 29 28 27 27 27 25 23 23 24 26 26 24 21 20 20 20 19 17 17 18 19 20 20 20 20 19 19 19 20 20 20
27 27 27 27 28 31 35 36 32 31 34 35 34 31 29 28 28 26 24 23 24 25 25 25 22 19 18 18 17 15 15 16 19 20 20 21 21 20 20 20 21 21
26 27 28 30 31 32 35 35 33 33 34 34 33 33 32 30 29 28 28 27 26 26 25 26 25 21 18 17 17 16 15 15 16 18 20 21 22 22 22 21 21 22
28 28 30 32 33 33 35 35 35 35 34 32 32 32 30 31 30 28 29 29 28 28 27 27 27 25 22 20 18 17 16 16 16 18 21 23 23 23 23 23 22 23
28 28 29 31 33 34 35 36 36 36 35 34 34 32 31 32 32 30 30 29 29 29 30 29 28 26 25 24 23 21 19 18 19 20 22 24 25 26 25 25 25 25
28 29 30 31 32 33 34 34 35 36 36 37 35 33 32 34 34 33 32 32 32 31 31 31 30 28 27 26 26 25 25 23 21 21 23 25 26 27 28 27 27 26
23 26 28 30 31 32 31 32 33 33 35 37 36 34 32 33 35 35 35 35 34 32 30 30 29 28 28 28 28 28 28 27 25 25 25 26 27 28 29 30 29 28
17 19 22 24 26 29 31 31 31 30 30 32 34 35 35 34 35 36 36 36 35 33 31 31 30 28 28 29 28 28 28 28 28 28 28 27 28 29 30 31 31 31
16 17 18 18 20 23 27 29 31 31 31 30 31 33 36 37 37 37 36 36 36 35 35 34 33 31 29 27 27 28 28 28 29 30 29 29 29 30 32 33 33 32

ECMWFNIL_700_spd_105.txt.gz
Wind_Speed
12 14 14 13 11 11 10 10 9 9 9 9 9 9 9 9 8 8 7 6 5 5 4 5 5 5 5 6 6 6 7 8 9 10 10 10 10 10 10 9 8 7
11 13 15 14 13 11 10 10 10 9 9 9 9 9 9 8 8 8 7 7 6 5 4 4 4 4 4 5 6 6 7 8 9 10 10 10 10 10 10 10 9 8
11 11 13 14 14 12 11 11 10 10 10 9 9 9 9 8 8 8 7 7 7 6 5 4 4 4 5 5 5 6 6 8 9 9 10 11 10 10 10 10 10 10
10 10 11 13 14 14 13 12 11 11 11 10 10 9 8 8 8 7 7 7 7 6 6 5 4 4 5 5 6 5 6 6 8 8 9 10 10 10 10 10 10 10
10 10 10 11 13 15 15 14 12 12 11 11 10 10 9 8 8 7 7 7 7 7 7 6 6 5 5 5 5 6 6 6 7 8 8 8 9 10 10 11 11 10
11 10 10 11 12 14 15 15 14 13 12 12 11 11 10 9 8 8 7 7 7 7 7 7 7 6 6 6 5 5 6 6 6 7 7 7 8 8 9 10 10 10
12 11 11 11 12 13 15 15 15 14 13 13 12 12 11 10 9 9 8 8 8 8 8 8 8 8 7 7 6 6 6 6 6 6 6 6 6 7 8 9 10 9
14 14 13 13 13 13 13 14 15 15 15 14 13 13 12 11 10 10 10 9 9 8 8 9 9 9 9 8 8 8 7 6 6 6 6 6 6 7 7 8 9 9
15 15 14 14 14 13 13 13 13 14 15 16 15 14 14 13 12 12 11 11 10 10 9 9 10 10 10 9 9 9 9 8 8 7 7 7 7 7 7 8 8 8
16 16 15 15 15 14 14 13 12 13 14 15 16 16 16 15 14 14 14 13 12 11 11 10 10 10 11 10 10 10 10 10 10 9 9 8 8 8 8 8 8 8
18 18 18 17 16 15 15 14 13 13 13 14 16 17 17 17 16 16 16 16 14 13 13 12 10 11 11 11 11 11 11 11 11 11 11 10 10 10 9 9 9 9
19 20 20 20 18 16 16 15 15 14 14 14 14 16 17 17 17 17 17 17 16 15 14 13 12 12 12 12 12 12 12 12 12 12 12 11 11 11 11 11 10 11
20 22 22 22 20 17 16 16 16 16 16 16 15 15 16 17 16 16 16 17 17 16 16 15 14 14 14 14 14 14 13 13 13 13 13 12 12 12 12 12 12 12
19 22 24 24 21 18 17 18 18 18 18 18 18 16 16 17 17 16 15 15 16 16 17 17 17 16 15 15 15 16 16 15 14 15 14 13 13 12 12 13 13 13
19 22 24 24 22 20 20 21 21 20 19 20 21 19 17 17 18 18 18 16 15 16 17 18 19 18 17 17 16 17 17 17 16 16 16 16 15 14 14 14 14 14
20 22 24 24 23 23 23 24 23 22 21 21 22 22 20 18 18 19 19 19 17 16 16 18 19 19 18 18 17 17 17 18 18 17 17 17 17 17 17 16 16 16
20 22 24 24 25 25 25 25 24 22 22 22 23 23 21 19 18 19 19 19 19 18 16 16 17 18 18 18 18 18 17 18 19 19 18 18 18 19 18 18 18 18
20 21 23 25 25 25 27 27 26 25 24 24 24 24 23 22 21 21 20 19 19 19 18 16 14 14 16 17 17 18 18 18 19 20 21 21 20 19 19 19 19 19
20 20 21 22 24 24 25 27 26 26 26 26 25 25 26 25 24 24 23 22 21 20 19 18 16 14 14 14 15 16 17 18 18 19 21 22 22 21 20 20 20 20
21 20 20 21 22 22 23 25 25 26 28 28 28 28 29 29 27 26 26 25 24 23 21 21 20 18 16 15 14 14 15 16 17 18 19 20 20 21 20 20 21 21
23 22 22 21 21 23 24 25 26 27 28 28 29 29 30 30 29 28 28 28 28 27 26 24 23 22 21 19 17 16 16 17 17 18 19 19 19 20 21 21 22 22
24 24 24 23 23 24 25 27 28 28 29 29 29 30 29 29 30 30 30 30 30 31 31 28 26 25 25 25 24 22 21 21 20 20 20 21 21 21 22 23 24 24
22 23 23 23 24 25 26 27 27 26 28 29 29 28 29 30 31 31 31 31 31 33 33 32 29 27 27 28 29 29 28 26 25 25 24 23 23 23 23 24 25 26
17 18 19 20 22 24 26 27 27 25 25 26 26 27 28 29 31 32 32 32 32 32 33 34 33 31 29 29 30 31 31 30 28 27 27 26 25 24 25 25 25 26
11 12 13 14 16 20 23 25 26 26 25 25 25 25 26 27 29 30 31 33 34 33 33 34 35 33 32 30 29 29 30 30 29 29 28 28 27 26 26 27 28 27
9 9 9 9 10 13 17 19 22 24 26 27 27 26 26 25 26 26 27 29 31 32 32 32 32 32 33 33 32 30 29 29 30 31 32 32 32 31 29 29 30 30

ECMWFNIL_700_spd_108.txt.gz
Wind_Speed
13 13 13 12 11 10 10 10 10 10 9 9 10 10 10 10 10 10 10 10 9 9 9 9 9 9 9 9 8 8 10 11 12 12 11 10 10 9 9 8 8 8
13 14 14 13 11 10 9 10 10 10 9 9 9 9 9 9 9 9 8 8 8 8 8 8 8 8 8 9 8 8 9 9 11 12 12 12 11 10 10 9 9 8
13 14 14 14 13 11 10 10 10 10 10 9 9 8 8 8 8 8 8 7 7 7 7 6 6 7 7 8 8 8 9 9 10 11 11 12 12 11 10 10 10 9
13 13 14 15 14 13 11 10 10 10 9 9 9 8 8 8 7 8 8 7 7 7 7 6 6 6 6 7 7 7 8 9 10 10 10 11 12 11 11 11 11 11
15 14 14 15 16 15 14 12 10 9 9 9 9 8 8 8 7 7 7 7 8 8 7 6 6 5 5 5 6 6 7 7 8 9 10 11 11 12 12 12 12 12
16 16 15 15 16 16 15 14 12 11 10 9 9 9 8 8 8 8 7 7 8 7 7 7 6 5 5 5 5 5 6 6 6 7 8 9 10 11 12 12 12 12
17 17 17 16 16 16 16 16 15 13 12 11 10 10 9 8 8 8 8 7 7 7 7 7 7 6 6 5 5 5 5 5 5 6 7 7 8 9 10 11 12 11
17 17 17 17 17 16 16 17 17 15 14 13 12 11 10 9 9 8 8 7 7 7 7 7 7 7 7 7 6 6 6 5 6 6 6 7 7 8 9 10 10 10
19 18 18 18 18 17 17 17 17 16 16 15 13 12 12 11 10 9 9 8 8 7 7 7 7 7 8 8 8 8 8 7 7 7 7 7 7 8 8 9 9 9
22 21 20 19 18 17 18 18 17 17 17 16 15 14 14 13 12 11 11 10 9 8 8 7 8 8 8 8 8 9 9 9 9 9 9 9 9 9 9 9 9 9
27 24 22 20 18 17 18 19 19 19 18 17 17 16 16 15 14 13 13 12 11 10 10 9 9 9 10 10 10 10 11 11 11 10 11 11 11 11 11 10 10 9
25 24 23 21 19 18 18 18 19 20 20 20 19 18 18 17 16 16 15 14 13 12 12 12 11 11 11 11 12 12 12 12 12 11 11 11 12 12 12 12 11 11
22 24 23 22 21 20 20 19 19 20 21 21 21 20 20 19 18 17 16 15 15 15 14 13 13 13 12 13 13 13 13 13 12 12 11 11 11 12 13 13 13 13
25 24 22 22 22 21 20 19 20 20 20 20 20 20 20 19 19 18 18 17 16 16 15 15 15 14 14 14 14 14 14 13 13 13 13 12 12 12 13 13 14 14
23 21 19 21 23 22 20 20 20 19 19 19 19 20 19 19 19 19 19 18 17 17 16 16 17 16 14 14 14 14 14 14 14 14 15 15 15 14 14 15 15 15
18 17 19 21 22 22 22 21 20 19 18 18 19 19 19 19 19 19 19 19 19 19 18 18 17 16 15 15 14 15 15 16 16 16 16 16 17 17 17 17 16 16
16 17 19 20 21 22 22 21 20 20 20 19 18 18 19 19 19 19 19 18 19 19 19 19 19 17 16 16 16 16 16 17 17 17 17 18 18 18 19 19 19 19
17 17 18 19 20 20 20 21 21 22 22 21 20 20 21 21 21 20 20 20 19 19 18 18 18 18 18 18 18 18 18 19 19 18 18 19 19 19 19 20 21 21
17 17 17 18 19 19 20 21 22 23 23 23 22 22 22 23 22 21 21 21 21 20 19 18 17 17 18 19 20 20 19 20 21 20 20 20 20 21 21 20 21 21
17 17 17 17 18 19 21 22 23 24 24 24 24 24 24 25 24 23 22 22 22 21 21 20 18 17 17 18 19 20 20 21 21 22 22 21 21 21 21 21 20 21
16 17 17 17 18 19 20 22 23 24 23 24 24 25 25 26 26 26 26 25 24 23 23 22 21 20 20 19 19 19 20 21 22 23 22 22 22 22 22 21 21 20
18 17 17 18 19 19 20 21 22 23 24 24 24 25 25 26 27 28 29 28 27 26 26 25 25 24 24 23 22 21 21 22 22 23 23 22 22 22 23 23 22 22
17 18 19 20 21 21 22 22 23 23 24 24 24 24 25 26 26 27 29 30 29 29 29 28 28 27 27 27 26 25 24 24 23 23 23 23 23 24 24 25 25 25
13 14 16 19 21 23 24 25 25 25 25 24 24 24 25 26 27 27 28 29 29 29 29 29 29 29 30 30 28 27 27 27 26 25 25 24 24 24 25 26 26 26
9 10 11 14 17 19 22 24 26 27 27 25 24 23 24 26 27 27 28 29 30 29 29 29 29 30 31 31 29 28 29 29 29 29 28 27 26 26 26 27 27 27
9 9 9 10 11 14 16 19 22 24 26 26 25 25 25 26 26 27 28 29 30 29 29 29 30 31 32 31 31 30 29 29 30 31 30 30 29 29 28 28 28 29

ECMWFNIL_700_spd_111.txt.gz
Wind_Speed
11 10 11 11 11 10 8 8 7 7 6 6 7 7 7 7 7 7 8 8 8 7 8 8 7 7 7 8 8 8 10 10 10 10 10 10 10 9 8 7 7 7
13 12 12 11 11 10 9 8 8 8 7 7 7 7 6 6 6 7 7 6 6 7 7 7 7 7 7 7 8 8 9 10 11 11 11 11 11 10 9 8 7 7
13 13 13 12 11 10 9 9 9 10 9 8 7 6 6 7 7 7 7 6 6 6 6 6 7 7 7 8 8 8 8 9 10 11 12 12 12 10 9 8 8 8
13 13 14 14 13 12 11 11 11 11 10 9 8 7 7 8 7 7 7 7 6 6 6 5 6 7 7 8 8 8 8 9 9 10 11 12 12 11 11 9 9 9
14 14 15 16 16 15 14 13 12 12 11 10 10 9 9 9 8 8 7 7 7 7 6 6 6 6 6 7 7 8 8 9 9 10 10 11 12 12 12 11 10 10
15 15 16 17 18 18 16 15 13 13 13 12 12 11 10 10 9 9 8 7 8 7 7 7 6 6 6 6 7 7 8 8 8 9 10 11 11 11 11 11 11 11
16 17 17 18 19 19 18 17 16 15 14 14 13 12 12 11 10 10 10 9 8 8 8 8 8 7 6 6 6 6 7 7 8 8 9 10 10 10 10 11 11 11
17 18 18 19 19 20 20 19 18 17 16 15 15 14 13 13 12 12 11 11 10 10 10 9 9 9 8 7 6 6 7 7 7 8 9 9 9 9 10 10 10 10
19 19 19 19 20 20 21 21 20 19 18 17 16 15 15 14 14 14 13 12 11 11 10 10 9 9 9 9 8 8 7 7 7 8 8 9 9 9 9 9 9 9
20 21 21 21 20 20 20 21 21 20 20 19 18 17 17 16 16 15 15 14 13 12 11 10 10 10 10 10 10 9 9 9 8 8 8 9 9 9 9 9 9 9
21 21 21 21 21 20 20 20 21 22 22 21 20 19 19 18 18 18 17 16 14 13 12 11 11 11 11 10 11 11 11 11 10 9 9 9 10 10 10 9 9 9
23 23 23 22 22 22 21 21 22 23 23 23 23 22 21 20 20 20 19 17 16 15 14 14 13 13 12 12 12 12 12 12 12 11 11 11 11 11 11 11 10 10
24 24 25 25 24 24 23 23 24 23 24 24 24 24 24 23 22 21 20 19 18 17 17 16 15 15 14 13 13 13 13 12 12 12 11 11 11 11 12 12 12 11
25 25 26 27 27 26 26 25 25 25 24 24 25 25 25 24 24 23 21 20 20 19 18 18 18 17 15 15 14 14 13 13 13 12 12 12 11 11 12 12 12 12
25 24 25 27 28 28 28 28 27 26 25 25 25 26 25 25 25 24 23 23 22 22 21 20 20 19 17 16 15 15 15 14 14 14 14 14 13 13 13 13 13 13
25 24 25 26 27 28 29 30 30 29 27 26 27 27 27 26 26 25 24 24 24 23 23 23 22 20 19 18 17 17 17 17 17 17 17 17 16 16 16 15 15 15
23 24 25 25 26 28 30 31 32 32 30 29 29 29 29 28 27 26 25 24 23 23 23 23 22 21 19 18 18 19 19 19 19 19 19 19 19 18 18 17 17 17
22 23 25 25 26 28 30 31 32 34 35 34 32 30 30 29 28 27 25 24 23 22 23 23 22 21 20 19 19 19 20 20 21 21 21 21 21 21 20 19 19 19
21 22 24 24 25 28 30 31 32 36 39 38 34 30 29 28 26 26 25 24 22 21 21 22 21 20 20 21 21 20 20 21 21 21 21 22 22 22 22 21 21 21
20 23 24 25 25 27 29 29 31 36 39 38 33 28 27 26 25 24 24 23 23 22 22 21 21 20 21 21 21 20 21 21 22 22 22 22 22 22 22 22 22 22
19 22 24 25 25 25 24 24 26 30 33 33 29 26 26 27 24 22 22 23 23 23 23 22 22 22 22 22 21 20 20 21 22 22 22 22 22 21 22 22 22 22
16 18 20 21 22 22 22 22 23 26 28 29 26 24 27 28 25 22 22 23 23 24 24 24 24 24 24 24 22 21 22 22 22 22 22 22 21 21 21 21 21 22
16 18 18 19 21 21 22 22 22 24 26 26 26 26 28 28 25 22 22 23 24 25 26 26 27 27 27 26 25 24 25 25 25 25 24 24 23 22 22 23 23 23
13 15 17 18 20 21 22 23 24 25 26 26 27 27 26 24 22 21 22 24 25 26 27 27 27 28 29 29 28 28 28 28 28 28 28 27 26 25 25 26 25 25
8 9 11 13 15 17 19 21 23 25 26 27 26 25 23 22 22 23 24 25 26 27 28 28 28 28 29 29 29 30 30 31 31 30 29 28 28 28 28 28 27 27
7 7 8 9 10 11 13 15 17 19 22 23 24 24 24 24 25 26 26 27 27 28 29 30 30 29 30 30 30 31 31 32 32 32 31 29 29 29 29 30 29 28

ECMWFNIL_700_spd_114.txt.gz
Wind_Speed
14 13 13 13 12 11 9 8 8 8 7 7 7 7 8 8 9 9 9 9 9 9 9 9 8 8 7 7 7 7 8 8 8 7 7 7 6 6 5 5 5 5
15 13 13 13 13 12 11 10 9 9 9 8 8 7 7 8 8 8 8 8 8 7 8 9 8 8 7 7 7 7 7 8 9 9 8 8 7 7 7 6 5 5
15 15 14 13 13 12 12 11 10 10 10 9 9 8 8 8 8 8 8 8 7 7 7 8 8 7 7 8 8 7 7 8 8 9 9 9 8 8 8 7 6 6
15 15 15 15 14 13 13 12 11 11 11 10 10 9 9 9 9 8 8 8 7 7 7 6 7 7 7 7 7 7 8 7 7 8 9 10 10 9 9 9 8 8
15 16 16 16 16 15 14 13 12 11 11 11 11 11 10 10 9 9 9 8 8 7 7 6 6 6 6 6 7 7 8 7 7 8 9 10 10 11 11 10 9 9
16 16 17 17 17 16 15 14 13 13 12 12 12 12 11 11 10 10 10 9 9 8 8 7 7 6 6 6 6 7 7 7 7 7 8 10 10 11 11 11 11 10
17 17 17 18 19 18 17 15 14 14 14 13 13 13 12 12 11 11 11 11 10 9 9 9 8 7 7 6 6 6 6 6 6 7 8 9 10 11 11 12 12 12
18 18 18 19 20 20 19 18 16 15 15 15 14 14 13 13 13 13 13 12 12 11 11 11 10 9 8 7 7 7 7 7 7 7 8 8 9 10 11 11 11 11
19 19 20 19 20 20 20 20 18 17 17 16 15 15 15 14 14 14 14 14 13 13 12 12 11 11 10 9 9 9 8 8 8 8 8 9 9 10 10 10 10 11
19 19 19 20 19 19 20 20 20 20 19 18 17 17 17 16 16 16 15 15 14 13 13 12 12 12 11 11 11 11 11 10 10 10 10 10 10 10 10 10 10 10
19 18 18 19 19 19 19 20 21 21 21 21 20 19 18 18 18 18 17 16 15 14 14 14 14 13 13 13 13 13 13 13 12 12 11 11 11 11 11 11 10 10
20 20 19 18 18 19 19 20 21 22 23 23 22 21 21 20 20 19 19 18 17 16 16 15 15 15 15 14 14 14 14 14 14 13 12 12 12 12 12 12 12 12
22 22 21 20 20 20 20 20 21 22 23 24 24 24 23 22 21 20 20 20 19 19 18 18 18 17 16 15 15 15 15 15 15 15 14 14 13 13 13 13 13 12
26 26 25 24 23 23 22 21 21 22 22 24 24 25 25 24 23 22 21 22 21 21 20 20 20 19 18 17 16 16 16 16 16 16 16 15 15 14 14 14 13 13
30 29 26 25 24 24 24 23 23 23 23 23 24 25 25 26 26 25 24 23 23 22 22 22 22 21 20 19 18 18 18 18 18 18 18 17 17 16 16 15 15 14
30 27 24 23 24 24 25 25 25 25 25 25 25 25 25 26 26 26 26 26 25 24 24 24 23 22 21 21 21 21 20 20 20 20 20 19 19 19 18 18 17 17
31 28 25 25 24 24 25 27 28 29 28 26 26 26 25 25 26 26 27 27 27 26 26 25 24 23 23 23 23 23 23 23 22 22 22 22 21 21 20 20 20 19
30 29 28 27 25 24 25 27 28 29 29 28 27 27 26 26 27 26 26 27 28 27 27 26 25 24 24 24 24 24 25 25 25 24 24 24 23 23 22 22 22 22
24 26 26 26 25 26 27 27 27 28 28 27 28 28 27 27 28 28 28 28 28 28 28 27 26 25 24 25 25 25 25 26 26 25 25 25 24 24 23 23 23 23
19 21 22 24 26 27 27 28 28 27 25 24 25 26 27 27 28 29 29 30 30 29 28 27 26 26 25 25 25 26 27 27 26 26 25 24 24 23 23 23 22 23
16 18 19 21 22 24 25 25 26 24 21 21 23 25 25 26 27 28 29 30 31 32 31 29 28 28 27 26 26 27 28 28 28 27 26 25 24 24 23 23 22 22
14 16 16 17 19 21 22 23 22 20 18 19 22 24 25 25 27 29 30 30 32 33 32 30 30 31 30 29 28 28 28 28 28 28 27 27 26 25 24 23 23 23
13 13 13 14 15 17 18 19 18 17 17 18 19 21 23 24 27 31 32 32 33 34 32 31 34 35 34 32 30 30 30 29 29 29 28 28 27 26 26 25 24 24
13 13 13 13 13 15 15 16 17 18 19 19 19 20 22 23 25 29 32 34 35 35 34 34 36 35 33 31 31 32 31 31 31 31 30 30 29 28 28 27 26 26
10 11 12 13 14 16 17 17 18 20 21 21 21 22 22 22 22 23 26 29 31 34 34 35 35 33 31 31 31 32 32 32 32 32 32 32 31 31 30 30 29 29
9 9 10 11 12 14 15 16 17 19 20 21 22 23 23 23 22 22 22 24 27 30 32 33 33 31 30 31 32 32 32 32 32 33 34 34 33 33 33 33 32 32

ECMWFNIL_700_spd_117.txt.gz
Wind_Speed
10 11 12 12 11 10 10 11 10 10 9 9 9 10 10 10 10 10 10 11 11 10 10 9 9 8 8 8 8 8 7 7 6 6 6 5 5 4 3 3 3 3
11 11 12 12 12 11 11 11 11 10 10 9 9 9 9 10 10 10 11 11 11 10 10 10 10 9 9 8 8 8 8 7 7 7 7 6 6 5 4 4 3 4
12 12 12 12 12 11 11 11 11 11 10 9 9 9 9 10 10 11 11 11 11 11 10 10 10 10 9 9 9 8 8 8 7 8 8 7 7 7 6 5 5 5
14 14 14 13 13 13 12 12 12 12 11 10 10 10 10 10 10 10 11 11 11 11 11 10 10 10 9 9 9 8 8 8 7 7 8 9 9 8 7 7 6 6
16 15 15 15 15 14 13 12 12 12 12 11 11 11 11 11 11 11 11 11 11 11 11 11 10 10 10 9 9 8 8 8 7 7 8 9 9 9 9 8 7 7
16 16 16 16 16 15 14 14 13 13 13 12 12 12 12 12 12 12 12 12 12 11 11 11 11 10 10 9 9 8 8 8 8 8 8 9 9 9 9 9 9 9
16 17 17 18 18 17 16 15 14 14 14 13 13 13 13 13 14 14 14 13 13 12 12 11 11 10 10 9 9 9 9 8 9 9 9 9 9 9 10 10 10 10
17 17 18 19 19 18 18 16 15 15 15 14 14 14 14 14 15 15 15 14 13 13 12 12 12 11 10 10 10 9 9 9 9 9 9 9 9 9 10 10 10 10
19 19 19 19 19 19 19 18 17 16 16 15 15 15 15 15 15 15 15 15 14 14 14 13 13 12 11 11 10 10 9 9 9 9 9 9 8 9 9 9 9 10
20 20 20 20 19 20 20 20 19 18 17 17 16 16 16 16 16 16 15 15 15 15 14 14 14 13 12 12 11 10 10 10 9 9 9 9 9 9 9 9 9 9
21 21 21 21 21 21 21 22 22 21 20 19 18 17 17 16 16 16 16 15 15 15 15 15 14 14 13 13 12 12 11 11 11 11 10 10 10 10 10 9 9 9
22 22 22 22 22 23 22 22 23 23 22 22 21 20 19 18 18 17 16 17 16 16 16 16 15 15 14 14 13 13 13 13 13 12 12 12 12 12 12 11 11 10
24 23 23 23 23 23 23 23 23 23 23 23 23 22 21 21 20 19 18 18 18 18 18 17 17 16 16 15 15 14 14 14 14 14 14 14 14 14 14 13 13 13
24 24 24 24 23 23 23 22 22 22 23 23 24 24 24 23 22 21 20 20 20 20 20 19 19 18 17 17 17 16 16 15 15 15 15 15 16 16 16 16 16 15
25 25 25 25 24 24 23 23 23 23 22 22 23 24 24 25 24 24 23 22 21 21 21 21 21 20 19 19 19 18 18 17 17 17 17 17 17 18 18 18 17 17
26 26 26 25 25 24 24 24 23 23 23 23 23 23 23 24 25 25 25 24 23 22 22 22 22 21 21 22 21 21 21 20 19 19 19 19 19 19 19 19 19 19
27 27 27 26 25 25 25 25 25 25 24 24 23 23 23 24 24 25 26 26 25 24 24 23 23 23 23 24 24 24 23 23 22 21 21 21 20 20 20 20 21 21
27 28 29 28 27 27 27 27 26 26 26 25 24 24 25 25 25 25 25 25 24 24 24 25 25 25 25 25 26 26 26 25 24 24 23 23 22 22 22 22 22 22
26 27 28 28 28 29 30 29 28 27 26 25 25 26 26 26 27 27 27 26 25 24 25 26 26 27 26 27 27 27 28 27 26 26 25 24 23 23 23 23 23 23
22 24 25 27 27 28 30 30 30 29 27 26 26 26 26 27 27 28 29 29 27 26 26 26 26 26 26 27 27 28 28 28 28 27 26 24 23 22 22 23 23 24
18 20 21 22 23 24 26 28 29 29 28 27 27 26 26 26 27 29 30 31 30 28 28 27 26 25 25 25 26 27 28 28 28 27 26 25 24 23 22 22 23 24
15 16 17 18 19 20 22 24 26 27 27 27 26 26 25 25 26 28 30 31 30 29 29 27 26 26 26 26 26 27 28 28 28 28 27 26 26 25 24 24 24 24
13 15 16 17 17 18 20 21 21 22 22 23 23 24 25 26 28 28 29 29 29 28 28 27 26 25 24 25 26 27 28 29 29 28 28 28 28 28 27 26 25 25
13 14 15 15 15 15 16 17 17 18 19 20 21 22 24 27 29 28 26 26 26 26 25 25 25 24 23 24 25 26 28 29 29 30 30 30 30 30 29 28 27 27
14 14 14 14 15 15 15 15 16 17 19 21 22 23 25 26 25 24 23 24 24 24 24 24 25 24 24 25 26 27 28 29 30 32 33 33 32 32 31 31 30 30
13 13 14 15 16 16 16 16 16 17 19 21 22 23 24 23 22 21 21 23 22 21 20 21 23 24 25 26 27 28 30 31 31 32 33 33 32 32 32 32 33 34

ECMWFNIL_700_spd_120.txt.gz
Wind_Speed
12 12 12 11 11 11 10 9 9 9 9 9 8 8 8 9 9 10 10 10 10 9 9 9 9 8 8 7 7 7 6 6 6 5 5 5 5 6 6 7 8 9
11 12 12 12 12 11 11 10 9 8 8 8 8 8 8 8 9 9 9 10 10 10 10 10 9 9 8 8 7 7 7 7 6 6 7 7 6 6 6 6 7 7
11 12 12 12 12 12 11 10 10 9 8 8 8 8 8 9 9 9 9 10 10 10 10 10 10 10 9 9 8 8 8 8 8 8 8 8 8 7 7 7 7 6
12 12 13 13 12 12 12 11 10 9 9 8 9 9 9 9 9 9 9 10 10 10 10 10 10 10 9 9 9 9 9 8 8 8 9 10 10 9 8 8 8 7
13 13 13 14 13 12 12 11 11 10 10 9 9 9 9 10 9 10 10 10 10 10 10 10 10 10 10 10 9 9 9 9 9 8 8 9 10 10 10 9 9 9
15 14 14 15 14 14 13 12 12 12 11 11 10 10 10 10 10 10 10 11 11 11 11 11 10 10 10 10 10 10 10 10 9 9 9 9 9 10 10 10 10 10
17 16 16 16 16 15 15 14 13 13 13 13 12 12 12 11 11 11 11 11 11 11 11 11 11 11 10 10 10 10 10 10 10 9 10 10 9 9 9 10 10 11
17 18 18 17 17 16 16 15 15 14 14 14 13 13 13 13 13 12 12 12 12 12 12 11 11 11 10 10 9 9 10 10 10 10 10 10 10 10 10 10 10 10
18 18 18 18 18 17 17 17 16 16 15 15 14 14 14 14 14 13 13 13 13 12 12 12 12 11 11 10 10 9 9 9 9 10 10 10 10 10 10 10 10 10
19 19 19 19 19 18 18 18 18 17 17 16 16 15 15 15 15 15 15 14 14 14 13 13 13 13 12 12 11 10 10 10 10 10 10 10 10 10 10 10 10 10
21 20 20 20 19 19 20 20 20 19 19 18 17 17 17 16 17 16 16 16 16 15 15 15 15 14 14 14 13 12 12 11 11 11 11 11 11 11 11 11 11 11
22 22 21 21 21 21 21 21 22 22 21 20 19 19 18 18 17 17 17 17 17 17 16 16 15 15 15 15 14 14 14 13 13 12 12 12 12 12 12 12 12 12
22 22 22 22 21 21 22 22 22 22 23 23 22 21 20 19 18 18 18 18 18 18 17 17 16 16 15 15 15 15 15 15 15 14 14 14 14 14 14 13 13 13
22 22 22 21 21 21 22 22 22 23 23 23 24 23 22 21 20 20 19 19 19 19 18 18 17 17 17 16 16 16 16 16 16 16 15 15 15 15 16 15 15 15
22 22 22 22 22 22 22 22 22 23 23 23 23 24 24 24 23 22 21 20 20 19 19 18 18 18 18 18 17 17 17 17 17 16 16 16 16 16 17 17 17 18
22 23 22 23 23 23 23 23 23 23 23 23 23 23 24 24 24 24 23 23 22 20 20 20 20 20 20 19 19 18 18 18 18 17 17 17 17 17 17 17 18 19
24 24 23 24 24 25 24 24 24 24 23 23 23 23 23 23 24 24 24 24 24 23 22 22 23 23 22 21 20 20 20 19 19 19 18 19 19 19 19 19 19 19
25 25 24 25 25 26 26 25 25 25 25 24 24 24 24 23 23 24 24 24 24 24 23 24 26 26 24 22 22 22 22 22 21 21 21 21 21 21 21 21 21 21
26 26 27 27 28 28 28 27 26 25 25 25 25 26 26 25 25 25 25 24 24 24 23 24 26 26 25 24 24 24 23 23 23 23 23 22 23 23 23 23 23 23
27 30 30 31 31 30 29 29 28 27 27 27 27 27 27 27 27 27 27 26 26 24 24 26 26 25 24 25 25 25 25 25 24 24 24 24 24 24 24 25 25 24
27 29 29 30 30 30 30 30 31 30 30 30 29 29 28 28 28 28 28 28 28 27 28 29 27 24 24 24 25 25 25 25 25 25 24 25 25 24 24 25 25 24
25 26 27 28 28 28 29 29 30 30 30 30 30 30 30 29 29 28 28 28 28 28 29 30 28 25 25 26 26 25 25 25 25 24 24 24 24 24 24 24 25 25
22 24 24 25 26 27 27 28 28 28 29 30 30 30 30 30 31 29 28 29 29 27 27 27 26 26 27 27 27 27 26 26 25 25 25 25 24 24 24 25 26 26
19 21 21 22 23 23 23 24 24 24 25 26 27 28 30 31 31 30 29 29 28 25 23 23 24 26 27 28 29 28 27 27 26 25 26 25 24 25 25 26 27 28
17 18 18 19 19 19 19 20 20 21 22 22 23 25 26 27 28 28 28 27 24 22 21 21 22 25 26 27 27 27 27 27 26 25 25 25 25 26 26 27 30 30
17 16 17 18 18 17 18 19 19 19 20 21 21 22 22 22 24 25 24 22 21 21 20 20 21 23 24 24 24 25 25 26 25 25 25 25 26 27 27 29 31 31

ECMWFNIL_700_spd_123.txt.gz
Wind_Speed
13 13 13 12 12 12 12 11 11 11 10 10 11 11 11 11 10 10 10 9 9 9 9 9 9 8 8 7 6 5 5 5 5 4 5 5 5 5 5 6 9 11
14 13 13 12 12 12 11 11 10 10 9 9 9 9 9 10 10 10 9 9 9 9 9 9 9 8 7 7 7 6 6 5 5 5 5 5 5 6 6 6 7 9
14 14 13 12 12 12 11 10 10 10 9 8 8 8 9 9 9 9 9 9 9 9 9 9 8 8 8 7 7 6 6 6 6 5 5 6 6 6 7 7 7 8
15 14 15 14 14 13 12 11 10 9 9 9 8 8 9 9 9 9 8 8 8 8 8 8 8 8 8 7 7 6 6 6 6 7 7 7 8 8 8 8 8 9
15 15 15 15 14 13 13 12 11 11 10 9 9 8 8 8 8 9 8 8 8 8 8 9 8 8 8 8 8 7 6 7 7 7 7 7 8 9 10 10 10 10
15 14 15 15 14 13 13 13 13 12 11 10 9 9 8 8 8 8 8 8 8 8 8 9 8 8 8 8 8 7 7 8 8 8 8 7 7 8 9 10 11 11
15 15 15 14 14 14 14 13 12 12 11 11 10 9 8 8 8 8 8 8 8 9 9 9 8 8 8 8 8 8 8 8 8 8 8 8 8 8 8 9 10 11
16 16 15 14 14 14 13 13 12 12 11 11 10 9 9 9 9 9 9 9 9 10 10 9 9 9 9 8 8 8 8 9 8 8 8 9 9 9 8 8 9 10
16 16 16 15 14 14 14 13 13 13 12 12 11 11 11 11 10 10 10 10 10 10 10 10 10 10 9 9 8 8 8 8 8 8 8 9 9 9 8 9 9 9
16 16 16 16 15 15 14 14 14 14 13 13 13 12 13 12 12 12 12 12 12 12 11 11 11 10 10 10 9 9 9 8 8 9 9 9 9 9 9 9 9 9
17 16 16 16 16 16 16 16 15 15 14 14 14 14 14 14 14 14 14 14 13 13 13 12 12 12 11 11 11 10 10 9 9 9 9 9 9 9 9 9 10 10
18 17 17 17 16 16 16 17 17 17 15 15 15 16 16 15 15 15 15 15 15 15 14 14 13 13 13 13 12 12 11 11 11 10 10 10 10 9 10 10 10 10
20 19 18 17 17 17 17 17 18 18 18 17 17 17 17 16 16 16 16 16 16 16 16 15 15 15 14 14 13 13 13 12 12 11 11 11 10 10 11 11 11 12
20 20 19 18 17 18 18 17 17 18 19 19 19 18 18 18 18 17 17 16 16 16 16 16 16 16 15 15 14 14 14 14 14 13 12 12 11 11 11 10 11 12
20 21 20 20 18 18 18 18 18 17 18 19 19 19 19 20 20 19 18 17 17 17 17 17 17 17 17 16 16 16 16 15 15 14 14 13 11 11 11 10 11 11
21 20 20 20 20 20 20 20 19 18 18 19 19 19 20 20 21 21 21 20 19 19 18 18 18 19 18 18 17 17 17 17 16 16 15 14 13 13 12 12 12 12
22 21 21 21 21 22 22 21 21 20 20 20 20 20 21 21 21 21 21 21 21 21 20 19 20 21 21 19 18 18 18 18 17 17 17 17 16 15 14 14 14 14
24 23 23 23 23 23 23 23 23 23 23 22 22 22 22 21 21 21 21 21 21 22 21 20 22 23 22 20 19 19 19 19 19 18 18 18 18 17 17 16 16 16
27 26 26 26 26 26 25 24 25 25 25 24 24 24 23 22 22 22 22 22 22 21 20 21 24 24 22 21 21 21 21 21 20 20 20 19 19 19 19 18 18 18
30 30 29 27 27 27 27 27 26 27 27 27 26 26 26 25 25 24 24 23 23 22 22 23 25 22 21 21 21 21 22 22 22 22 22 22 22 21 21 20 20 20
34 33 31 29 29 30 31 30 29 29 29 29 29 29 29 29 29 29 28 27 25 26 27 27 26 23 21 21 21 21 21 21 22 22 23 23 23 23 22 21 21 21
36 34 32 32 32 32 32 32 31 31 31 31 31 31 31 32 32 31 31 29 28 29 30 28 27 25 24 22 22 22 22 22 22 22 22 23 23 23 23 22 22 22
34 33 32 33 33 31 30 31 31 31 31 31 32 33 34 33 32 31 31 30 30 31 31 28 26 25 25 25 25 25 25 25 24 24 23 23 23 24 25 25 24 23
31 31 32 32 31 28 27 28 29 30 30 30 31 31 31 31 31 31 31 31 32 32 31 29 27 26 25 26 26 26 26 27 27 26 26 26 26 26 27 27 26 26
28 28 27 26 26 25 25 27 28 28 27 28 28 27 27 28 28 27 27 28 30 29 27 26 26 26 26 25 24 24 25 25 26 27 28 28 28 28 26 26 27 26
22 21 20 21 22 23 22 23 25 25 24 25 25 24 24 24 23 22 22 23 24 24 22 21 22 23 24 24 21 20 21 21 23 25 26 27 28 27 26 26 28 27

ECMWFNIL_700_spd_129.txt.gz
Wind_Speed
12 12 12 12 12 12 12 13 12 12 12 11 11 11 11 10 10 9 9 9 8 8 8 8 8 7 7 6 5 6 6 5 6 6 5 5 5 6 7 9 9 9
12 12 12 12 11 11 12 13 12 12 12 11 11 11 10 10 9 9 9 9 8 8 8 8 8 8 7 7 6 6 6 5 5 5 5 5 5 5 5 6 7 9
11 11 11 11 12 12 12 12 12 11 11 11 11 10 10 9 9 9 9 8 8 7 7 8 8 8 8 7 7 7 6 5 5 5 5 5 5 5 4 4 5 6
10 11 11 11 11 11 10 11 11 11 11 11 11 10 10 9 9 8 8 8 8 7 7 7 7 8 8 7 7 6 5 5 5 5 4 4 4 4 5 5 4 5
11 11 11 10 10 10 10 10 9 10 10 10 10 9 9 9 8 8 8 8 8 7 7 6 7 7 7 7 6 6 5 5 5 4 3 4 4 4 5 5 5 5
12 11 10 10 10 10 10 9 9 9 10 9 8 8 8 8 8 8 8 8 8 7 7 6 6 6 6 6 6 6 5 4 4 4 4 4 4 4 4 4 5 5
12 11 11 11 10 10 10 10 9 9 9 8 8 8 8 7 7 8 8 8 7 7 7 6 6 6 6 6 5 5 5 4 4 4 4 4 4 3 3 3 4 4
13 12 11 11 11 10 11 10 9 9 9 9 8 8 8 7 7 8 8 8 7 7 7 6 6 6 6 6 6 5 5 4 4 3 3 3 3 3 3 3 3 4
14 13 13 12 12 11 11 11 11 11 10 9 9 8 8 8 7 8 8 7 7 6 6 6 6 6 6 6 6 5 5 4 4 3 3 3 3 3 3 3 3 4
15 15 14 13 13 12 12 12 12 12 11 10 10 9 8 8 8 8 7 7 7 6 6 6 6 6 6 6 6 6 5 4 4 4 3 3 3 3 3 3 4 4
15 15 15 14 14 13 12 12 12 12 11 11 11 10 9 9 9 9 8 8 7 7 8 7 7 7 7 7 7 6 6 6 5 5 4 4 4 4 4 4 4 5
14 14 14 14 14 14 13 13 13 12 12 12 12 11 11 10 10 10 9 9 9 8 9 9 9 9 8 8 8 8 7 7 7 6 6 5 5 5 5 5 5 6
14 14 14 13 13 13 13 13 13 13 13 13 12 13 13 12 12 11 10 11 11 10 10 10 10 10 10 10 10 9 9 8 8 8 7 7 7 6 6 6 7 7
14 14 14 13 13 13 13 13 14 14 13 13 13 13 13 13 13 12 12 12 12 12 11 11 11 11 11 11 11 11 11 10 9 9 9 9 8 8 7 8 9 9
15 15 15 15 14 13 13 13 13 14 15 15 15 15 14 14 14 13 13 13 13 12 12 12 12 11 11 12 12 12 12 11 10 10 10 10 10 9 9 9 10 10
16 16 16 16 16 15 14 14 14 14 14 15 16 16 16 16 16 14 14 14 13 12 13 13 13 12 12 13 13 13 12 12 12 12 11 11 11 11 10 11 11 12
18 17 17 17 17 16 16 16 16 15 15 15 15 15 15 17 17 17 16 16 15 15 16 16 15 14 13 14 14 13 13 13 13 13 13 13 13 13 12 12 13 13
20 19 19 19 19 19 18 18 18 16 16 17 17 15 15 16 17 18 19 19 18 19 19 17 16 16 16 16 15 14 14 14 14 15 15 15 15 14 14 14 14 14
21 20 21 21 21 20 19 20 21 21 20 20 19 18 17 17 17 18 19 19 20 20 19 17 16 16 17 16 16 15 15 15 16 17 17 17 17 16 16 17 17 16
21 21 23 23 21 20 19 20 21 21 21 20 20 20 20 19 19 19 19 19 20 19 19 18 17 17 16 16 15 15 15 16 17 19 19 19 18 19 19 19 19 19
22 21 22 22 22 22 22 22 22 21 21 21 21 21 21 21 21 21 21 21 21 20 20 19 19 18 18 17 16 16 16 16 17 18 19 19 19 20 21 20 20 20
26 24 23 22 24 24 24 24 23 22 22 22 22 22 22 23 23 24 24 24 24 24 23 22 21 21 20 20 19 19 18 18 18 19 19 20 21 21 21 20 19 20
29 29 27 27 27 26 26 25 24 23 24 25 25 25 26 26 26 26 26 26 26 26 25 25 24 24 23 23 23 23 22 22 22 23 22 23 23 24 23 22 21 21
30 29 28 28 29 29 27 27 26 27 27 27 28 29 29 29 29 29 29 28 28 28 27 27 27 26 26 26 26 27 27 26 26 26 26 26 27 27 26 25 24 24
31 30 29 29 29 30 29 28 29 30 29 27 28 30 32 31 31 31 30 29 29 29 28 28 28 28 28 29 29 29 30 29 29 29 29 29 29 29 28 27 27 26
30 30 29 28 29 30 30 30 31 31 28 26 26 28 30 31 32 32 31 29 28 28 28 27 28 29 30 30 30 31 31 30 30 30 30 29 29 28 28 28 26 25